<?xml version="1.0" encoding="UTF-8" standalone="no" ?>
<gpx xmlns="http://www.topografix.com/GPX/1/1" xmlns:xsi="http://www.w3.org/2001/XMLSchema-instance" xsi:schemaLocation="http://www.topografix.com/GPX/1/1 http://www.topografix.com/GPX/1/1/gpx.xsd" version="1.1" creator="VisuGPX - https://www.visugpx.com">
  <metadata>
    <name>Cuers_Pierrefeu_Babaou_Bormes</name>
  </metadata>
  <trk>
    <name><![CDATA[15123335-Cuers_Pierrefeu_Babaou_Bormes]]></name>
    <extensions>
      <line xmlns="http://www.topografix.com/GPX/gpx_style/0/2">
        <color>0000FF</color>
        <width>4</width>
      </line>
    </extensions>
    <trkseg>
      <trkpt lat="43.11375" lon="5.97112">
        <ele>32</ele>
        <time>2022-07-13T20:21:09Z</time>
      </trkpt>
      <trkpt lat="43.1151" lon="5.97092">
        <ele>30</ele>
        <time>2022-07-13T20:21:33Z</time>
      </trkpt>
      <trkpt lat="43.11489" lon="5.96978">
        <ele>29</ele>
        <time>2022-07-13T20:21:48Z</time>
      </trkpt>
      <trkpt lat="43.11552" lon="5.96954">
        <ele>27</ele>
        <time>2022-07-13T20:22:00Z</time>
      </trkpt>
      <trkpt lat="43.11561" lon="5.9695">
        <ele>27</ele>
        <time>2022-07-13T20:22:02Z</time>
      </trkpt>
      <trkpt lat="43.11601" lon="5.96865">
        <ele>27</ele>
        <time>2022-07-13T20:22:15Z</time>
      </trkpt>
      <trkpt lat="43.11661" lon="5.9678">
        <ele>27</ele>
        <time>2022-07-13T20:22:30Z</time>
      </trkpt>
      <trkpt lat="43.11686" lon="5.96749">
        <ele>26</ele>
        <time>2022-07-13T20:22:36Z</time>
      </trkpt>
      <trkpt lat="43.11673" lon="5.96673">
        <ele>27</ele>
        <time>2022-07-13T20:22:46Z</time>
      </trkpt>
      <trkpt lat="43.1166" lon="5.96594">
        <ele>26</ele>
        <time>2022-07-13T20:22:57Z</time>
      </trkpt>
      <trkpt lat="43.1166" lon="5.96566">
        <ele>26</ele>
        <time>2022-07-13T20:23:01Z</time>
      </trkpt>
      <trkpt lat="43.11658" lon="5.96534">
        <ele>26</ele>
        <time>2022-07-13T20:23:05Z</time>
      </trkpt>
      <trkpt lat="43.11638" lon="5.96443">
        <ele>30</ele>
        <time>2022-07-13T20:23:17Z</time>
      </trkpt>
      <trkpt lat="43.11634" lon="5.96408">
        <ele>33</ele>
        <time>2022-07-13T20:23:22Z</time>
      </trkpt>
      <trkpt lat="43.11635" lon="5.96396">
        <ele>34</ele>
        <time>2022-07-13T20:23:23Z</time>
      </trkpt>
      <trkpt lat="43.11653" lon="5.9635">
        <ele>34</ele>
        <time>2022-07-13T20:23:30Z</time>
      </trkpt>
      <trkpt lat="43.11654" lon="5.96342">
        <ele>34</ele>
        <time>2022-07-13T20:23:31Z</time>
      </trkpt>
      <trkpt lat="43.11646" lon="5.96243">
        <ele>40</ele>
        <time>2022-07-13T20:23:44Z</time>
      </trkpt>
      <trkpt lat="43.1165" lon="5.962">
        <ele>40</ele>
        <time>2022-07-13T20:23:50Z</time>
      </trkpt>
      <trkpt lat="43.11649" lon="5.96188">
        <ele>40</ele>
        <time>2022-07-13T20:23:51Z</time>
      </trkpt>
      <trkpt lat="43.11642" lon="5.96159">
        <ele>41</ele>
        <time>2022-07-13T20:23:55Z</time>
      </trkpt>
      <trkpt lat="43.1163" lon="5.96114">
        <ele>42</ele>
        <time>2022-07-13T20:24:01Z</time>
      </trkpt>
      <trkpt lat="43.11626" lon="5.96108">
        <ele>42</ele>
        <time>2022-07-13T20:24:02Z</time>
      </trkpt>
      <trkpt lat="43.11633" lon="5.96104">
        <ele>41</ele>
        <time>2022-07-13T20:24:04Z</time>
      </trkpt>
      <trkpt lat="43.11702" lon="5.96124">
        <ele>37</ele>
        <time>2022-07-13T20:24:16Z</time>
      </trkpt>
      <trkpt lat="43.11795" lon="5.96139">
        <ele>34</ele>
        <time>2022-07-13T20:24:33Z</time>
      </trkpt>
      <trkpt lat="43.11892" lon="5.96153">
        <ele>37</ele>
        <time>2022-07-13T20:24:50Z</time>
      </trkpt>
      <trkpt lat="43.11935" lon="5.96148">
        <ele>39</ele>
        <time>2022-07-13T20:24:58Z</time>
      </trkpt>
      <trkpt lat="43.11961" lon="5.96153">
        <ele>39</ele>
        <time>2022-07-13T20:25:03Z</time>
      </trkpt>
      <trkpt lat="43.11988" lon="5.96139">
        <ele>40</ele>
        <time>2022-07-13T20:25:08Z</time>
      </trkpt>
      <trkpt lat="43.12002" lon="5.96137">
        <ele>40</ele>
        <time>2022-07-13T20:25:10Z</time>
      </trkpt>
      <trkpt lat="43.12008" lon="5.96112">
        <ele>40</ele>
        <time>2022-07-13T20:25:14Z</time>
      </trkpt>
      <trkpt lat="43.12008" lon="5.961">
        <ele>40</ele>
        <time>2022-07-13T20:25:15Z</time>
      </trkpt>
      <trkpt lat="43.12003" lon="5.96063">
        <ele>40</ele>
        <time>2022-07-13T20:25:20Z</time>
      </trkpt>
      <trkpt lat="43.12003" lon="5.96045">
        <ele>40</ele>
        <time>2022-07-13T20:25:23Z</time>
      </trkpt>
      <trkpt lat="43.12008" lon="5.9602">
        <ele>38</ele>
        <time>2022-07-13T20:25:26Z</time>
      </trkpt>
      <trkpt lat="43.12016" lon="5.96005">
        <ele>37</ele>
        <time>2022-07-13T20:25:28Z</time>
      </trkpt>
      <trkpt lat="43.12021" lon="5.95999">
        <ele>36</ele>
        <time>2022-07-13T20:25:30Z</time>
      </trkpt>
      <trkpt lat="43.12101" lon="5.95955">
        <ele>28</ele>
        <time>2022-07-13T20:25:45Z</time>
      </trkpt>
      <trkpt lat="43.12114" lon="5.9594">
        <ele>28</ele>
        <time>2022-07-13T20:25:48Z</time>
      </trkpt>
      <trkpt lat="43.12135" lon="5.95882">
        <ele>25</ele>
        <time>2022-07-13T20:25:56Z</time>
      </trkpt>
      <trkpt lat="43.12138" lon="5.95867">
        <ele>24</ele>
        <time>2022-07-13T20:25:58Z</time>
      </trkpt>
      <trkpt lat="43.12137" lon="5.95773">
        <ele>21</ele>
        <time>2022-07-13T20:26:11Z</time>
      </trkpt>
      <trkpt lat="43.12135" lon="5.9575">
        <ele>20</ele>
        <time>2022-07-13T20:26:14Z</time>
      </trkpt>
      <trkpt lat="43.1212" lon="5.95687">
        <ele>19</ele>
        <time>2022-07-13T20:26:22Z</time>
      </trkpt>
      <trkpt lat="43.12119" lon="5.95674">
        <ele>18</ele>
        <time>2022-07-13T20:26:24Z</time>
      </trkpt>
      <trkpt lat="43.12118" lon="5.95628">
        <ele>16</ele>
        <time>2022-07-13T20:26:30Z</time>
      </trkpt>
      <trkpt lat="43.12108" lon="5.95583">
        <ele>14</ele>
        <time>2022-07-13T20:26:36Z</time>
      </trkpt>
      <trkpt lat="43.12173" lon="5.95562">
        <ele>11</ele>
        <time>2022-07-13T20:26:48Z</time>
      </trkpt>
      <trkpt lat="43.12188" lon="5.95557">
        <ele>11</ele>
        <time>2022-07-13T20:26:51Z</time>
      </trkpt>
      <trkpt lat="43.12192" lon="5.95556">
        <ele>11</ele>
        <time>2022-07-13T20:26:51Z</time>
      </trkpt>
      <trkpt lat="43.1222" lon="5.95553">
        <ele>11</ele>
        <time>2022-07-13T20:26:56Z</time>
      </trkpt>
      <trkpt lat="43.12224" lon="5.95555">
        <ele>11</ele>
        <time>2022-07-13T20:26:57Z</time>
      </trkpt>
      <trkpt lat="43.12282" lon="5.95531">
        <ele>15</ele>
        <time>2022-07-13T20:27:08Z</time>
      </trkpt>
      <trkpt lat="43.12396" lon="5.9548">
        <ele>20</ele>
        <time>2022-07-13T20:27:29Z</time>
      </trkpt>
      <trkpt lat="43.12413" lon="5.95469">
        <ele>19</ele>
        <time>2022-07-13T20:27:32Z</time>
      </trkpt>
      <trkpt lat="43.12417" lon="5.95466">
        <ele>19</ele>
        <time>2022-07-13T20:27:33Z</time>
      </trkpt>
      <trkpt lat="43.12676" lon="5.96103">
        <ele>28</ele>
        <time>2022-07-13T20:29:08Z</time>
      </trkpt>
      <trkpt lat="43.12708" lon="5.96185">
        <ele>29</ele>
        <time>2022-07-13T20:29:20Z</time>
      </trkpt>
      <trkpt lat="43.12759" lon="5.96309">
        <ele>34</ele>
        <time>2022-07-13T20:29:39Z</time>
      </trkpt>
      <trkpt lat="43.12797" lon="5.96416">
        <ele>35</ele>
        <time>2022-07-13T20:29:54Z</time>
      </trkpt>
      <trkpt lat="43.12914" lon="5.96779">
        <ele>40</ele>
        <time>2022-07-13T20:30:46Z</time>
      </trkpt>
      <trkpt lat="43.12977" lon="5.96968">
        <ele>46</ele>
        <time>2022-07-13T20:31:12Z</time>
      </trkpt>
      <trkpt lat="43.13111" lon="5.973">
        <ele>46</ele>
        <time>2022-07-13T20:32:02Z</time>
      </trkpt>
      <trkpt lat="43.13139" lon="5.97373">
        <ele>45</ele>
        <time>2022-07-13T20:32:12Z</time>
      </trkpt>
      <trkpt lat="43.13156" lon="5.9741">
        <ele>45</ele>
        <time>2022-07-13T20:32:18Z</time>
      </trkpt>
      <trkpt lat="43.13194" lon="5.97505">
        <ele>49</ele>
        <time>2022-07-13T20:32:32Z</time>
      </trkpt>
      <trkpt lat="43.13206" lon="5.97557">
        <ele>49</ele>
        <time>2022-07-13T20:32:39Z</time>
      </trkpt>
      <trkpt lat="43.13215" lon="5.97575">
        <ele>49</ele>
        <time>2022-07-13T20:32:42Z</time>
      </trkpt>
      <trkpt lat="43.13236" lon="5.97601">
        <ele>50</ele>
        <time>2022-07-13T20:32:47Z</time>
      </trkpt>
      <trkpt lat="43.13249" lon="5.97618">
        <ele>51</ele>
        <time>2022-07-13T20:32:50Z</time>
      </trkpt>
      <trkpt lat="43.13264" lon="5.97635">
        <ele>51</ele>
        <time>2022-07-13T20:32:54Z</time>
      </trkpt>
      <trkpt lat="43.13275" lon="5.97644">
        <ele>52</ele>
        <time>2022-07-13T20:32:56Z</time>
      </trkpt>
      <trkpt lat="43.13398" lon="5.97705">
        <ele>57</ele>
        <time>2022-07-13T20:33:19Z</time>
      </trkpt>
      <trkpt lat="43.13501" lon="5.97753">
        <ele>61</ele>
        <time>2022-07-13T20:33:39Z</time>
      </trkpt>
      <trkpt lat="43.13529" lon="5.97764">
        <ele>63</ele>
        <time>2022-07-13T20:33:44Z</time>
      </trkpt>
      <trkpt lat="43.13532" lon="5.97777">
        <ele>62</ele>
        <time>2022-07-13T20:33:46Z</time>
      </trkpt>
      <trkpt lat="43.13539" lon="5.97784">
        <ele>63</ele>
        <time>2022-07-13T20:33:47Z</time>
      </trkpt>
      <trkpt lat="43.13543" lon="5.97786">
        <ele>63</ele>
        <time>2022-07-13T20:33:48Z</time>
      </trkpt>
      <trkpt lat="43.13559" lon="5.9781">
        <ele>63</ele>
        <time>2022-07-13T20:33:52Z</time>
      </trkpt>
      <trkpt lat="43.13684" lon="5.98033">
        <ele>62</ele>
        <time>2022-07-13T20:34:29Z</time>
      </trkpt>
      <trkpt lat="43.13694" lon="5.98051">
        <ele>61</ele>
        <time>2022-07-13T20:34:32Z</time>
      </trkpt>
      <trkpt lat="43.13695" lon="5.98057">
        <ele>61</ele>
        <time>2022-07-13T20:34:32Z</time>
      </trkpt>
      <trkpt lat="43.13692" lon="5.98072">
        <ele>61</ele>
        <time>2022-07-13T20:34:34Z</time>
      </trkpt>
      <trkpt lat="43.13683" lon="5.98091">
        <ele>61</ele>
        <time>2022-07-13T20:34:37Z</time>
      </trkpt>
      <trkpt lat="43.13657" lon="5.9814">
        <ele>61</ele>
        <time>2022-07-13T20:34:45Z</time>
      </trkpt>
      <trkpt lat="43.13618" lon="5.98183">
        <ele>61</ele>
        <time>2022-07-13T20:34:54Z</time>
      </trkpt>
      <trkpt lat="43.13612" lon="5.98193">
        <ele>61</ele>
        <time>2022-07-13T20:34:56Z</time>
      </trkpt>
      <trkpt lat="43.13608" lon="5.98219">
        <ele>61</ele>
        <time>2022-07-13T20:34:59Z</time>
      </trkpt>
      <trkpt lat="43.13605" lon="5.98315">
        <ele>60</ele>
        <time>2022-07-13T20:35:12Z</time>
      </trkpt>
      <trkpt lat="43.13601" lon="5.98317">
        <ele>60</ele>
        <time>2022-07-13T20:35:13Z</time>
      </trkpt>
      <trkpt lat="43.13601" lon="5.98329">
        <ele>60</ele>
        <time>2022-07-13T20:35:14Z</time>
      </trkpt>
      <trkpt lat="43.13603" lon="5.98343">
        <ele>60</ele>
        <time>2022-07-13T20:35:16Z</time>
      </trkpt>
      <trkpt lat="43.13606" lon="5.98346">
        <ele>60</ele>
        <time>2022-07-13T20:35:17Z</time>
      </trkpt>
      <trkpt lat="43.13605" lon="5.98377">
        <ele>60</ele>
        <time>2022-07-13T20:35:21Z</time>
      </trkpt>
      <trkpt lat="43.13611" lon="5.98563">
        <ele>61</ele>
        <time>2022-07-13T20:35:45Z</time>
      </trkpt>
      <trkpt lat="43.13608" lon="5.98566">
        <ele>61</ele>
        <time>2022-07-13T20:35:45Z</time>
      </trkpt>
      <trkpt lat="43.13607" lon="5.98571">
        <ele>61</ele>
        <time>2022-07-13T20:35:46Z</time>
      </trkpt>
      <trkpt lat="43.13609" lon="5.98576">
        <ele>61</ele>
        <time>2022-07-13T20:35:47Z</time>
      </trkpt>
      <trkpt lat="43.13613" lon="5.98578">
        <ele>61</ele>
        <time>2022-07-13T20:35:48Z</time>
      </trkpt>
      <trkpt lat="43.13614" lon="5.986">
        <ele>62</ele>
        <time>2022-07-13T20:35:51Z</time>
      </trkpt>
      <trkpt lat="43.13627" lon="5.98694">
        <ele>63</ele>
        <time>2022-07-13T20:36:03Z</time>
      </trkpt>
      <trkpt lat="43.13629" lon="5.98738">
        <ele>63</ele>
        <time>2022-07-13T20:36:09Z</time>
      </trkpt>
      <trkpt lat="43.13627" lon="5.98748">
        <ele>63</ele>
        <time>2022-07-13T20:36:10Z</time>
      </trkpt>
      <trkpt lat="43.13632" lon="5.98755">
        <ele>63</ele>
        <time>2022-07-13T20:36:11Z</time>
      </trkpt>
      <trkpt lat="43.13634" lon="5.98776">
        <ele>63</ele>
        <time>2022-07-13T20:36:14Z</time>
      </trkpt>
      <trkpt lat="43.13636" lon="5.98803">
        <ele>63</ele>
        <time>2022-07-13T20:36:18Z</time>
      </trkpt>
      <trkpt lat="43.13641" lon="5.98845">
        <ele>63</ele>
        <time>2022-07-13T20:36:23Z</time>
      </trkpt>
      <trkpt lat="43.13648" lon="5.98879">
        <ele>63</ele>
        <time>2022-07-13T20:36:28Z</time>
      </trkpt>
      <trkpt lat="43.13653" lon="5.98883">
        <ele>63</ele>
        <time>2022-07-13T20:36:29Z</time>
      </trkpt>
      <trkpt lat="43.1365" lon="5.98885">
        <ele>63</ele>
        <time>2022-07-13T20:36:29Z</time>
      </trkpt>
      <trkpt lat="43.1365" lon="5.98887">
        <ele>63</ele>
        <time>2022-07-13T20:36:30Z</time>
      </trkpt>
      <trkpt lat="43.13665" lon="5.98944">
        <ele>63</ele>
        <time>2022-07-13T20:36:37Z</time>
      </trkpt>
      <trkpt lat="43.13678" lon="5.99038">
        <ele>63</ele>
        <time>2022-07-13T20:36:50Z</time>
      </trkpt>
      <trkpt lat="43.13702" lon="5.99149">
        <ele>61</ele>
        <time>2022-07-13T20:37:05Z</time>
      </trkpt>
      <trkpt lat="43.13706" lon="5.99159">
        <ele>61</ele>
        <time>2022-07-13T20:37:06Z</time>
      </trkpt>
      <trkpt lat="43.13719" lon="5.99176">
        <ele>61</ele>
        <time>2022-07-13T20:37:10Z</time>
      </trkpt>
      <trkpt lat="43.13773" lon="5.99219">
        <ele>63</ele>
        <time>2022-07-13T20:37:21Z</time>
      </trkpt>
      <trkpt lat="43.13785" lon="5.99231">
        <ele>63</ele>
        <time>2022-07-13T20:37:23Z</time>
      </trkpt>
      <trkpt lat="43.13799" lon="5.99249">
        <ele>63</ele>
        <time>2022-07-13T20:37:27Z</time>
      </trkpt>
      <trkpt lat="43.13801" lon="5.99259">
        <ele>63</ele>
        <time>2022-07-13T20:37:28Z</time>
      </trkpt>
      <trkpt lat="43.13806" lon="5.99264">
        <ele>63</ele>
        <time>2022-07-13T20:37:29Z</time>
      </trkpt>
      <trkpt lat="43.13814" lon="5.99265">
        <ele>63</ele>
        <time>2022-07-13T20:37:31Z</time>
      </trkpt>
      <trkpt lat="43.13824" lon="5.99284">
        <ele>64</ele>
        <time>2022-07-13T20:37:34Z</time>
      </trkpt>
      <trkpt lat="43.13919" lon="5.99561">
        <ele>63</ele>
        <time>2022-07-13T20:38:13Z</time>
      </trkpt>
      <trkpt lat="43.13927" lon="5.99578">
        <ele>63</ele>
        <time>2022-07-13T20:38:16Z</time>
      </trkpt>
      <trkpt lat="43.13933" lon="5.99597">
        <ele>63</ele>
        <time>2022-07-13T20:38:19Z</time>
      </trkpt>
      <trkpt lat="43.13933" lon="5.99603">
        <ele>62</ele>
        <time>2022-07-13T20:38:19Z</time>
      </trkpt>
      <trkpt lat="43.13936" lon="5.99607">
        <ele>62</ele>
        <time>2022-07-13T20:38:20Z</time>
      </trkpt>
      <trkpt lat="43.13938" lon="5.99618">
        <ele>62</ele>
        <time>2022-07-13T20:38:22Z</time>
      </trkpt>
      <trkpt lat="43.14002" lon="5.99793">
        <ele>61</ele>
        <time>2022-07-13T20:38:47Z</time>
      </trkpt>
      <trkpt lat="43.14055" lon="5.99959">
        <ele>61</ele>
        <time>2022-07-13T20:39:11Z</time>
      </trkpt>
      <trkpt lat="43.14073" lon="6.00026">
        <ele>61</ele>
        <time>2022-07-13T20:39:20Z</time>
      </trkpt>
      <trkpt lat="43.14078" lon="6.00037">
        <ele>61</ele>
        <time>2022-07-13T20:39:22Z</time>
      </trkpt>
      <trkpt lat="43.14076" lon="6.00024">
        <ele>61</ele>
        <time>2022-07-13T20:39:23Z</time>
      </trkpt>
      <trkpt lat="43.14066" lon="5.99982">
        <ele>61</ele>
        <time>2022-07-13T20:39:29Z</time>
      </trkpt>
      <trkpt lat="43.14051" lon="5.9993">
        <ele>62</ele>
        <time>2022-07-13T20:39:36Z</time>
      </trkpt>
      <trkpt lat="43.14018" lon="5.99843">
        <ele>61</ele>
        <time>2022-07-13T20:39:49Z</time>
      </trkpt>
      <trkpt lat="43.14055" lon="5.99959">
        <ele>61</ele>
        <time>2022-07-13T20:40:05Z</time>
      </trkpt>
      <trkpt lat="43.14073" lon="6.00026">
        <ele>61</ele>
        <time>2022-07-13T20:40:15Z</time>
      </trkpt>
      <trkpt lat="43.14078" lon="6.00037">
        <ele>61</ele>
        <time>2022-07-13T20:40:16Z</time>
      </trkpt>
      <trkpt lat="43.14087" lon="6.00051">
        <ele>61</ele>
        <time>2022-07-13T20:40:19Z</time>
      </trkpt>
      <trkpt lat="43.141" lon="6.00061">
        <ele>62</ele>
        <time>2022-07-13T20:40:22Z</time>
      </trkpt>
      <trkpt lat="43.14109" lon="6.00064">
        <ele>62</ele>
        <time>2022-07-13T20:40:23Z</time>
      </trkpt>
      <trkpt lat="43.14129" lon="6.00065">
        <ele>63</ele>
        <time>2022-07-13T20:40:27Z</time>
      </trkpt>
      <trkpt lat="43.1414" lon="6.00068">
        <ele>63</ele>
        <time>2022-07-13T20:40:29Z</time>
      </trkpt>
      <trkpt lat="43.14151" lon="6.0008">
        <ele>64</ele>
        <time>2022-07-13T20:40:31Z</time>
      </trkpt>
      <trkpt lat="43.1415" lon="6.0009">
        <ele>64</ele>
        <time>2022-07-13T20:40:33Z</time>
      </trkpt>
      <trkpt lat="43.14151" lon="6.00099">
        <ele>64</ele>
        <time>2022-07-13T20:40:34Z</time>
      </trkpt>
      <trkpt lat="43.14155" lon="6.00107">
        <ele>65</ele>
        <time>2022-07-13T20:40:35Z</time>
      </trkpt>
      <trkpt lat="43.14164" lon="6.00117">
        <ele>65</ele>
        <time>2022-07-13T20:40:37Z</time>
      </trkpt>
      <trkpt lat="43.14173" lon="6.0012">
        <ele>66</ele>
        <time>2022-07-13T20:40:39Z</time>
      </trkpt>
      <trkpt lat="43.14179" lon="6.00129">
        <ele>66</ele>
        <time>2022-07-13T20:40:40Z</time>
      </trkpt>
      <trkpt lat="43.14181" lon="6.00141">
        <ele>66</ele>
        <time>2022-07-13T20:40:42Z</time>
      </trkpt>
      <trkpt lat="43.14181" lon="6.00152">
        <ele>66</ele>
        <time>2022-07-13T20:40:43Z</time>
      </trkpt>
      <trkpt lat="43.14176" lon="6.00187">
        <ele>67</ele>
        <time>2022-07-13T20:40:48Z</time>
      </trkpt>
      <trkpt lat="43.14171" lon="6.00203">
        <ele>67</ele>
        <time>2022-07-13T20:40:50Z</time>
      </trkpt>
      <trkpt lat="43.14165" lon="6.00215">
        <ele>66</ele>
        <time>2022-07-13T20:40:52Z</time>
      </trkpt>
      <trkpt lat="43.14146" lon="6.00241">
        <ele>65</ele>
        <time>2022-07-13T20:40:57Z</time>
      </trkpt>
      <trkpt lat="43.1414" lon="6.00255">
        <ele>65</ele>
        <time>2022-07-13T20:40:59Z</time>
      </trkpt>
      <trkpt lat="43.14136" lon="6.00278">
        <ele>64</ele>
        <time>2022-07-13T20:41:02Z</time>
      </trkpt>
      <trkpt lat="43.14138" lon="6.00298">
        <ele>64</ele>
        <time>2022-07-13T20:41:05Z</time>
      </trkpt>
      <trkpt lat="43.14145" lon="6.00318">
        <ele>65</ele>
        <time>2022-07-13T20:41:08Z</time>
      </trkpt>
      <trkpt lat="43.14269" lon="6.00776">
        <ele>71</ele>
        <time>2022-07-13T20:42:11Z</time>
      </trkpt>
      <trkpt lat="43.1432" lon="6.00978">
        <ele>69</ele>
        <time>2022-07-13T20:42:39Z</time>
      </trkpt>
      <trkpt lat="43.14338" lon="6.01064">
        <ele>66</ele>
        <time>2022-07-13T20:42:50Z</time>
      </trkpt>
      <trkpt lat="43.14351" lon="6.01143">
        <ele>65</ele>
        <time>2022-07-13T20:43:01Z</time>
      </trkpt>
      <trkpt lat="43.14357" lon="6.01234">
        <ele>61</ele>
        <time>2022-07-13T20:43:13Z</time>
      </trkpt>
      <trkpt lat="43.14363" lon="6.01392">
        <ele>57</ele>
        <time>2022-07-13T20:43:33Z</time>
      </trkpt>
      <trkpt lat="43.14365" lon="6.01492">
        <ele>55</ele>
        <time>2022-07-13T20:43:46Z</time>
      </trkpt>
      <trkpt lat="43.1438" lon="6.01837">
        <ele>54</ele>
        <time>2022-07-13T20:44:31Z</time>
      </trkpt>
      <trkpt lat="43.14387" lon="6.01972">
        <ele>56</ele>
        <time>2022-07-13T20:44:49Z</time>
      </trkpt>
      <trkpt lat="43.14394" lon="6.02115">
        <ele>59</ele>
        <time>2022-07-13T20:45:07Z</time>
      </trkpt>
      <trkpt lat="43.14401" lon="6.02184">
        <ele>57</ele>
        <time>2022-07-13T20:45:16Z</time>
      </trkpt>
      <trkpt lat="43.14413" lon="6.02239">
        <ele>56</ele>
        <time>2022-07-13T20:45:24Z</time>
      </trkpt>
      <trkpt lat="43.14441" lon="6.02321">
        <ele>56</ele>
        <time>2022-07-13T20:45:35Z</time>
      </trkpt>
      <trkpt lat="43.14597" lon="6.02739">
        <ele>48</ele>
        <time>2022-07-13T20:46:36Z</time>
      </trkpt>
      <trkpt lat="43.14627" lon="6.02813">
        <ele>47</ele>
        <time>2022-07-13T20:46:47Z</time>
      </trkpt>
      <trkpt lat="43.1464" lon="6.0284">
        <ele>47</ele>
        <time>2022-07-13T20:46:52Z</time>
      </trkpt>
      <trkpt lat="43.14654" lon="6.02864">
        <ele>48</ele>
        <time>2022-07-13T20:46:56Z</time>
      </trkpt>
      <trkpt lat="43.14686" lon="6.02908">
        <ele>48</ele>
        <time>2022-07-13T20:47:04Z</time>
      </trkpt>
      <trkpt lat="43.14831" lon="6.03087">
        <ele>51</ele>
        <time>2022-07-13T20:47:38Z</time>
      </trkpt>
      <trkpt lat="43.1496" lon="6.03238">
        <ele>54</ele>
        <time>2022-07-13T20:48:09Z</time>
      </trkpt>
      <trkpt lat="43.15464" lon="6.03848">
        <ele>69</ele>
        <time>2022-07-13T20:50:08Z</time>
      </trkpt>
      <trkpt lat="43.1551" lon="6.0389">
        <ele>69</ele>
        <time>2022-07-13T20:50:18Z</time>
      </trkpt>
      <trkpt lat="43.15537" lon="6.03912">
        <ele>69</ele>
        <time>2022-07-13T20:50:24Z</time>
      </trkpt>
      <trkpt lat="43.15573" lon="6.03936">
        <ele>70</ele>
        <time>2022-07-13T20:50:31Z</time>
      </trkpt>
      <trkpt lat="43.15933" lon="6.04125">
        <ele>71</ele>
        <time>2022-07-13T20:51:39Z</time>
      </trkpt>
      <trkpt lat="43.15929" lon="6.04133">
        <ele>71</ele>
        <time>2022-07-13T20:51:41Z</time>
      </trkpt>
      <trkpt lat="43.15933" lon="6.04125">
        <ele>71</ele>
        <time>2022-07-13T20:51:42Z</time>
      </trkpt>
      <trkpt lat="43.15953" lon="6.04141">
        <ele>72</ele>
        <time>2022-07-13T20:51:46Z</time>
      </trkpt>
      <trkpt lat="43.15967" lon="6.04156">
        <ele>72</ele>
        <time>2022-07-13T20:51:49Z</time>
      </trkpt>
      <trkpt lat="43.15971" lon="6.0417">
        <ele>72</ele>
        <time>2022-07-13T20:51:51Z</time>
      </trkpt>
      <trkpt lat="43.15978" lon="6.04178">
        <ele>72</ele>
        <time>2022-07-13T20:51:53Z</time>
      </trkpt>
      <trkpt lat="43.15986" lon="6.04181">
        <ele>72</ele>
        <time>2022-07-13T20:51:54Z</time>
      </trkpt>
      <trkpt lat="43.15995" lon="6.04178">
        <ele>73</ele>
        <time>2022-07-13T20:51:56Z</time>
      </trkpt>
      <trkpt lat="43.15999" lon="6.04175">
        <ele>73</ele>
        <time>2022-07-13T20:51:57Z</time>
      </trkpt>
      <trkpt lat="43.1603" lon="6.04176">
        <ele>74</ele>
        <time>2022-07-13T20:52:02Z</time>
      </trkpt>
      <trkpt lat="43.16123" lon="6.04224">
        <ele>75</ele>
        <time>2022-07-13T20:52:20Z</time>
      </trkpt>
      <trkpt lat="43.16167" lon="6.04242">
        <ele>76</ele>
        <time>2022-07-13T20:52:28Z</time>
      </trkpt>
      <trkpt lat="43.16187" lon="6.04247">
        <ele>76</ele>
        <time>2022-07-13T20:52:32Z</time>
      </trkpt>
      <trkpt lat="43.16214" lon="6.0425">
        <ele>77</ele>
        <time>2022-07-13T20:52:36Z</time>
      </trkpt>
      <trkpt lat="43.16265" lon="6.04253">
        <ele>77</ele>
        <time>2022-07-13T20:52:46Z</time>
      </trkpt>
      <trkpt lat="43.16298" lon="6.04265">
        <ele>77</ele>
        <time>2022-07-13T20:52:52Z</time>
      </trkpt>
      <trkpt lat="43.16302" lon="6.0427">
        <ele>77</ele>
        <time>2022-07-13T20:52:53Z</time>
      </trkpt>
      <trkpt lat="43.16314" lon="6.04289">
        <ele>77</ele>
        <time>2022-07-13T20:52:56Z</time>
      </trkpt>
      <trkpt lat="43.16318" lon="6.04297">
        <ele>77</ele>
        <time>2022-07-13T20:52:57Z</time>
      </trkpt>
      <trkpt lat="43.16326" lon="6.04301">
        <ele>77</ele>
        <time>2022-07-13T20:52:59Z</time>
      </trkpt>
      <trkpt lat="43.16331" lon="6.04299">
        <ele>77</ele>
        <time>2022-07-13T20:53:00Z</time>
      </trkpt>
      <trkpt lat="43.16335" lon="6.04293">
        <ele>77</ele>
        <time>2022-07-13T20:53:01Z</time>
      </trkpt>
      <trkpt lat="43.16337" lon="6.04285">
        <ele>78</ele>
        <time>2022-07-13T20:53:02Z</time>
      </trkpt>
      <trkpt lat="43.16344" lon="6.04273">
        <ele>78</ele>
        <time>2022-07-13T20:53:04Z</time>
      </trkpt>
      <trkpt lat="43.16348" lon="6.04269">
        <ele>78</ele>
        <time>2022-07-13T20:53:05Z</time>
      </trkpt>
      <trkpt lat="43.16365" lon="6.0426">
        <ele>78</ele>
        <time>2022-07-13T20:53:08Z</time>
      </trkpt>
      <trkpt lat="43.16375" lon="6.04259">
        <ele>78</ele>
        <time>2022-07-13T20:53:10Z</time>
      </trkpt>
      <trkpt lat="43.16702" lon="6.04282">
        <ele>81</ele>
        <time>2022-07-13T20:54:08Z</time>
      </trkpt>
      <trkpt lat="43.1675" lon="6.04301">
        <ele>82</ele>
        <time>2022-07-13T20:54:17Z</time>
      </trkpt>
      <trkpt lat="43.16772" lon="6.04305">
        <ele>82</ele>
        <time>2022-07-13T20:54:21Z</time>
      </trkpt>
      <trkpt lat="43.16793" lon="6.04312">
        <ele>81</ele>
        <time>2022-07-13T20:54:25Z</time>
      </trkpt>
      <trkpt lat="43.16815" lon="6.04327">
        <ele>81</ele>
        <time>2022-07-13T20:54:29Z</time>
      </trkpt>
      <trkpt lat="43.16837" lon="6.04345">
        <ele>80</ele>
        <time>2022-07-13T20:54:33Z</time>
      </trkpt>
      <trkpt lat="43.17006" lon="6.04494">
        <ele>74</ele>
        <time>2022-07-13T20:55:09Z</time>
      </trkpt>
      <trkpt lat="43.17272" lon="6.04685">
        <ele>77</ele>
        <time>2022-07-13T20:56:03Z</time>
      </trkpt>
      <trkpt lat="43.17316" lon="6.04723">
        <ele>76</ele>
        <time>2022-07-13T20:56:12Z</time>
      </trkpt>
      <trkpt lat="43.1733" lon="6.04738">
        <ele>76</ele>
        <time>2022-07-13T20:56:15Z</time>
      </trkpt>
      <trkpt lat="43.1733" lon="6.04743">
        <ele>75</ele>
        <time>2022-07-13T20:56:16Z</time>
      </trkpt>
      <trkpt lat="43.17335" lon="6.0475">
        <ele>75</ele>
        <time>2022-07-13T20:56:17Z</time>
      </trkpt>
      <trkpt lat="43.17342" lon="6.04751">
        <ele>75</ele>
        <time>2022-07-13T20:56:18Z</time>
      </trkpt>
      <trkpt lat="43.17348" lon="6.04747">
        <ele>75</ele>
        <time>2022-07-13T20:56:19Z</time>
      </trkpt>
      <trkpt lat="43.17363" lon="6.04746">
        <ele>75</ele>
        <time>2022-07-13T20:56:22Z</time>
      </trkpt>
      <trkpt lat="43.17392" lon="6.04753">
        <ele>74</ele>
        <time>2022-07-13T20:56:27Z</time>
      </trkpt>
      <trkpt lat="43.17415" lon="6.04756">
        <ele>73</ele>
        <time>2022-07-13T20:56:31Z</time>
      </trkpt>
      <trkpt lat="43.17446" lon="6.04755">
        <ele>73</ele>
        <time>2022-07-13T20:56:37Z</time>
      </trkpt>
      <trkpt lat="43.17472" lon="6.0475">
        <ele>74</ele>
        <time>2022-07-13T20:56:42Z</time>
      </trkpt>
      <trkpt lat="43.17585" lon="6.04743">
        <ele>73</ele>
        <time>2022-07-13T20:57:02Z</time>
      </trkpt>
      <trkpt lat="43.17668" lon="6.04744">
        <ele>74</ele>
        <time>2022-07-13T20:57:17Z</time>
      </trkpt>
      <trkpt lat="43.17739" lon="6.04739">
        <ele>74</ele>
        <time>2022-07-13T20:57:29Z</time>
      </trkpt>
      <trkpt lat="43.17764" lon="6.04734">
        <ele>74</ele>
        <time>2022-07-13T20:57:34Z</time>
      </trkpt>
      <trkpt lat="43.17794" lon="6.04722">
        <ele>74</ele>
        <time>2022-07-13T20:57:39Z</time>
      </trkpt>
      <trkpt lat="43.17811" lon="6.04715">
        <ele>75</ele>
        <time>2022-07-13T20:57:42Z</time>
      </trkpt>
      <trkpt lat="43.17845" lon="6.04696">
        <ele>76</ele>
        <time>2022-07-13T20:57:49Z</time>
      </trkpt>
      <trkpt lat="43.18228" lon="6.04427">
        <ele>81</ele>
        <time>2022-07-13T20:59:06Z</time>
      </trkpt>
      <trkpt lat="43.18246" lon="6.04416">
        <ele>80</ele>
        <time>2022-07-13T20:59:09Z</time>
      </trkpt>
      <trkpt lat="43.1826" lon="6.04408">
        <ele>81</ele>
        <time>2022-07-13T20:59:12Z</time>
      </trkpt>
      <trkpt lat="43.1828" lon="6.04393">
        <ele>82</ele>
        <time>2022-07-13T20:59:16Z</time>
      </trkpt>
      <trkpt lat="43.18325" lon="6.04357">
        <ele>83</ele>
        <time>2022-07-13T20:59:25Z</time>
      </trkpt>
      <trkpt lat="43.18338" lon="6.04343">
        <ele>82</ele>
        <time>2022-07-13T20:59:28Z</time>
      </trkpt>
      <trkpt lat="43.18356" lon="6.04325">
        <ele>84</ele>
        <time>2022-07-13T20:59:32Z</time>
      </trkpt>
      <trkpt lat="43.18373" lon="6.04306">
        <ele>86</ele>
        <time>2022-07-13T20:59:36Z</time>
      </trkpt>
      <trkpt lat="43.18379" lon="6.043">
        <ele>86</ele>
        <time>2022-07-13T20:59:37Z</time>
      </trkpt>
      <trkpt lat="43.18429" lon="6.04245">
        <ele>88</ele>
        <time>2022-07-13T20:59:49Z</time>
      </trkpt>
      <trkpt lat="43.18448" lon="6.0422">
        <ele>91</ele>
        <time>2022-07-13T20:59:53Z</time>
      </trkpt>
      <trkpt lat="43.18701" lon="6.03903">
        <ele>91</ele>
        <time>2022-07-13T21:00:54Z</time>
      </trkpt>
      <trkpt lat="43.18743" lon="6.03848">
        <ele>91</ele>
        <time>2022-07-13T21:01:05Z</time>
      </trkpt>
      <trkpt lat="43.1875" lon="6.03836">
        <ele>91</ele>
        <time>2022-07-13T21:01:07Z</time>
      </trkpt>
      <trkpt lat="43.18756" lon="6.0382">
        <ele>92</ele>
        <time>2022-07-13T21:01:09Z</time>
      </trkpt>
      <trkpt lat="43.18758" lon="6.03813">
        <ele>92</ele>
        <time>2022-07-13T21:01:10Z</time>
      </trkpt>
      <trkpt lat="43.18769" lon="6.03796">
        <ele>92</ele>
        <time>2022-07-13T21:01:13Z</time>
      </trkpt>
      <trkpt lat="43.18847" lon="6.03727">
        <ele>90</ele>
        <time>2022-07-13T21:01:29Z</time>
      </trkpt>
      <trkpt lat="43.18878" lon="6.03705">
        <ele>90</ele>
        <time>2022-07-13T21:01:36Z</time>
      </trkpt>
      <trkpt lat="43.18927" lon="6.03683">
        <ele>88</ele>
        <time>2022-07-13T21:01:45Z</time>
      </trkpt>
      <trkpt lat="43.18956" lon="6.03674">
        <ele>86</ele>
        <time>2022-07-13T21:01:50Z</time>
      </trkpt>
      <trkpt lat="43.18984" lon="6.0367">
        <ele>85</ele>
        <time>2022-07-13T21:01:55Z</time>
      </trkpt>
      <trkpt lat="43.19025" lon="6.03668">
        <ele>84</ele>
        <time>2022-07-13T21:02:02Z</time>
      </trkpt>
      <trkpt lat="43.19042" lon="6.03669">
        <ele>84</ele>
        <time>2022-07-13T21:02:05Z</time>
      </trkpt>
      <trkpt lat="43.19102" lon="6.03683">
        <ele>84</ele>
        <time>2022-07-13T21:02:16Z</time>
      </trkpt>
      <trkpt lat="43.19136" lon="6.03699">
        <ele>83</ele>
        <time>2022-07-13T21:02:23Z</time>
      </trkpt>
      <trkpt lat="43.19169" lon="6.0372">
        <ele>82</ele>
        <time>2022-07-13T21:02:29Z</time>
      </trkpt>
      <trkpt lat="43.19216" lon="6.03754">
        <ele>81</ele>
        <time>2022-07-13T21:02:38Z</time>
      </trkpt>
      <trkpt lat="43.19232" lon="6.03763">
        <ele>81</ele>
        <time>2022-07-13T21:02:42Z</time>
      </trkpt>
      <trkpt lat="43.1925" lon="6.03769">
        <ele>81</ele>
        <time>2022-07-13T21:02:45Z</time>
      </trkpt>
      <trkpt lat="43.19252" lon="6.03774">
        <ele>80</ele>
        <time>2022-07-13T21:02:46Z</time>
      </trkpt>
      <trkpt lat="43.19257" lon="6.03778">
        <ele>80</ele>
        <time>2022-07-13T21:02:47Z</time>
      </trkpt>
      <trkpt lat="43.19263" lon="6.03777">
        <ele>80</ele>
        <time>2022-07-13T21:02:48Z</time>
      </trkpt>
      <trkpt lat="43.19268" lon="6.03768">
        <ele>81</ele>
        <time>2022-07-13T21:02:49Z</time>
      </trkpt>
      <trkpt lat="43.19283" lon="6.03761">
        <ele>81</ele>
        <time>2022-07-13T21:02:52Z</time>
      </trkpt>
      <trkpt lat="43.19291" lon="6.03767">
        <ele>81</ele>
        <time>2022-07-13T21:02:54Z</time>
      </trkpt>
      <trkpt lat="43.19294" lon="6.03772">
        <ele>81</ele>
        <time>2022-07-13T21:02:54Z</time>
      </trkpt>
      <trkpt lat="43.19301" lon="6.0379">
        <ele>80</ele>
        <time>2022-07-13T21:02:57Z</time>
      </trkpt>
      <trkpt lat="43.1932" lon="6.03818">
        <ele>80</ele>
        <time>2022-07-13T21:03:02Z</time>
      </trkpt>
      <trkpt lat="43.1933" lon="6.03826">
        <ele>80</ele>
        <time>2022-07-13T21:03:04Z</time>
      </trkpt>
      <trkpt lat="43.1934" lon="6.0383">
        <ele>80</ele>
        <time>2022-07-13T21:03:06Z</time>
      </trkpt>
      <trkpt lat="43.19349" lon="6.0383">
        <ele>80</ele>
        <time>2022-07-13T21:03:08Z</time>
      </trkpt>
      <trkpt lat="43.19358" lon="6.03826">
        <ele>80</ele>
        <time>2022-07-13T21:03:09Z</time>
      </trkpt>
      <trkpt lat="43.19426" lon="6.03753">
        <ele>81</ele>
        <time>2022-07-13T21:03:25Z</time>
      </trkpt>
      <trkpt lat="43.1945" lon="6.03729">
        <ele>82</ele>
        <time>2022-07-13T21:03:30Z</time>
      </trkpt>
      <trkpt lat="43.19472" lon="6.0367">
        <ele>84</ele>
        <time>2022-07-13T21:03:39Z</time>
      </trkpt>
      <trkpt lat="43.19482" lon="6.03656">
        <ele>84</ele>
        <time>2022-07-13T21:03:41Z</time>
      </trkpt>
      <trkpt lat="43.19507" lon="6.03606">
        <ele>85</ele>
        <time>2022-07-13T21:03:49Z</time>
      </trkpt>
      <trkpt lat="43.19515" lon="6.03599">
        <ele>85</ele>
        <time>2022-07-13T21:03:51Z</time>
      </trkpt>
      <trkpt lat="43.19548" lon="6.03615">
        <ele>85</ele>
        <time>2022-07-13T21:03:57Z</time>
      </trkpt>
      <trkpt lat="43.19568" lon="6.036">
        <ele>85</ele>
        <time>2022-07-13T21:04:01Z</time>
      </trkpt>
      <trkpt lat="43.19585" lon="6.03578">
        <ele>85</ele>
        <time>2022-07-13T21:04:05Z</time>
      </trkpt>
      <trkpt lat="43.19594" lon="6.03552">
        <ele>85</ele>
        <time>2022-07-13T21:04:09Z</time>
      </trkpt>
      <trkpt lat="43.19617" lon="6.03556">
        <ele>86</ele>
        <time>2022-07-13T21:04:13Z</time>
      </trkpt>
      <trkpt lat="43.19633" lon="6.03537">
        <ele>86</ele>
        <time>2022-07-13T21:04:17Z</time>
      </trkpt>
      <trkpt lat="43.19636" lon="6.03511">
        <ele>86</ele>
        <time>2022-07-13T21:04:20Z</time>
      </trkpt>
      <trkpt lat="43.19662" lon="6.03516">
        <ele>87</ele>
        <time>2022-07-13T21:04:25Z</time>
      </trkpt>
      <trkpt lat="43.1969" lon="6.035">
        <ele>88</ele>
        <time>2022-07-13T21:04:30Z</time>
      </trkpt>
      <trkpt lat="43.19717" lon="6.03542">
        <ele>89</ele>
        <time>2022-07-13T21:04:37Z</time>
      </trkpt>
      <trkpt lat="43.19717" lon="6.03544">
        <ele>89</ele>
        <time>2022-07-13T21:04:38Z</time>
      </trkpt>
      <trkpt lat="43.19717" lon="6.03542">
        <ele>89</ele>
        <time>2022-07-13T21:04:38Z</time>
      </trkpt>
      <trkpt lat="43.1976" lon="6.03557">
        <ele>91</ele>
        <time>2022-07-13T21:04:46Z</time>
      </trkpt>
      <trkpt lat="43.1977" lon="6.03564">
        <ele>92</ele>
        <time>2022-07-13T21:04:48Z</time>
      </trkpt>
      <trkpt lat="43.19779" lon="6.03574">
        <ele>92</ele>
        <time>2022-07-13T21:04:50Z</time>
      </trkpt>
      <trkpt lat="43.19781" lon="6.03579">
        <ele>92</ele>
        <time>2022-07-13T21:04:51Z</time>
      </trkpt>
      <trkpt lat="43.19788" lon="6.03587">
        <ele>93</ele>
        <time>2022-07-13T21:04:52Z</time>
      </trkpt>
      <trkpt lat="43.19797" lon="6.03589">
        <ele>93</ele>
        <time>2022-07-13T21:04:54Z</time>
      </trkpt>
      <trkpt lat="43.19803" lon="6.03586">
        <ele>93</ele>
        <time>2022-07-13T21:04:55Z</time>
      </trkpt>
      <trkpt lat="43.19808" lon="6.0358">
        <ele>94</ele>
        <time>2022-07-13T21:04:56Z</time>
      </trkpt>
      <trkpt lat="43.19818" lon="6.0358">
        <ele>94</ele>
        <time>2022-07-13T21:04:58Z</time>
      </trkpt>
      <trkpt lat="43.19824" lon="6.03583">
        <ele>95</ele>
        <time>2022-07-13T21:04:59Z</time>
      </trkpt>
      <trkpt lat="43.19827" lon="6.03588">
        <ele>95</ele>
        <time>2022-07-13T21:05:00Z</time>
      </trkpt>
      <trkpt lat="43.19835" lon="6.03618">
        <ele>94</ele>
        <time>2022-07-13T21:05:04Z</time>
      </trkpt>
      <trkpt lat="43.19838" lon="6.0365">
        <ele>93</ele>
        <time>2022-07-13T21:05:08Z</time>
      </trkpt>
      <trkpt lat="43.19838" lon="6.03699">
        <ele>92</ele>
        <time>2022-07-13T21:05:15Z</time>
      </trkpt>
      <trkpt lat="43.19851" lon="6.03762">
        <ele>91</ele>
        <time>2022-07-13T21:05:23Z</time>
      </trkpt>
      <trkpt lat="43.19864" lon="6.03846">
        <ele>91</ele>
        <time>2022-07-13T21:05:34Z</time>
      </trkpt>
      <trkpt lat="43.19871" lon="6.03867">
        <ele>91</ele>
        <time>2022-07-13T21:05:37Z</time>
      </trkpt>
      <trkpt lat="43.19882" lon="6.03889">
        <ele>91</ele>
        <time>2022-07-13T21:05:41Z</time>
      </trkpt>
      <trkpt lat="43.19903" lon="6.03919">
        <ele>91</ele>
        <time>2022-07-13T21:05:46Z</time>
      </trkpt>
      <trkpt lat="43.19905" lon="6.03926">
        <ele>91</ele>
        <time>2022-07-13T21:05:47Z</time>
      </trkpt>
      <trkpt lat="43.19905" lon="6.03934">
        <ele>91</ele>
        <time>2022-07-13T21:05:48Z</time>
      </trkpt>
      <trkpt lat="43.19899" lon="6.03946">
        <ele>91</ele>
        <time>2022-07-13T21:05:50Z</time>
      </trkpt>
      <trkpt lat="43.19897" lon="6.03958">
        <ele>90</ele>
        <time>2022-07-13T21:05:52Z</time>
      </trkpt>
      <trkpt lat="43.19894" lon="6.04036">
        <ele>88</ele>
        <time>2022-07-13T21:06:02Z</time>
      </trkpt>
      <trkpt lat="43.19896" lon="6.04096">
        <ele>87</ele>
        <time>2022-07-13T21:06:10Z</time>
      </trkpt>
      <trkpt lat="43.19905" lon="6.04125">
        <ele>87</ele>
        <time>2022-07-13T21:06:14Z</time>
      </trkpt>
      <trkpt lat="43.1991" lon="6.04137">
        <ele>87</ele>
        <time>2022-07-13T21:06:15Z</time>
      </trkpt>
      <trkpt lat="43.19922" lon="6.04155">
        <ele>87</ele>
        <time>2022-07-13T21:06:19Z</time>
      </trkpt>
      <trkpt lat="43.19967" lon="6.04205">
        <ele>87</ele>
        <time>2022-07-13T21:06:29Z</time>
      </trkpt>
      <trkpt lat="43.20025" lon="6.04264">
        <ele>88</ele>
        <time>2022-07-13T21:06:42Z</time>
      </trkpt>
      <trkpt lat="43.20091" lon="6.0436">
        <ele>89</ele>
        <time>2022-07-13T21:06:59Z</time>
      </trkpt>
      <trkpt lat="43.20094" lon="6.04369">
        <ele>89</ele>
        <time>2022-07-13T21:07:00Z</time>
      </trkpt>
      <trkpt lat="43.20094" lon="6.04377">
        <ele>89</ele>
        <time>2022-07-13T21:07:01Z</time>
      </trkpt>
      <trkpt lat="43.20091" lon="6.04381">
        <ele>89</ele>
        <time>2022-07-13T21:07:02Z</time>
      </trkpt>
      <trkpt lat="43.2009" lon="6.04388">
        <ele>89</ele>
        <time>2022-07-13T21:07:03Z</time>
      </trkpt>
      <trkpt lat="43.20093" lon="6.04395">
        <ele>89</ele>
        <time>2022-07-13T21:07:04Z</time>
      </trkpt>
      <trkpt lat="43.20099" lon="6.04396">
        <ele>89</ele>
        <time>2022-07-13T21:07:05Z</time>
      </trkpt>
      <trkpt lat="43.20103" lon="6.04391">
        <ele>89</ele>
        <time>2022-07-13T21:07:06Z</time>
      </trkpt>
      <trkpt lat="43.20104" lon="6.04385">
        <ele>89</ele>
        <time>2022-07-13T21:07:07Z</time>
      </trkpt>
      <trkpt lat="43.20246" lon="6.04375">
        <ele>93</ele>
        <time>2022-07-13T21:07:32Z</time>
      </trkpt>
      <trkpt lat="43.20376" lon="6.04436">
        <ele>98</ele>
        <time>2022-07-13T21:07:56Z</time>
      </trkpt>
      <trkpt lat="43.20436" lon="6.04465">
        <ele>101</ele>
        <time>2022-07-13T21:08:08Z</time>
      </trkpt>
      <trkpt lat="43.20451" lon="6.04478">
        <ele>101</ele>
        <time>2022-07-13T21:08:11Z</time>
      </trkpt>
      <trkpt lat="43.20509" lon="6.04563">
        <ele>103</ele>
        <time>2022-07-13T21:08:26Z</time>
      </trkpt>
      <trkpt lat="43.20539" lon="6.0459">
        <ele>105</ele>
        <time>2022-07-13T21:08:32Z</time>
      </trkpt>
      <trkpt lat="43.20546" lon="6.04595">
        <ele>105</ele>
        <time>2022-07-13T21:08:34Z</time>
      </trkpt>
      <trkpt lat="43.20585" lon="6.04617">
        <ele>107</ele>
        <time>2022-07-13T21:08:41Z</time>
      </trkpt>
      <trkpt lat="43.20595" lon="6.04642">
        <ele>107</ele>
        <time>2022-07-13T21:08:45Z</time>
      </trkpt>
      <trkpt lat="43.20599" lon="6.0469">
        <ele>106</ele>
        <time>2022-07-13T21:08:51Z</time>
      </trkpt>
      <trkpt lat="43.20595" lon="6.04709">
        <ele>106</ele>
        <time>2022-07-13T21:08:54Z</time>
      </trkpt>
      <trkpt lat="43.20585" lon="6.04722">
        <ele>105</ele>
        <time>2022-07-13T21:08:56Z</time>
      </trkpt>
      <trkpt lat="43.20581" lon="6.04736">
        <ele>105</ele>
        <time>2022-07-13T21:08:58Z</time>
      </trkpt>
      <trkpt lat="43.20581" lon="6.04752">
        <ele>105</ele>
        <time>2022-07-13T21:09:00Z</time>
      </trkpt>
      <trkpt lat="43.20584" lon="6.04764">
        <ele>105</ele>
        <time>2022-07-13T21:09:02Z</time>
      </trkpt>
      <trkpt lat="43.2059" lon="6.04775">
        <ele>105</ele>
        <time>2022-07-13T21:09:04Z</time>
      </trkpt>
      <trkpt lat="43.20599" lon="6.04784">
        <ele>105</ele>
        <time>2022-07-13T21:09:06Z</time>
      </trkpt>
      <trkpt lat="43.20611" lon="6.04787">
        <ele>105</ele>
        <time>2022-07-13T21:09:08Z</time>
      </trkpt>
      <trkpt lat="43.20622" lon="6.04784">
        <ele>106</ele>
        <time>2022-07-13T21:09:10Z</time>
      </trkpt>
      <trkpt lat="43.20632" lon="6.04775">
        <ele>106</ele>
        <time>2022-07-13T21:09:12Z</time>
      </trkpt>
      <trkpt lat="43.20639" lon="6.04761">
        <ele>106</ele>
        <time>2022-07-13T21:09:14Z</time>
      </trkpt>
      <trkpt lat="43.20645" lon="6.04755">
        <ele>106</ele>
        <time>2022-07-13T21:09:16Z</time>
      </trkpt>
      <trkpt lat="43.20656" lon="6.04751">
        <ele>107</ele>
        <time>2022-07-13T21:09:18Z</time>
      </trkpt>
      <trkpt lat="43.20671" lon="6.04756">
        <ele>107</ele>
        <time>2022-07-13T21:09:20Z</time>
      </trkpt>
      <trkpt lat="43.20684" lon="6.04766">
        <ele>107</ele>
        <time>2022-07-13T21:09:23Z</time>
      </trkpt>
      <trkpt lat="43.20759" lon="6.04911">
        <ele>107</ele>
        <time>2022-07-13T21:09:46Z</time>
      </trkpt>
      <trkpt lat="43.20767" lon="6.04938">
        <ele>107</ele>
        <time>2022-07-13T21:09:50Z</time>
      </trkpt>
      <trkpt lat="43.20777" lon="6.05016">
        <ele>106</ele>
        <time>2022-07-13T21:10:00Z</time>
      </trkpt>
      <trkpt lat="43.20784" lon="6.05045">
        <ele>105</ele>
        <time>2022-07-13T21:10:04Z</time>
      </trkpt>
      <trkpt lat="43.20796" lon="6.0507">
        <ele>104</ele>
        <time>2022-07-13T21:10:08Z</time>
      </trkpt>
      <trkpt lat="43.20847" lon="6.05159">
        <ele>105</ele>
        <time>2022-07-13T21:10:23Z</time>
      </trkpt>
      <trkpt lat="43.20887" lon="6.05236">
        <ele>109</ele>
        <time>2022-07-13T21:10:35Z</time>
      </trkpt>
      <trkpt lat="43.2092" lon="6.05314">
        <ele>111</ele>
        <time>2022-07-13T21:10:47Z</time>
      </trkpt>
      <trkpt lat="43.20928" lon="6.05339">
        <ele>112</ele>
        <time>2022-07-13T21:10:50Z</time>
      </trkpt>
      <trkpt lat="43.20939" lon="6.05396">
        <ele>113</ele>
        <time>2022-07-13T21:10:58Z</time>
      </trkpt>
      <trkpt lat="43.20951" lon="6.05519">
        <ele>113</ele>
        <time>2022-07-13T21:11:14Z</time>
      </trkpt>
      <trkpt lat="43.20961" lon="6.0558">
        <ele>113</ele>
        <time>2022-07-13T21:11:22Z</time>
      </trkpt>
      <trkpt lat="43.20971" lon="6.05616">
        <ele>114</ele>
        <time>2022-07-13T21:11:27Z</time>
      </trkpt>
      <trkpt lat="43.20993" lon="6.05686">
        <ele>114</ele>
        <time>2022-07-13T21:11:37Z</time>
      </trkpt>
      <trkpt lat="43.21006" lon="6.05715">
        <ele>114</ele>
        <time>2022-07-13T21:11:41Z</time>
      </trkpt>
      <trkpt lat="43.2102" lon="6.0574">
        <ele>114</ele>
        <time>2022-07-13T21:11:45Z</time>
      </trkpt>
      <trkpt lat="43.21038" lon="6.05767">
        <ele>115</ele>
        <time>2022-07-13T21:11:50Z</time>
      </trkpt>
      <trkpt lat="43.21295" lon="6.06104">
        <ele>110</ele>
        <time>2022-07-13T21:12:53Z</time>
      </trkpt>
      <trkpt lat="43.21321" lon="6.06137">
        <ele>110</ele>
        <time>2022-07-13T21:13:00Z</time>
      </trkpt>
      <trkpt lat="43.2137" lon="6.06186">
        <ele>111</ele>
        <time>2022-07-13T21:13:10Z</time>
      </trkpt>
      <trkpt lat="43.21393" lon="6.06202">
        <ele>112</ele>
        <time>2022-07-13T21:13:15Z</time>
      </trkpt>
      <trkpt lat="43.21517" lon="6.06282">
        <ele>115</ele>
        <time>2022-07-13T21:13:39Z</time>
      </trkpt>
      <trkpt lat="43.21548" lon="6.06307">
        <ele>117</ele>
        <time>2022-07-13T21:13:46Z</time>
      </trkpt>
      <trkpt lat="43.21626" lon="6.0638">
        <ele>121</ele>
        <time>2022-07-13T21:14:03Z</time>
      </trkpt>
      <trkpt lat="43.21657" lon="6.06403">
        <ele>122</ele>
        <time>2022-07-13T21:14:09Z</time>
      </trkpt>
      <trkpt lat="43.21753" lon="6.06458">
        <ele>124</ele>
        <time>2022-07-13T21:14:27Z</time>
      </trkpt>
      <trkpt lat="43.21794" lon="6.06485">
        <ele>126</ele>
        <time>2022-07-13T21:14:35Z</time>
      </trkpt>
      <trkpt lat="43.21811" lon="6.06498">
        <ele>126</ele>
        <time>2022-07-13T21:14:39Z</time>
      </trkpt>
      <trkpt lat="43.21956" lon="6.06652">
        <ele>127</ele>
        <time>2022-07-13T21:15:12Z</time>
      </trkpt>
      <trkpt lat="43.22021" lon="6.06717">
        <ele>127</ele>
        <time>2022-07-13T21:15:26Z</time>
      </trkpt>
      <trkpt lat="43.22217" lon="6.06906">
        <ele>125</ele>
        <time>2022-07-13T21:16:09Z</time>
      </trkpt>
      <trkpt lat="43.22262" lon="6.06947">
        <ele>125</ele>
        <time>2022-07-13T21:16:18Z</time>
      </trkpt>
      <trkpt lat="43.22279" lon="6.06959">
        <ele>125</ele>
        <time>2022-07-13T21:16:22Z</time>
      </trkpt>
      <trkpt lat="43.22296" lon="6.06969">
        <ele>126</ele>
        <time>2022-07-13T21:16:25Z</time>
      </trkpt>
      <trkpt lat="43.22314" lon="6.06977">
        <ele>126</ele>
        <time>2022-07-13T21:16:28Z</time>
      </trkpt>
      <trkpt lat="43.22345" lon="6.06985">
        <ele>126</ele>
        <time>2022-07-13T21:16:34Z</time>
      </trkpt>
      <trkpt lat="43.22437" lon="6.06987">
        <ele>125</ele>
        <time>2022-07-13T21:16:50Z</time>
      </trkpt>
      <trkpt lat="43.22453" lon="6.06982">
        <ele>126</ele>
        <time>2022-07-13T21:16:53Z</time>
      </trkpt>
      <trkpt lat="43.22473" lon="6.06963">
        <ele>127</ele>
        <time>2022-07-13T21:16:57Z</time>
      </trkpt>
      <trkpt lat="43.22487" lon="6.06956">
        <ele>127</ele>
        <time>2022-07-13T21:17:00Z</time>
      </trkpt>
      <trkpt lat="43.22494" lon="6.06956">
        <ele>127</ele>
        <time>2022-07-13T21:17:01Z</time>
      </trkpt>
      <trkpt lat="43.22509" lon="6.06966">
        <ele>126</ele>
        <time>2022-07-13T21:17:04Z</time>
      </trkpt>
      <trkpt lat="43.22515" lon="6.06975">
        <ele>125</ele>
        <time>2022-07-13T21:17:06Z</time>
      </trkpt>
      <trkpt lat="43.22523" lon="6.06994">
        <ele>123</ele>
        <time>2022-07-13T21:17:09Z</time>
      </trkpt>
      <trkpt lat="43.22566" lon="6.06984">
        <ele>122</ele>
        <time>2022-07-13T21:17:16Z</time>
      </trkpt>
      <trkpt lat="43.22585" lon="6.06982">
        <ele>122</ele>
        <time>2022-07-13T21:17:20Z</time>
      </trkpt>
      <trkpt lat="43.22641" lon="6.06985">
        <ele>122</ele>
        <time>2022-07-13T21:17:30Z</time>
      </trkpt>
      <trkpt lat="43.22827" lon="6.07019">
        <ele>125</ele>
        <time>2022-07-13T21:18:03Z</time>
      </trkpt>
      <trkpt lat="43.22845" lon="6.0702">
        <ele>126</ele>
        <time>2022-07-13T21:18:06Z</time>
      </trkpt>
      <trkpt lat="43.22876" lon="6.07016">
        <ele>126</ele>
        <time>2022-07-13T21:18:12Z</time>
      </trkpt>
      <trkpt lat="43.22896" lon="6.07011">
        <ele>127</ele>
        <time>2022-07-13T21:18:16Z</time>
      </trkpt>
      <trkpt lat="43.22913" lon="6.07004">
        <ele>128</ele>
        <time>2022-07-13T21:18:19Z</time>
      </trkpt>
      <trkpt lat="43.2293" lon="6.07006">
        <ele>128</ele>
        <time>2022-07-13T21:18:22Z</time>
      </trkpt>
      <trkpt lat="43.22932" lon="6.0701">
        <ele>127</ele>
        <time>2022-07-13T21:18:22Z</time>
      </trkpt>
      <trkpt lat="43.22942" lon="6.07014">
        <ele>127</ele>
        <time>2022-07-13T21:18:24Z</time>
      </trkpt>
      <trkpt lat="43.22949" lon="6.0701">
        <ele>127</ele>
        <time>2022-07-13T21:18:26Z</time>
      </trkpt>
      <trkpt lat="43.22953" lon="6.07001">
        <ele>128</ele>
        <time>2022-07-13T21:18:27Z</time>
      </trkpt>
      <trkpt lat="43.22965" lon="6.0699">
        <ele>128</ele>
        <time>2022-07-13T21:18:30Z</time>
      </trkpt>
      <trkpt lat="43.23038" lon="6.0696">
        <ele>129</ele>
        <time>2022-07-13T21:18:43Z</time>
      </trkpt>
      <trkpt lat="43.23069" lon="6.06952">
        <ele>130</ele>
        <time>2022-07-13T21:18:49Z</time>
      </trkpt>
      <trkpt lat="43.23138" lon="6.06943">
        <ele>133</ele>
        <time>2022-07-13T21:19:01Z</time>
      </trkpt>
      <trkpt lat="43.23166" lon="6.06943">
        <ele>134</ele>
        <time>2022-07-13T21:19:06Z</time>
      </trkpt>
      <trkpt lat="43.23318" lon="6.06956">
        <ele>139</ele>
        <time>2022-07-13T21:19:33Z</time>
      </trkpt>
      <trkpt lat="43.23419" lon="6.06964">
        <ele>141</ele>
        <time>2022-07-13T21:19:51Z</time>
      </trkpt>
      <trkpt lat="43.23442" lon="6.0697">
        <ele>142</ele>
        <time>2022-07-13T21:19:55Z</time>
      </trkpt>
      <trkpt lat="43.23456" lon="6.06983">
        <ele>142</ele>
        <time>2022-07-13T21:19:58Z</time>
      </trkpt>
      <trkpt lat="43.23581" lon="6.07133">
        <ele>145</ele>
        <time>2022-07-13T21:20:28Z</time>
      </trkpt>
      <trkpt lat="43.23593" lon="6.07146">
        <ele>145</ele>
        <time>2022-07-13T21:20:31Z</time>
      </trkpt>
      <trkpt lat="43.23608" lon="6.07159">
        <ele>145</ele>
        <time>2022-07-13T21:20:34Z</time>
      </trkpt>
      <trkpt lat="43.23677" lon="6.07191">
        <ele>145</ele>
        <time>2022-07-13T21:20:47Z</time>
      </trkpt>
      <trkpt lat="43.23712" lon="6.07206">
        <ele>144</ele>
        <time>2022-07-13T21:20:53Z</time>
      </trkpt>
      <trkpt lat="43.23728" lon="6.07207">
        <ele>143</ele>
        <time>2022-07-13T21:20:56Z</time>
      </trkpt>
      <trkpt lat="43.23753" lon="6.07204">
        <ele>143</ele>
        <time>2022-07-13T21:21:00Z</time>
      </trkpt>
      <trkpt lat="43.23761" lon="6.07209">
        <ele>143</ele>
        <time>2022-07-13T21:21:02Z</time>
      </trkpt>
      <trkpt lat="43.23793" lon="6.0724">
        <ele>143</ele>
        <time>2022-07-13T21:21:09Z</time>
      </trkpt>
      <trkpt lat="43.23804" lon="6.07247">
        <ele>144</ele>
        <time>2022-07-13T21:21:11Z</time>
      </trkpt>
      <trkpt lat="43.23855" lon="6.07289">
        <ele>143</ele>
        <time>2022-07-13T21:21:22Z</time>
      </trkpt>
      <trkpt lat="43.23895" lon="6.07314">
        <ele>142</ele>
        <time>2022-07-13T21:21:30Z</time>
      </trkpt>
      <trkpt lat="43.23907" lon="6.07324">
        <ele>142</ele>
        <time>2022-07-13T21:21:32Z</time>
      </trkpt>
      <trkpt lat="43.23915" lon="6.07337">
        <ele>142</ele>
        <time>2022-07-13T21:21:34Z</time>
      </trkpt>
      <trkpt lat="43.23923" lon="6.07358">
        <ele>142</ele>
        <time>2022-07-13T21:21:37Z</time>
      </trkpt>
      <trkpt lat="43.23946" lon="6.07402">
        <ele>141</ele>
        <time>2022-07-13T21:21:44Z</time>
      </trkpt>
      <trkpt lat="43.23984" lon="6.07457">
        <ele>141</ele>
        <time>2022-07-13T21:21:54Z</time>
      </trkpt>
      <trkpt lat="43.23981" lon="6.07462">
        <ele>141</ele>
        <time>2022-07-13T21:21:55Z</time>
      </trkpt>
      <trkpt lat="43.23956" lon="6.07549">
        <ele>140</ele>
        <time>2022-07-13T21:22:07Z</time>
      </trkpt>
      <trkpt lat="43.239" lon="6.07697">
        <ele>136</ele>
        <time>2022-07-13T21:22:29Z</time>
      </trkpt>
      <trkpt lat="43.23631" lon="6.0836">
        <ele>125</ele>
        <time>2022-07-13T21:24:07Z</time>
      </trkpt>
      <trkpt lat="43.23619" lon="6.08366">
        <ele>125</ele>
        <time>2022-07-13T21:24:09Z</time>
      </trkpt>
      <trkpt lat="43.23611" lon="6.08366">
        <ele>125</ele>
        <time>2022-07-13T21:24:11Z</time>
      </trkpt>
      <trkpt lat="43.23585" lon="6.0835">
        <ele>125</ele>
        <time>2022-07-13T21:24:16Z</time>
      </trkpt>
      <trkpt lat="43.23575" lon="6.08334">
        <ele>125</ele>
        <time>2022-07-13T21:24:19Z</time>
      </trkpt>
      <trkpt lat="43.23571" lon="6.08306">
        <ele>125</ele>
        <time>2022-07-13T21:24:22Z</time>
      </trkpt>
      <trkpt lat="43.23567" lon="6.08295">
        <ele>125</ele>
        <time>2022-07-13T21:24:24Z</time>
      </trkpt>
      <trkpt lat="43.2356" lon="6.08286">
        <ele>125</ele>
        <time>2022-07-13T21:24:26Z</time>
      </trkpt>
      <trkpt lat="43.23546" lon="6.08279">
        <ele>125</ele>
        <time>2022-07-13T21:24:28Z</time>
      </trkpt>
      <trkpt lat="43.23524" lon="6.08278">
        <ele>125</ele>
        <time>2022-07-13T21:24:32Z</time>
      </trkpt>
      <trkpt lat="43.23502" lon="6.08284">
        <ele>125</ele>
        <time>2022-07-13T21:24:36Z</time>
      </trkpt>
      <trkpt lat="43.23489" lon="6.08286">
        <ele>124</ele>
        <time>2022-07-13T21:24:39Z</time>
      </trkpt>
      <trkpt lat="43.23484" lon="6.08288">
        <ele>124</ele>
        <time>2022-07-13T21:24:39Z</time>
      </trkpt>
      <trkpt lat="43.23478" lon="6.08295">
        <ele>124</ele>
        <time>2022-07-13T21:24:41Z</time>
      </trkpt>
      <trkpt lat="43.2346" lon="6.08346">
        <ele>122</ele>
        <time>2022-07-13T21:24:48Z</time>
      </trkpt>
      <trkpt lat="43.23451" lon="6.08359">
        <ele>122</ele>
        <time>2022-07-13T21:24:51Z</time>
      </trkpt>
      <trkpt lat="43.2345" lon="6.08367">
        <ele>122</ele>
        <time>2022-07-13T21:24:52Z</time>
      </trkpt>
      <trkpt lat="43.23455" lon="6.08371">
        <ele>122</ele>
        <time>2022-07-13T21:24:53Z</time>
      </trkpt>
      <trkpt lat="43.23458" lon="6.08374">
        <ele>122</ele>
        <time>2022-07-13T21:24:53Z</time>
      </trkpt>
      <trkpt lat="43.23464" lon="6.08385">
        <ele>122</ele>
        <time>2022-07-13T21:24:55Z</time>
      </trkpt>
      <trkpt lat="43.23479" lon="6.08415">
        <ele>122</ele>
        <time>2022-07-13T21:25:00Z</time>
      </trkpt>
      <trkpt lat="43.23488" lon="6.0843">
        <ele>122</ele>
        <time>2022-07-13T21:25:02Z</time>
      </trkpt>
      <trkpt lat="43.23492" lon="6.08434">
        <ele>122</ele>
        <time>2022-07-13T21:25:03Z</time>
      </trkpt>
      <trkpt lat="43.2351" lon="6.08445">
        <ele>123</ele>
        <time>2022-07-13T21:25:07Z</time>
      </trkpt>
      <trkpt lat="43.23525" lon="6.08446">
        <ele>123</ele>
        <time>2022-07-13T21:25:09Z</time>
      </trkpt>
      <trkpt lat="43.23547" lon="6.08441">
        <ele>123</ele>
        <time>2022-07-13T21:25:13Z</time>
      </trkpt>
      <trkpt lat="43.23562" lon="6.08445">
        <ele>124</ele>
        <time>2022-07-13T21:25:16Z</time>
      </trkpt>
      <trkpt lat="43.23573" lon="6.08453">
        <ele>124</ele>
        <time>2022-07-13T21:25:18Z</time>
      </trkpt>
      <trkpt lat="43.23577" lon="6.0846">
        <ele>124</ele>
        <time>2022-07-13T21:25:19Z</time>
      </trkpt>
      <trkpt lat="43.23582" lon="6.08481">
        <ele>124</ele>
        <time>2022-07-13T21:25:22Z</time>
      </trkpt>
      <trkpt lat="43.23581" lon="6.085">
        <ele>124</ele>
        <time>2022-07-13T21:25:25Z</time>
      </trkpt>
      <trkpt lat="43.23573" lon="6.08572">
        <ele>121</ele>
        <time>2022-07-13T21:25:34Z</time>
      </trkpt>
      <trkpt lat="43.23569" lon="6.08683">
        <ele>118</ele>
        <time>2022-07-13T21:25:49Z</time>
      </trkpt>
      <trkpt lat="43.2357" lon="6.0872">
        <ele>118</ele>
        <time>2022-07-13T21:25:53Z</time>
      </trkpt>
      <trkpt lat="43.23573" lon="6.08753">
        <ele>117</ele>
        <time>2022-07-13T21:25:58Z</time>
      </trkpt>
      <trkpt lat="43.23572" lon="6.08777">
        <ele>117</ele>
        <time>2022-07-13T21:26:01Z</time>
      </trkpt>
      <trkpt lat="43.23539" lon="6.08915">
        <ele>114</ele>
        <time>2022-07-13T21:26:20Z</time>
      </trkpt>
      <trkpt lat="43.23497" lon="6.09071">
        <ele>112</ele>
        <time>2022-07-13T21:26:41Z</time>
      </trkpt>
      <trkpt lat="43.23455" lon="6.09253">
        <ele>111</ele>
        <time>2022-07-13T21:27:06Z</time>
      </trkpt>
      <trkpt lat="43.23447" lon="6.09299">
        <ele>110</ele>
        <time>2022-07-13T21:27:12Z</time>
      </trkpt>
      <trkpt lat="43.23421" lon="6.09479">
        <ele>106</ele>
        <time>2022-07-13T21:27:36Z</time>
      </trkpt>
      <trkpt lat="43.23418" lon="6.09509">
        <ele>106</ele>
        <time>2022-07-13T21:27:40Z</time>
      </trkpt>
      <trkpt lat="43.23414" lon="6.09685">
        <ele>105</ele>
        <time>2022-07-13T21:28:03Z</time>
      </trkpt>
      <trkpt lat="43.23415" lon="6.098">
        <ele>102</ele>
        <time>2022-07-13T21:28:18Z</time>
      </trkpt>
      <trkpt lat="43.2342" lon="6.09946">
        <ele>101</ele>
        <time>2022-07-13T21:28:36Z</time>
      </trkpt>
      <trkpt lat="43.23427" lon="6.10043">
        <ele>98</ele>
        <time>2022-07-13T21:28:49Z</time>
      </trkpt>
      <trkpt lat="43.23431" lon="6.10074">
        <ele>97</ele>
        <time>2022-07-13T21:28:53Z</time>
      </trkpt>
      <trkpt lat="43.23436" lon="6.10098">
        <ele>97</ele>
        <time>2022-07-13T21:28:56Z</time>
      </trkpt>
      <trkpt lat="43.23443" lon="6.10117">
        <ele>97</ele>
        <time>2022-07-13T21:28:59Z</time>
      </trkpt>
      <trkpt lat="43.23454" lon="6.10136">
        <ele>97</ele>
        <time>2022-07-13T21:29:02Z</time>
      </trkpt>
      <trkpt lat="43.2357" lon="6.10286">
        <ele>95</ele>
        <time>2022-07-13T21:29:31Z</time>
      </trkpt>
      <trkpt lat="43.23587" lon="6.10321">
        <ele>95</ele>
        <time>2022-07-13T21:29:36Z</time>
      </trkpt>
      <trkpt lat="43.23587" lon="6.10326">
        <ele>95</ele>
        <time>2022-07-13T21:29:37Z</time>
      </trkpt>
      <trkpt lat="43.23567" lon="6.10359">
        <ele>94</ele>
        <time>2022-07-13T21:29:42Z</time>
      </trkpt>
      <trkpt lat="43.23495" lon="6.10431">
        <ele>93</ele>
        <time>2022-07-13T21:29:58Z</time>
      </trkpt>
      <trkpt lat="43.23456" lon="6.10472">
        <ele>92</ele>
        <time>2022-07-13T21:30:07Z</time>
      </trkpt>
      <trkpt lat="43.23295" lon="6.10661">
        <ele>90</ele>
        <time>2022-07-13T21:30:45Z</time>
      </trkpt>
      <trkpt lat="43.23263" lon="6.10699">
        <ele>90</ele>
        <time>2022-07-13T21:30:52Z</time>
      </trkpt>
      <trkpt lat="43.23249" lon="6.1072">
        <ele>90</ele>
        <time>2022-07-13T21:30:56Z</time>
      </trkpt>
      <trkpt lat="43.23221" lon="6.10765">
        <ele>89</ele>
        <time>2022-07-13T21:31:04Z</time>
      </trkpt>
      <trkpt lat="43.23065" lon="6.11097">
        <ele>84</ele>
        <time>2022-07-13T21:31:55Z</time>
      </trkpt>
      <trkpt lat="43.22965" lon="6.11314">
        <ele>81</ele>
        <time>2022-07-13T21:32:28Z</time>
      </trkpt>
      <trkpt lat="43.22939" lon="6.11375">
        <ele>80</ele>
        <time>2022-07-13T21:32:37Z</time>
      </trkpt>
      <trkpt lat="43.22924" lon="6.11418">
        <ele>79</ele>
        <time>2022-07-13T21:32:43Z</time>
      </trkpt>
      <trkpt lat="43.2282" lon="6.11771">
        <ele>74</ele>
        <time>2022-07-13T21:33:33Z</time>
      </trkpt>
      <trkpt lat="43.22782" lon="6.1188">
        <ele>71</ele>
        <time>2022-07-13T21:33:48Z</time>
      </trkpt>
      <trkpt lat="43.2276" lon="6.11946">
        <ele>70</ele>
        <time>2022-07-13T21:33:58Z</time>
      </trkpt>
      <trkpt lat="43.22729" lon="6.12077">
        <ele>69</ele>
        <time>2022-07-13T21:34:16Z</time>
      </trkpt>
      <trkpt lat="43.22719" lon="6.12111">
        <ele>68</ele>
        <time>2022-07-13T21:34:20Z</time>
      </trkpt>
      <trkpt lat="43.22699" lon="6.12168">
        <ele>67</ele>
        <time>2022-07-13T21:34:29Z</time>
      </trkpt>
      <trkpt lat="43.22681" lon="6.12231">
        <ele>66</ele>
        <time>2022-07-13T21:34:37Z</time>
      </trkpt>
      <trkpt lat="43.22673" lon="6.12278">
        <ele>65</ele>
        <time>2022-07-13T21:34:44Z</time>
      </trkpt>
      <trkpt lat="43.22655" lon="6.124">
        <ele>65</ele>
        <time>2022-07-13T21:35:00Z</time>
      </trkpt>
      <trkpt lat="43.22637" lon="6.12493">
        <ele>65</ele>
        <time>2022-07-13T21:35:12Z</time>
      </trkpt>
      <trkpt lat="43.2262" lon="6.12563">
        <ele>64</ele>
        <time>2022-07-13T21:35:22Z</time>
      </trkpt>
      <trkpt lat="43.22612" lon="6.12604">
        <ele>63</ele>
        <time>2022-07-13T21:35:27Z</time>
      </trkpt>
      <trkpt lat="43.22606" lon="6.12644">
        <ele>61</ele>
        <time>2022-07-13T21:35:33Z</time>
      </trkpt>
      <trkpt lat="43.226" lon="6.12721">
        <ele>61</ele>
        <time>2022-07-13T21:35:43Z</time>
      </trkpt>
      <trkpt lat="43.22592" lon="6.12772">
        <ele>61</ele>
        <time>2022-07-13T21:35:49Z</time>
      </trkpt>
      <trkpt lat="43.22585" lon="6.12808">
        <ele>60</ele>
        <time>2022-07-13T21:35:54Z</time>
      </trkpt>
      <trkpt lat="43.22561" lon="6.12898">
        <ele>58</ele>
        <time>2022-07-13T21:36:07Z</time>
      </trkpt>
      <trkpt lat="43.22554" lon="6.12931">
        <ele>58</ele>
        <time>2022-07-13T21:36:11Z</time>
      </trkpt>
      <trkpt lat="43.22551" lon="6.12963">
        <ele>57</ele>
        <time>2022-07-13T21:36:15Z</time>
      </trkpt>
      <trkpt lat="43.22551" lon="6.12997">
        <ele>55</ele>
        <time>2022-07-13T21:36:20Z</time>
      </trkpt>
      <trkpt lat="43.22554" lon="6.13028">
        <ele>55</ele>
        <time>2022-07-13T21:36:24Z</time>
      </trkpt>
      <trkpt lat="43.2256" lon="6.13062">
        <ele>55</ele>
        <time>2022-07-13T21:36:28Z</time>
      </trkpt>
      <trkpt lat="43.22572" lon="6.13101">
        <ele>55</ele>
        <time>2022-07-13T21:36:34Z</time>
      </trkpt>
      <trkpt lat="43.22613" lon="6.13193">
        <ele>54</ele>
        <time>2022-07-13T21:36:48Z</time>
      </trkpt>
      <trkpt lat="43.22622" lon="6.13216">
        <ele>53</ele>
        <time>2022-07-13T21:36:51Z</time>
      </trkpt>
      <trkpt lat="43.22627" lon="6.13236">
        <ele>53</ele>
        <time>2022-07-13T21:36:54Z</time>
      </trkpt>
      <trkpt lat="43.2263" lon="6.13267">
        <ele>53</ele>
        <time>2022-07-13T21:36:58Z</time>
      </trkpt>
      <trkpt lat="43.22629" lon="6.13289">
        <ele>52</ele>
        <time>2022-07-13T21:37:01Z</time>
      </trkpt>
      <trkpt lat="43.22618" lon="6.1335">
        <ele>52</ele>
        <time>2022-07-13T21:37:09Z</time>
      </trkpt>
      <trkpt lat="43.22612" lon="6.13379">
        <ele>52</ele>
        <time>2022-07-13T21:37:13Z</time>
      </trkpt>
      <trkpt lat="43.22595" lon="6.13449">
        <ele>52</ele>
        <time>2022-07-13T21:37:22Z</time>
      </trkpt>
      <trkpt lat="43.22591" lon="6.13457">
        <ele>52</ele>
        <time>2022-07-13T21:37:24Z</time>
      </trkpt>
      <trkpt lat="43.22587" lon="6.13461">
        <ele>52</ele>
        <time>2022-07-13T21:37:25Z</time>
      </trkpt>
      <trkpt lat="43.22583" lon="6.13461">
        <ele>52</ele>
        <time>2022-07-13T21:37:25Z</time>
      </trkpt>
      <trkpt lat="43.22576" lon="6.13469">
        <ele>52</ele>
        <time>2022-07-13T21:37:27Z</time>
      </trkpt>
      <trkpt lat="43.22575" lon="6.1348">
        <ele>52</ele>
        <time>2022-07-13T21:37:28Z</time>
      </trkpt>
      <trkpt lat="43.2258" lon="6.13491">
        <ele>52</ele>
        <time>2022-07-13T21:37:30Z</time>
      </trkpt>
      <trkpt lat="43.22583" lon="6.13493">
        <ele>52</ele>
        <time>2022-07-13T21:37:31Z</time>
      </trkpt>
      <trkpt lat="43.22587" lon="6.13505">
        <ele>53</ele>
        <time>2022-07-13T21:37:32Z</time>
      </trkpt>
      <trkpt lat="43.22587" lon="6.13513">
        <ele>54</ele>
        <time>2022-07-13T21:37:33Z</time>
      </trkpt>
      <trkpt lat="43.22574" lon="6.13539">
        <ele>56</ele>
        <time>2022-07-13T21:37:37Z</time>
      </trkpt>
      <trkpt lat="43.22558" lon="6.13583">
        <ele>59</ele>
        <time>2022-07-13T21:37:44Z</time>
      </trkpt>
      <trkpt lat="43.22535" lon="6.13635">
        <ele>61</ele>
        <time>2022-07-13T21:37:52Z</time>
      </trkpt>
      <trkpt lat="43.2252" lon="6.13685">
        <ele>63</ele>
        <time>2022-07-13T21:37:59Z</time>
      </trkpt>
      <trkpt lat="43.22485" lon="6.13832">
        <ele>70</ele>
        <time>2022-07-13T21:38:19Z</time>
      </trkpt>
      <trkpt lat="43.22474" lon="6.13869">
        <ele>72</ele>
        <time>2022-07-13T21:38:24Z</time>
      </trkpt>
      <trkpt lat="43.2244" lon="6.14013">
        <ele>79</ele>
        <time>2022-07-13T21:38:44Z</time>
      </trkpt>
      <trkpt lat="43.22435" lon="6.14044">
        <ele>80</ele>
        <time>2022-07-13T21:38:48Z</time>
      </trkpt>
      <trkpt lat="43.22434" lon="6.14066">
        <ele>81</ele>
        <time>2022-07-13T21:38:51Z</time>
      </trkpt>
      <trkpt lat="43.22439" lon="6.14104">
        <ele>82</ele>
        <time>2022-07-13T21:38:56Z</time>
      </trkpt>
      <trkpt lat="43.22444" lon="6.14117">
        <ele>83</ele>
        <time>2022-07-13T21:38:58Z</time>
      </trkpt>
      <trkpt lat="43.22458" lon="6.14144">
        <ele>84</ele>
        <time>2022-07-13T21:39:02Z</time>
      </trkpt>
      <trkpt lat="43.2247" lon="6.14163">
        <ele>86</ele>
        <time>2022-07-13T21:39:05Z</time>
      </trkpt>
      <trkpt lat="43.22535" lon="6.14238">
        <ele>93</ele>
        <time>2022-07-13T21:39:20Z</time>
      </trkpt>
      <trkpt lat="43.22561" lon="6.14261">
        <ele>95</ele>
        <time>2022-07-13T21:39:26Z</time>
      </trkpt>
      <trkpt lat="43.22584" lon="6.14278">
        <ele>96</ele>
        <time>2022-07-13T21:39:30Z</time>
      </trkpt>
      <trkpt lat="43.22631" lon="6.143">
        <ele>99</ele>
        <time>2022-07-13T21:39:39Z</time>
      </trkpt>
      <trkpt lat="43.22639" lon="6.14301">
        <ele>100</ele>
        <time>2022-07-13T21:39:41Z</time>
      </trkpt>
      <trkpt lat="43.2266" lon="6.14289">
        <ele>105</ele>
        <time>2022-07-13T21:39:45Z</time>
      </trkpt>
      <trkpt lat="43.22665" lon="6.14287">
        <ele>106</ele>
        <time>2022-07-13T21:39:46Z</time>
      </trkpt>
      <trkpt lat="43.22685" lon="6.14292">
        <ele>105</ele>
        <time>2022-07-13T21:39:49Z</time>
      </trkpt>
      <trkpt lat="43.2281" lon="6.14344">
        <ele>97</ele>
        <time>2022-07-13T21:40:12Z</time>
      </trkpt>
      <trkpt lat="43.22822" lon="6.14354">
        <ele>97</ele>
        <time>2022-07-13T21:40:15Z</time>
      </trkpt>
      <trkpt lat="43.2283" lon="6.14363">
        <ele>98</ele>
        <time>2022-07-13T21:40:17Z</time>
      </trkpt>
      <trkpt lat="43.22845" lon="6.14386">
        <ele>97</ele>
        <time>2022-07-13T21:40:21Z</time>
      </trkpt>
      <trkpt lat="43.22858" lon="6.14414">
        <ele>96</ele>
        <time>2022-07-13T21:40:25Z</time>
      </trkpt>
      <trkpt lat="43.22871" lon="6.14461">
        <ele>97</ele>
        <time>2022-07-13T21:40:32Z</time>
      </trkpt>
      <trkpt lat="43.22891" lon="6.14506">
        <ele>97</ele>
        <time>2022-07-13T21:40:38Z</time>
      </trkpt>
      <trkpt lat="43.22907" lon="6.14533">
        <ele>97</ele>
        <time>2022-07-13T21:40:43Z</time>
      </trkpt>
      <trkpt lat="43.22962" lon="6.14615">
        <ele>94</ele>
        <time>2022-07-13T21:40:57Z</time>
      </trkpt>
      <trkpt lat="43.22979" lon="6.14645">
        <ele>93</ele>
        <time>2022-07-13T21:41:02Z</time>
      </trkpt>
      <trkpt lat="43.23088" lon="6.1491">
        <ele>81</ele>
        <time>2022-07-13T21:41:42Z</time>
      </trkpt>
      <trkpt lat="43.2311" lon="6.14953">
        <ele>81</ele>
        <time>2022-07-13T21:41:49Z</time>
      </trkpt>
      <trkpt lat="43.2311" lon="6.14961">
        <ele>81</ele>
        <time>2022-07-13T21:41:50Z</time>
      </trkpt>
      <trkpt lat="43.23114" lon="6.14967">
        <ele>81</ele>
        <time>2022-07-13T21:41:51Z</time>
      </trkpt>
      <trkpt lat="43.23123" lon="6.14999">
        <ele>81</ele>
        <time>2022-07-13T21:41:55Z</time>
      </trkpt>
      <trkpt lat="43.23128" lon="6.15007">
        <ele>81</ele>
        <time>2022-07-13T21:41:56Z</time>
      </trkpt>
      <trkpt lat="43.2315" lon="6.15064">
        <ele>79</ele>
        <time>2022-07-13T21:42:05Z</time>
      </trkpt>
      <trkpt lat="43.23154" lon="6.15081">
        <ele>78</ele>
        <time>2022-07-13T21:42:07Z</time>
      </trkpt>
      <trkpt lat="43.23213" lon="6.1544">
        <ele>76</ele>
        <time>2022-07-13T21:42:55Z</time>
      </trkpt>
      <trkpt lat="43.23217" lon="6.15473">
        <ele>76</ele>
        <time>2022-07-13T21:42:59Z</time>
      </trkpt>
      <trkpt lat="43.23231" lon="6.15661">
        <ele>78</ele>
        <time>2022-07-13T21:43:24Z</time>
      </trkpt>
      <trkpt lat="43.23241" lon="6.15719">
        <ele>78</ele>
        <time>2022-07-13T21:43:31Z</time>
      </trkpt>
      <trkpt lat="43.23282" lon="6.15854">
        <ele>80</ele>
        <time>2022-07-13T21:43:50Z</time>
      </trkpt>
      <trkpt lat="43.233" lon="6.15903">
        <ele>80</ele>
        <time>2022-07-13T21:43:57Z</time>
      </trkpt>
      <trkpt lat="43.2331" lon="6.15939">
        <ele>80</ele>
        <time>2022-07-13T21:44:02Z</time>
      </trkpt>
      <trkpt lat="43.23334" lon="6.16037">
        <ele>81</ele>
        <time>2022-07-13T21:44:16Z</time>
      </trkpt>
      <trkpt lat="43.23362" lon="6.16165">
        <ele>83</ele>
        <time>2022-07-13T21:44:33Z</time>
      </trkpt>
      <trkpt lat="43.23361" lon="6.16178">
        <ele>83</ele>
        <time>2022-07-13T21:44:35Z</time>
      </trkpt>
      <trkpt lat="43.23367" lon="6.16203">
        <ele>84</ele>
        <time>2022-07-13T21:44:38Z</time>
      </trkpt>
      <trkpt lat="43.23381" lon="6.16328">
        <ele>84</ele>
        <time>2022-07-13T21:44:55Z</time>
      </trkpt>
      <trkpt lat="43.23392" lon="6.16374">
        <ele>84</ele>
        <time>2022-07-13T21:45:01Z</time>
      </trkpt>
      <trkpt lat="43.23417" lon="6.16561">
        <ele>79</ele>
        <time>2022-07-13T21:45:26Z</time>
      </trkpt>
      <trkpt lat="43.23419" lon="6.1659">
        <ele>78</ele>
        <time>2022-07-13T21:45:29Z</time>
      </trkpt>
      <trkpt lat="43.23418" lon="6.16696">
        <ele>77</ele>
        <time>2022-07-13T21:45:43Z</time>
      </trkpt>
      <trkpt lat="43.23412" lon="6.16754">
        <ele>77</ele>
        <time>2022-07-13T21:45:51Z</time>
      </trkpt>
      <trkpt lat="43.23396" lon="6.16819">
        <ele>78</ele>
        <time>2022-07-13T21:46:00Z</time>
      </trkpt>
      <trkpt lat="43.23371" lon="6.169">
        <ele>80</ele>
        <time>2022-07-13T21:46:11Z</time>
      </trkpt>
      <trkpt lat="43.23347" lon="6.16954">
        <ele>80</ele>
        <time>2022-07-13T21:46:19Z</time>
      </trkpt>
      <trkpt lat="43.23332" lon="6.16981">
        <ele>78</ele>
        <time>2022-07-13T21:46:24Z</time>
      </trkpt>
      <trkpt lat="43.23286" lon="6.17045">
        <ele>82</ele>
        <time>2022-07-13T21:46:35Z</time>
      </trkpt>
      <trkpt lat="43.23262" lon="6.17084">
        <ele>81</ele>
        <time>2022-07-13T21:46:42Z</time>
      </trkpt>
      <trkpt lat="43.23232" lon="6.17154">
        <ele>80</ele>
        <time>2022-07-13T21:46:52Z</time>
      </trkpt>
      <trkpt lat="43.23224" lon="6.17176">
        <ele>79</ele>
        <time>2022-07-13T21:46:56Z</time>
      </trkpt>
      <trkpt lat="43.2322" lon="6.17197">
        <ele>78</ele>
        <time>2022-07-13T21:46:58Z</time>
      </trkpt>
      <trkpt lat="43.23219" lon="6.17218">
        <ele>76</ele>
        <time>2022-07-13T21:47:01Z</time>
      </trkpt>
      <trkpt lat="43.23244" lon="6.1741">
        <ele>70</ele>
        <time>2022-07-13T21:47:26Z</time>
      </trkpt>
      <trkpt lat="43.2325" lon="6.17472">
        <ele>70</ele>
        <time>2022-07-13T21:47:35Z</time>
      </trkpt>
      <trkpt lat="43.2325" lon="6.17535">
        <ele>70</ele>
        <time>2022-07-13T21:47:43Z</time>
      </trkpt>
      <trkpt lat="43.2324" lon="6.1766">
        <ele>71</ele>
        <time>2022-07-13T21:47:59Z</time>
      </trkpt>
      <trkpt lat="43.23239" lon="6.17837">
        <ele>72</ele>
        <time>2022-07-13T21:48:22Z</time>
      </trkpt>
      <trkpt lat="43.23237" lon="6.17864">
        <ele>73</ele>
        <time>2022-07-13T21:48:26Z</time>
      </trkpt>
      <trkpt lat="43.23233" lon="6.17885">
        <ele>73</ele>
        <time>2022-07-13T21:48:28Z</time>
      </trkpt>
      <trkpt lat="43.23227" lon="6.17909">
        <ele>74</ele>
        <time>2022-07-13T21:48:32Z</time>
      </trkpt>
      <trkpt lat="43.23188" lon="6.18019">
        <ele>76</ele>
        <time>2022-07-13T21:48:47Z</time>
      </trkpt>
      <trkpt lat="43.23165" lon="6.18103">
        <ele>76</ele>
        <time>2022-07-13T21:48:59Z</time>
      </trkpt>
      <trkpt lat="43.23155" lon="6.18152">
        <ele>76</ele>
        <time>2022-07-13T21:49:06Z</time>
      </trkpt>
      <trkpt lat="43.23152" lon="6.18178">
        <ele>76</ele>
        <time>2022-07-13T21:49:09Z</time>
      </trkpt>
      <trkpt lat="43.23151" lon="6.18202">
        <ele>77</ele>
        <time>2022-07-13T21:49:12Z</time>
      </trkpt>
      <trkpt lat="43.23154" lon="6.18226">
        <ele>77</ele>
        <time>2022-07-13T21:49:15Z</time>
      </trkpt>
      <trkpt lat="43.23161" lon="6.1825">
        <ele>77</ele>
        <time>2022-07-13T21:49:19Z</time>
      </trkpt>
      <trkpt lat="43.2319" lon="6.18313">
        <ele>77</ele>
        <time>2022-07-13T21:49:28Z</time>
      </trkpt>
      <trkpt lat="43.23206" lon="6.18375">
        <ele>77</ele>
        <time>2022-07-13T21:49:37Z</time>
      </trkpt>
      <trkpt lat="43.2322" lon="6.18444">
        <ele>76</ele>
        <time>2022-07-13T21:49:46Z</time>
      </trkpt>
      <trkpt lat="43.23223" lon="6.18472">
        <ele>77</ele>
        <time>2022-07-13T21:49:50Z</time>
      </trkpt>
      <trkpt lat="43.23227" lon="6.18536">
        <ele>77</ele>
        <time>2022-07-13T21:49:58Z</time>
      </trkpt>
      <trkpt lat="43.23232" lon="6.18562">
        <ele>77</ele>
        <time>2022-07-13T21:50:02Z</time>
      </trkpt>
      <trkpt lat="43.2324" lon="6.18588">
        <ele>77</ele>
        <time>2022-07-13T21:50:05Z</time>
      </trkpt>
      <trkpt lat="43.23258" lon="6.18641">
        <ele>78</ele>
        <time>2022-07-13T21:50:13Z</time>
      </trkpt>
      <trkpt lat="43.2332" lon="6.18796">
        <ele>79</ele>
        <time>2022-07-13T21:50:36Z</time>
      </trkpt>
      <trkpt lat="43.23328" lon="6.18821">
        <ele>80</ele>
        <time>2022-07-13T21:50:39Z</time>
      </trkpt>
      <trkpt lat="43.23344" lon="6.18898">
        <ele>81</ele>
        <time>2022-07-13T21:50:50Z</time>
      </trkpt>
      <trkpt lat="43.23352" lon="6.18949">
        <ele>80</ele>
        <time>2022-07-13T21:50:57Z</time>
      </trkpt>
      <trkpt lat="43.23354" lon="6.18975">
        <ele>80</ele>
        <time>2022-07-13T21:51:00Z</time>
      </trkpt>
      <trkpt lat="43.23354" lon="6.19001">
        <ele>80</ele>
        <time>2022-07-13T21:51:03Z</time>
      </trkpt>
      <trkpt lat="43.23346" lon="6.19112">
        <ele>80</ele>
        <time>2022-07-13T21:51:18Z</time>
      </trkpt>
      <trkpt lat="43.23343" lon="6.19139">
        <ele>81</ele>
        <time>2022-07-13T21:51:21Z</time>
      </trkpt>
      <trkpt lat="43.23318" lon="6.19247">
        <ele>82</ele>
        <time>2022-07-13T21:51:36Z</time>
      </trkpt>
      <trkpt lat="43.23314" lon="6.19274">
        <ele>82</ele>
        <time>2022-07-13T21:51:40Z</time>
      </trkpt>
      <trkpt lat="43.23311" lon="6.19301">
        <ele>82</ele>
        <time>2022-07-13T21:51:43Z</time>
      </trkpt>
      <trkpt lat="43.23312" lon="6.19436">
        <ele>83</ele>
        <time>2022-07-13T21:52:01Z</time>
      </trkpt>
      <trkpt lat="43.23319" lon="6.19513">
        <ele>85</ele>
        <time>2022-07-13T21:52:11Z</time>
      </trkpt>
      <trkpt lat="43.2332" lon="6.1954">
        <ele>85</ele>
        <time>2022-07-13T21:52:14Z</time>
      </trkpt>
      <trkpt lat="43.23319" lon="6.19567">
        <ele>85</ele>
        <time>2022-07-13T21:52:18Z</time>
      </trkpt>
      <trkpt lat="43.23306" lon="6.19673">
        <ele>84</ele>
        <time>2022-07-13T21:52:32Z</time>
      </trkpt>
      <trkpt lat="43.23289" lon="6.19746">
        <ele>86</ele>
        <time>2022-07-13T21:52:42Z</time>
      </trkpt>
      <trkpt lat="43.23267" lon="6.19873">
        <ele>85</ele>
        <time>2022-07-13T21:52:58Z</time>
      </trkpt>
      <trkpt lat="43.23264" lon="6.199">
        <ele>85</ele>
        <time>2022-07-13T21:53:02Z</time>
      </trkpt>
      <trkpt lat="43.23259" lon="6.20042">
        <ele>86</ele>
        <time>2022-07-13T21:53:20Z</time>
      </trkpt>
      <trkpt lat="43.23261" lon="6.20097">
        <ele>86</ele>
        <time>2022-07-13T21:53:28Z</time>
      </trkpt>
      <trkpt lat="43.23264" lon="6.20123">
        <ele>86</ele>
        <time>2022-07-13T21:53:31Z</time>
      </trkpt>
      <trkpt lat="43.23301" lon="6.203">
        <ele>86</ele>
        <time>2022-07-13T21:53:55Z</time>
      </trkpt>
      <trkpt lat="43.23319" lon="6.20379">
        <ele>88</ele>
        <time>2022-07-13T21:54:06Z</time>
      </trkpt>
      <trkpt lat="43.23349" lon="6.20569">
        <ele>93</ele>
        <time>2022-07-13T21:54:31Z</time>
      </trkpt>
      <trkpt lat="43.2336" lon="6.20656">
        <ele>94</ele>
        <time>2022-07-13T21:54:42Z</time>
      </trkpt>
      <trkpt lat="43.23363" lon="6.20726">
        <ele>95</ele>
        <time>2022-07-13T21:54:51Z</time>
      </trkpt>
      <trkpt lat="43.23367" lon="6.20754">
        <ele>94</ele>
        <time>2022-07-13T21:54:55Z</time>
      </trkpt>
      <trkpt lat="43.23378" lon="6.20816">
        <ele>94</ele>
        <time>2022-07-13T21:55:03Z</time>
      </trkpt>
      <trkpt lat="43.23397" lon="6.20949">
        <ele>94</ele>
        <time>2022-07-13T21:55:21Z</time>
      </trkpt>
      <trkpt lat="43.2343" lon="6.21116">
        <ele>91</ele>
        <time>2022-07-13T21:55:43Z</time>
      </trkpt>
      <trkpt lat="43.23438" lon="6.21238">
        <ele>94</ele>
        <time>2022-07-13T21:55:59Z</time>
      </trkpt>
      <trkpt lat="43.23439" lon="6.21278">
        <ele>95</ele>
        <time>2022-07-13T21:56:04Z</time>
      </trkpt>
      <trkpt lat="43.23436" lon="6.21326">
        <ele>95</ele>
        <time>2022-07-13T21:56:11Z</time>
      </trkpt>
      <trkpt lat="43.23438" lon="6.21357">
        <ele>96</ele>
        <time>2022-07-13T21:56:15Z</time>
      </trkpt>
      <trkpt lat="43.2344" lon="6.21383">
        <ele>97</ele>
        <time>2022-07-13T21:56:18Z</time>
      </trkpt>
      <trkpt lat="43.23444" lon="6.21404">
        <ele>97</ele>
        <time>2022-07-13T21:56:21Z</time>
      </trkpt>
      <trkpt lat="43.23452" lon="6.21426">
        <ele>97</ele>
        <time>2022-07-13T21:56:24Z</time>
      </trkpt>
      <trkpt lat="43.23463" lon="6.21443">
        <ele>97</ele>
        <time>2022-07-13T21:56:27Z</time>
      </trkpt>
      <trkpt lat="43.23488" lon="6.21475">
        <ele>94</ele>
        <time>2022-07-13T21:56:33Z</time>
      </trkpt>
      <trkpt lat="43.23503" lon="6.21495">
        <ele>93</ele>
        <time>2022-07-13T21:56:37Z</time>
      </trkpt>
      <trkpt lat="43.23516" lon="6.21518">
        <ele>94</ele>
        <time>2022-07-13T21:56:41Z</time>
      </trkpt>
      <trkpt lat="43.23564" lon="6.21614">
        <ele>94</ele>
        <time>2022-07-13T21:56:56Z</time>
      </trkpt>
      <trkpt lat="43.23603" lon="6.21722">
        <ele>95</ele>
        <time>2022-07-13T21:57:11Z</time>
      </trkpt>
      <trkpt lat="43.23647" lon="6.21853">
        <ele>95</ele>
        <time>2022-07-13T21:57:30Z</time>
      </trkpt>
      <trkpt lat="43.23651" lon="6.21876">
        <ele>95</ele>
        <time>2022-07-13T21:57:33Z</time>
      </trkpt>
      <trkpt lat="43.23653" lon="6.21901">
        <ele>95</ele>
        <time>2022-07-13T21:57:36Z</time>
      </trkpt>
      <trkpt lat="43.23653" lon="6.21926">
        <ele>96</ele>
        <time>2022-07-13T21:57:40Z</time>
      </trkpt>
      <trkpt lat="43.23651" lon="6.21951">
        <ele>96</ele>
        <time>2022-07-13T21:57:43Z</time>
      </trkpt>
      <trkpt lat="43.23646" lon="6.21973">
        <ele>97</ele>
        <time>2022-07-13T21:57:46Z</time>
      </trkpt>
      <trkpt lat="43.23637" lon="6.21997">
        <ele>98</ele>
        <time>2022-07-13T21:57:49Z</time>
      </trkpt>
      <trkpt lat="43.23593" lon="6.22092">
        <ele>99</ele>
        <time>2022-07-13T21:58:04Z</time>
      </trkpt>
      <trkpt lat="43.23583" lon="6.22117">
        <ele>100</ele>
        <time>2022-07-13T21:58:08Z</time>
      </trkpt>
      <trkpt lat="43.23561" lon="6.22197">
        <ele>101</ele>
        <time>2022-07-13T21:58:19Z</time>
      </trkpt>
      <trkpt lat="43.23543" lon="6.22274">
        <ele>102</ele>
        <time>2022-07-13T21:58:29Z</time>
      </trkpt>
      <trkpt lat="43.23493" lon="6.22523">
        <ele>104</ele>
        <time>2022-07-13T21:59:03Z</time>
      </trkpt>
      <trkpt lat="43.23489" lon="6.22546">
        <ele>104</ele>
        <time>2022-07-13T21:59:06Z</time>
      </trkpt>
      <trkpt lat="43.23488" lon="6.22569">
        <ele>105</ele>
        <time>2022-07-13T21:59:09Z</time>
      </trkpt>
      <trkpt lat="43.23492" lon="6.22661">
        <ele>104</ele>
        <time>2022-07-13T21:59:21Z</time>
      </trkpt>
      <trkpt lat="43.2349" lon="6.22684">
        <ele>104</ele>
        <time>2022-07-13T21:59:24Z</time>
      </trkpt>
      <trkpt lat="43.23487" lon="6.22707">
        <ele>103</ele>
        <time>2022-07-13T21:59:27Z</time>
      </trkpt>
      <trkpt lat="43.23481" lon="6.22729">
        <ele>103</ele>
        <time>2022-07-13T21:59:30Z</time>
      </trkpt>
      <trkpt lat="43.23467" lon="6.2277">
        <ele>102</ele>
        <time>2022-07-13T21:59:36Z</time>
      </trkpt>
      <trkpt lat="43.23446" lon="6.22807">
        <ele>102</ele>
        <time>2022-07-13T21:59:42Z</time>
      </trkpt>
      <trkpt lat="43.23358" lon="6.22937">
        <ele>103</ele>
        <time>2022-07-13T22:00:05Z</time>
      </trkpt>
      <trkpt lat="43.23336" lon="6.22976">
        <ele>104</ele>
        <time>2022-07-13T22:00:11Z</time>
      </trkpt>
      <trkpt lat="43.23328" lon="6.22997">
        <ele>104</ele>
        <time>2022-07-13T22:00:14Z</time>
      </trkpt>
      <trkpt lat="43.23306" lon="6.23062">
        <ele>105</ele>
        <time>2022-07-13T22:00:23Z</time>
      </trkpt>
      <trkpt lat="43.23297" lon="6.23084">
        <ele>105</ele>
        <time>2022-07-13T22:00:27Z</time>
      </trkpt>
      <trkpt lat="43.23102" lon="6.23492">
        <ele>111</ele>
        <time>2022-07-13T22:01:30Z</time>
      </trkpt>
      <trkpt lat="43.2307" lon="6.23551">
        <ele>115</ele>
        <time>2022-07-13T22:01:39Z</time>
      </trkpt>
      <trkpt lat="43.23049" lon="6.23585">
        <ele>118</ele>
        <time>2022-07-13T22:01:45Z</time>
      </trkpt>
      <trkpt lat="43.23041" lon="6.23601">
        <ele>118</ele>
        <time>2022-07-13T22:01:48Z</time>
      </trkpt>
      <trkpt lat="43.23035" lon="6.23619">
        <ele>118</ele>
        <time>2022-07-13T22:01:50Z</time>
      </trkpt>
      <trkpt lat="43.23033" lon="6.23637">
        <ele>119</ele>
        <time>2022-07-13T22:01:53Z</time>
      </trkpt>
      <trkpt lat="43.23035" lon="6.23655">
        <ele>120</ele>
        <time>2022-07-13T22:01:55Z</time>
      </trkpt>
      <trkpt lat="43.23039" lon="6.23673">
        <ele>121</ele>
        <time>2022-07-13T22:01:57Z</time>
      </trkpt>
      <trkpt lat="43.23052" lon="6.23709">
        <ele>122</ele>
        <time>2022-07-13T22:02:03Z</time>
      </trkpt>
      <trkpt lat="43.231" lon="6.23865">
        <ele>123</ele>
        <time>2022-07-13T22:02:25Z</time>
      </trkpt>
      <trkpt lat="43.23106" lon="6.23898">
        <ele>124</ele>
        <time>2022-07-13T22:02:29Z</time>
      </trkpt>
      <trkpt lat="43.23123" lon="6.24066">
        <ele>121</ele>
        <time>2022-07-13T22:02:51Z</time>
      </trkpt>
      <trkpt lat="43.23127" lon="6.2409">
        <ele>121</ele>
        <time>2022-07-13T22:02:54Z</time>
      </trkpt>
      <trkpt lat="43.23139" lon="6.24138">
        <ele>119</ele>
        <time>2022-07-13T22:03:01Z</time>
      </trkpt>
      <trkpt lat="43.23168" lon="6.24232">
        <ele>116</ele>
        <time>2022-07-13T22:03:14Z</time>
      </trkpt>
      <trkpt lat="43.23174" lon="6.24264">
        <ele>115</ele>
        <time>2022-07-13T22:03:18Z</time>
      </trkpt>
      <trkpt lat="43.23178" lon="6.2429">
        <ele>116</ele>
        <time>2022-07-13T22:03:22Z</time>
      </trkpt>
      <trkpt lat="43.23217" lon="6.24655">
        <ele>119</ele>
        <time>2022-07-13T22:04:10Z</time>
      </trkpt>
      <trkpt lat="43.2322" lon="6.2473">
        <ele>120</ele>
        <time>2022-07-13T22:04:19Z</time>
      </trkpt>
      <trkpt lat="43.23212" lon="6.24807">
        <ele>120</ele>
        <time>2022-07-13T22:04:29Z</time>
      </trkpt>
      <trkpt lat="43.23193" lon="6.24947">
        <ele>121</ele>
        <time>2022-07-13T22:04:48Z</time>
      </trkpt>
      <trkpt lat="43.23182" lon="6.24999">
        <ele>120</ele>
        <time>2022-07-13T22:04:55Z</time>
      </trkpt>
      <trkpt lat="43.23128" lon="6.25146">
        <ele>120</ele>
        <time>2022-07-13T22:05:16Z</time>
      </trkpt>
      <trkpt lat="43.23099" lon="6.25207">
        <ele>118</ele>
        <time>2022-07-13T22:05:26Z</time>
      </trkpt>
      <trkpt lat="43.23092" lon="6.25236">
        <ele>117</ele>
        <time>2022-07-13T22:05:30Z</time>
      </trkpt>
      <trkpt lat="43.23088" lon="6.25262">
        <ele>117</ele>
        <time>2022-07-13T22:05:33Z</time>
      </trkpt>
      <trkpt lat="43.23068" lon="6.2547">
        <ele>119</ele>
        <time>2022-07-13T22:06:00Z</time>
      </trkpt>
      <trkpt lat="43.23067" lon="6.25494">
        <ele>119</ele>
        <time>2022-07-13T22:06:03Z</time>
      </trkpt>
      <trkpt lat="43.23068" lon="6.25519">
        <ele>118</ele>
        <time>2022-07-13T22:06:07Z</time>
      </trkpt>
      <trkpt lat="43.23072" lon="6.25544">
        <ele>118</ele>
        <time>2022-07-13T22:06:10Z</time>
      </trkpt>
      <trkpt lat="43.23114" lon="6.2576">
        <ele>121</ele>
        <time>2022-07-13T22:06:39Z</time>
      </trkpt>
      <trkpt lat="43.23132" lon="6.25839">
        <ele>122</ele>
        <time>2022-07-13T22:06:50Z</time>
      </trkpt>
      <trkpt lat="43.23136" lon="6.25866">
        <ele>122</ele>
        <time>2022-07-13T22:06:53Z</time>
      </trkpt>
      <trkpt lat="43.23143" lon="6.25938">
        <ele>122</ele>
        <time>2022-07-13T22:07:03Z</time>
      </trkpt>
      <trkpt lat="43.23148" lon="6.25961">
        <ele>122</ele>
        <time>2022-07-13T22:07:06Z</time>
      </trkpt>
      <trkpt lat="43.23174" lon="6.26031">
        <ele>122</ele>
        <time>2022-07-13T22:07:16Z</time>
      </trkpt>
      <trkpt lat="43.23202" lon="6.26122">
        <ele>121</ele>
        <time>2022-07-13T22:07:29Z</time>
      </trkpt>
      <trkpt lat="43.23211" lon="6.26157">
        <ele>120</ele>
        <time>2022-07-13T22:07:34Z</time>
      </trkpt>
      <trkpt lat="43.23221" lon="6.26216">
        <ele>121</ele>
        <time>2022-07-13T22:07:41Z</time>
      </trkpt>
      <trkpt lat="43.23252" lon="6.2642">
        <ele>122</ele>
        <time>2022-07-13T22:08:08Z</time>
      </trkpt>
      <trkpt lat="43.23255" lon="6.2645">
        <ele>123</ele>
        <time>2022-07-13T22:08:12Z</time>
      </trkpt>
      <trkpt lat="43.23261" lon="6.26601">
        <ele>124</ele>
        <time>2022-07-13T22:08:32Z</time>
      </trkpt>
      <trkpt lat="43.23274" lon="6.26743">
        <ele>126</ele>
        <time>2022-07-13T22:08:51Z</time>
      </trkpt>
      <trkpt lat="43.23278" lon="6.26769">
        <ele>126</ele>
        <time>2022-07-13T22:08:54Z</time>
      </trkpt>
      <trkpt lat="43.23284" lon="6.26794">
        <ele>127</ele>
        <time>2022-07-13T22:08:57Z</time>
      </trkpt>
      <trkpt lat="43.23306" lon="6.26868">
        <ele>128</ele>
        <time>2022-07-13T22:09:08Z</time>
      </trkpt>
      <trkpt lat="43.23334" lon="6.26997">
        <ele>127</ele>
        <time>2022-07-13T22:09:25Z</time>
      </trkpt>
      <trkpt lat="43.23349" lon="6.27045">
        <ele>127</ele>
        <time>2022-07-13T22:09:32Z</time>
      </trkpt>
      <trkpt lat="43.23359" lon="6.27068">
        <ele>128</ele>
        <time>2022-07-13T22:09:35Z</time>
      </trkpt>
      <trkpt lat="43.23392" lon="6.27134">
        <ele>128</ele>
        <time>2022-07-13T22:09:46Z</time>
      </trkpt>
      <trkpt lat="43.23401" lon="6.27158">
        <ele>128</ele>
        <time>2022-07-13T22:09:49Z</time>
      </trkpt>
      <trkpt lat="43.23424" lon="6.27233">
        <ele>129</ele>
        <time>2022-07-13T22:10:00Z</time>
      </trkpt>
      <trkpt lat="43.23438" lon="6.27273">
        <ele>130</ele>
        <time>2022-07-13T22:10:06Z</time>
      </trkpt>
      <trkpt lat="43.23516" lon="6.27464">
        <ele>130</ele>
        <time>2022-07-13T22:10:34Z</time>
      </trkpt>
      <trkpt lat="43.23562" lon="6.27594">
        <ele>134</ele>
        <time>2022-07-13T22:10:53Z</time>
      </trkpt>
      <trkpt lat="43.23632" lon="6.27782">
        <ele>134</ele>
        <time>2022-07-13T22:11:20Z</time>
      </trkpt>
      <trkpt lat="43.23648" lon="6.27833">
        <ele>133</ele>
        <time>2022-07-13T22:11:27Z</time>
      </trkpt>
      <trkpt lat="43.23651" lon="6.2786">
        <ele>134</ele>
        <time>2022-07-13T22:11:31Z</time>
      </trkpt>
      <trkpt lat="43.23651" lon="6.27886">
        <ele>135</ele>
        <time>2022-07-13T22:11:34Z</time>
      </trkpt>
      <trkpt lat="43.23649" lon="6.27912">
        <ele>136</ele>
        <time>2022-07-13T22:11:38Z</time>
      </trkpt>
      <trkpt lat="43.23644" lon="6.27935">
        <ele>136</ele>
        <time>2022-07-13T22:11:41Z</time>
      </trkpt>
      <trkpt lat="43.23635" lon="6.27957">
        <ele>135</ele>
        <time>2022-07-13T22:11:44Z</time>
      </trkpt>
      <trkpt lat="43.23623" lon="6.27977">
        <ele>134</ele>
        <time>2022-07-13T22:11:47Z</time>
      </trkpt>
      <trkpt lat="43.23584" lon="6.28031">
        <ele>132</ele>
        <time>2022-07-13T22:11:57Z</time>
      </trkpt>
      <trkpt lat="43.23573" lon="6.2805">
        <ele>132</ele>
        <time>2022-07-13T22:12:00Z</time>
      </trkpt>
      <trkpt lat="43.23564" lon="6.2807">
        <ele>132</ele>
        <time>2022-07-13T22:12:03Z</time>
      </trkpt>
      <trkpt lat="43.23557" lon="6.28092">
        <ele>132</ele>
        <time>2022-07-13T22:12:07Z</time>
      </trkpt>
      <trkpt lat="43.23541" lon="6.28156">
        <ele>132</ele>
        <time>2022-07-13T22:12:15Z</time>
      </trkpt>
      <trkpt lat="43.23534" lon="6.28198">
        <ele>132</ele>
        <time>2022-07-13T22:12:21Z</time>
      </trkpt>
      <trkpt lat="43.23534" lon="6.28241">
        <ele>132</ele>
        <time>2022-07-13T22:12:26Z</time>
      </trkpt>
      <trkpt lat="43.23539" lon="6.28332">
        <ele>133</ele>
        <time>2022-07-13T22:12:38Z</time>
      </trkpt>
      <trkpt lat="43.23557" lon="6.28526">
        <ele>135</ele>
        <time>2022-07-13T22:13:04Z</time>
      </trkpt>
      <trkpt lat="43.23561" lon="6.28548">
        <ele>136</ele>
        <time>2022-07-13T22:13:07Z</time>
      </trkpt>
      <trkpt lat="43.2357" lon="6.28592">
        <ele>136</ele>
        <time>2022-07-13T22:13:12Z</time>
      </trkpt>
      <trkpt lat="43.23593" lon="6.28656">
        <ele>137</ele>
        <time>2022-07-13T22:13:22Z</time>
      </trkpt>
      <trkpt lat="43.23599" lon="6.28671">
        <ele>138</ele>
        <time>2022-07-13T22:13:24Z</time>
      </trkpt>
      <trkpt lat="43.23589" lon="6.28678">
        <ele>137</ele>
        <time>2022-07-13T22:13:26Z</time>
      </trkpt>
      <trkpt lat="43.2357" lon="6.28691">
        <ele>137</ele>
        <time>2022-07-13T22:13:30Z</time>
      </trkpt>
      <trkpt lat="43.2351" lon="6.28731">
        <ele>139</ele>
        <time>2022-07-13T22:13:42Z</time>
      </trkpt>
      <trkpt lat="43.23496" lon="6.28735">
        <ele>140</ele>
        <time>2022-07-13T22:13:44Z</time>
      </trkpt>
      <trkpt lat="43.23476" lon="6.2873">
        <ele>141</ele>
        <time>2022-07-13T22:13:48Z</time>
      </trkpt>
      <trkpt lat="43.23469" lon="6.28725">
        <ele>141</ele>
        <time>2022-07-13T22:13:49Z</time>
      </trkpt>
      <trkpt lat="43.2338" lon="6.28613">
        <ele>143</ele>
        <time>2022-07-13T22:14:11Z</time>
      </trkpt>
      <trkpt lat="43.2334" lon="6.28552">
        <ele>145</ele>
        <time>2022-07-13T22:14:21Z</time>
      </trkpt>
      <trkpt lat="43.23309" lon="6.285">
        <ele>143</ele>
        <time>2022-07-13T22:14:30Z</time>
      </trkpt>
      <trkpt lat="43.23296" lon="6.28486">
        <ele>143</ele>
        <time>2022-07-13T22:14:33Z</time>
      </trkpt>
      <trkpt lat="43.23283" lon="6.2849">
        <ele>143</ele>
        <time>2022-07-13T22:14:35Z</time>
      </trkpt>
      <trkpt lat="43.23246" lon="6.28518">
        <ele>146</ele>
        <time>2022-07-13T22:14:43Z</time>
      </trkpt>
      <trkpt lat="43.23212" lon="6.28547">
        <ele>146</ele>
        <time>2022-07-13T22:14:50Z</time>
      </trkpt>
      <trkpt lat="43.23202" lon="6.2856">
        <ele>145</ele>
        <time>2022-07-13T22:14:52Z</time>
      </trkpt>
      <trkpt lat="43.23185" lon="6.28588">
        <ele>145</ele>
        <time>2022-07-13T22:14:57Z</time>
      </trkpt>
      <trkpt lat="43.23152" lon="6.2865">
        <ele>150</ele>
        <time>2022-07-13T22:15:07Z</time>
      </trkpt>
      <trkpt lat="43.23111" lon="6.28721">
        <ele>154</ele>
        <time>2022-07-13T22:15:19Z</time>
      </trkpt>
      <trkpt lat="43.23085" lon="6.28757">
        <ele>153</ele>
        <time>2022-07-13T22:15:25Z</time>
      </trkpt>
      <trkpt lat="43.23056" lon="6.28775">
        <ele>154</ele>
        <time>2022-07-13T22:15:31Z</time>
      </trkpt>
      <trkpt lat="43.23007" lon="6.28792">
        <ele>151</ele>
        <time>2022-07-13T22:15:40Z</time>
      </trkpt>
      <trkpt lat="43.23001" lon="6.28789">
        <ele>150</ele>
        <time>2022-07-13T22:15:41Z</time>
      </trkpt>
      <trkpt lat="43.22996" lon="6.28783">
        <ele>150</ele>
        <time>2022-07-13T22:15:42Z</time>
      </trkpt>
      <trkpt lat="43.2298" lon="6.28757">
        <ele>152</ele>
        <time>2022-07-13T22:15:47Z</time>
      </trkpt>
      <trkpt lat="43.22971" lon="6.28746">
        <ele>154</ele>
        <time>2022-07-13T22:15:49Z</time>
      </trkpt>
      <trkpt lat="43.22961" lon="6.28746">
        <ele>157</ele>
        <time>2022-07-13T22:15:51Z</time>
      </trkpt>
      <trkpt lat="43.22949" lon="6.28755">
        <ele>158</ele>
        <time>2022-07-13T22:15:53Z</time>
      </trkpt>
      <trkpt lat="43.22924" lon="6.28788">
        <ele>158</ele>
        <time>2022-07-13T22:15:59Z</time>
      </trkpt>
      <trkpt lat="43.22918" lon="6.28793">
        <ele>158</ele>
        <time>2022-07-13T22:16:01Z</time>
      </trkpt>
      <trkpt lat="43.22889" lon="6.28801">
        <ele>161</ele>
        <time>2022-07-13T22:16:06Z</time>
      </trkpt>
      <trkpt lat="43.22859" lon="6.2883">
        <ele>164</ele>
        <time>2022-07-13T22:16:12Z</time>
      </trkpt>
      <trkpt lat="43.22844" lon="6.28862">
        <ele>166</ele>
        <time>2022-07-13T22:16:17Z</time>
      </trkpt>
      <trkpt lat="43.22811" lon="6.28967">
        <ele>172</ele>
        <time>2022-07-13T22:16:32Z</time>
      </trkpt>
      <trkpt lat="43.22806" lon="6.29004">
        <ele>173</ele>
        <time>2022-07-13T22:16:37Z</time>
      </trkpt>
      <trkpt lat="43.22803" lon="6.29046">
        <ele>171</ele>
        <time>2022-07-13T22:16:42Z</time>
      </trkpt>
      <trkpt lat="43.22796" lon="6.29075">
        <ele>172</ele>
        <time>2022-07-13T22:16:46Z</time>
      </trkpt>
      <trkpt lat="43.22771" lon="6.29127">
        <ele>175</ele>
        <time>2022-07-13T22:16:54Z</time>
      </trkpt>
      <trkpt lat="43.22749" lon="6.29157">
        <ele>175</ele>
        <time>2022-07-13T22:17:00Z</time>
      </trkpt>
      <trkpt lat="43.22726" lon="6.29183">
        <ele>178</ele>
        <time>2022-07-13T22:17:05Z</time>
      </trkpt>
      <trkpt lat="43.22677" lon="6.29231">
        <ele>180</ele>
        <time>2022-07-13T22:17:16Z</time>
      </trkpt>
      <trkpt lat="43.22662" lon="6.29237">
        <ele>182</ele>
        <time>2022-07-13T22:17:19Z</time>
      </trkpt>
      <trkpt lat="43.22638" lon="6.29231">
        <ele>188</ele>
        <time>2022-07-13T22:17:23Z</time>
      </trkpt>
      <trkpt lat="43.22626" lon="6.29236">
        <ele>189</ele>
        <time>2022-07-13T22:17:25Z</time>
      </trkpt>
      <trkpt lat="43.22614" lon="6.2925">
        <ele>188</ele>
        <time>2022-07-13T22:17:28Z</time>
      </trkpt>
      <trkpt lat="43.22597" lon="6.29277">
        <ele>189</ele>
        <time>2022-07-13T22:17:33Z</time>
      </trkpt>
      <trkpt lat="43.22581" lon="6.29295">
        <ele>191</ele>
        <time>2022-07-13T22:17:36Z</time>
      </trkpt>
      <trkpt lat="43.22563" lon="6.29303">
        <ele>195</ele>
        <time>2022-07-13T22:17:40Z</time>
      </trkpt>
      <trkpt lat="43.22556" lon="6.29319">
        <ele>196</ele>
        <time>2022-07-13T22:17:42Z</time>
      </trkpt>
      <trkpt lat="43.2256" lon="6.2934">
        <ele>195</ele>
        <time>2022-07-13T22:17:45Z</time>
      </trkpt>
      <trkpt lat="43.22592" lon="6.29394">
        <ele>192</ele>
        <time>2022-07-13T22:17:54Z</time>
      </trkpt>
      <trkpt lat="43.22602" lon="6.29415">
        <ele>191</ele>
        <time>2022-07-13T22:17:57Z</time>
      </trkpt>
      <trkpt lat="43.22601" lon="6.29434">
        <ele>191</ele>
        <time>2022-07-13T22:18:00Z</time>
      </trkpt>
      <trkpt lat="43.2257" lon="6.2948">
        <ele>200</ele>
        <time>2022-07-13T22:18:08Z</time>
      </trkpt>
      <trkpt lat="43.22565" lon="6.29495">
        <ele>201</ele>
        <time>2022-07-13T22:18:10Z</time>
      </trkpt>
      <trkpt lat="43.22567" lon="6.29511">
        <ele>200</ele>
        <time>2022-07-13T22:18:12Z</time>
      </trkpt>
      <trkpt lat="43.22563" lon="6.29533">
        <ele>199</ele>
        <time>2022-07-13T22:18:15Z</time>
      </trkpt>
      <trkpt lat="43.22552" lon="6.29545">
        <ele>202</ele>
        <time>2022-07-13T22:18:18Z</time>
      </trkpt>
      <trkpt lat="43.22536" lon="6.29549">
        <ele>206</ele>
        <time>2022-07-13T22:18:21Z</time>
      </trkpt>
      <trkpt lat="43.22524" lon="6.29556">
        <ele>209</ele>
        <time>2022-07-13T22:18:23Z</time>
      </trkpt>
      <trkpt lat="43.22519" lon="6.29567">
        <ele>210</ele>
        <time>2022-07-13T22:18:25Z</time>
      </trkpt>
      <trkpt lat="43.22518" lon="6.29583">
        <ele>209</ele>
        <time>2022-07-13T22:18:27Z</time>
      </trkpt>
      <trkpt lat="43.22537" lon="6.2962">
        <ele>205</ele>
        <time>2022-07-13T22:18:32Z</time>
      </trkpt>
      <trkpt lat="43.22547" lon="6.29664">
        <ele>203</ele>
        <time>2022-07-13T22:18:38Z</time>
      </trkpt>
      <trkpt lat="43.22544" lon="6.29687">
        <ele>202</ele>
        <time>2022-07-13T22:18:41Z</time>
      </trkpt>
      <trkpt lat="43.22534" lon="6.29705">
        <ele>202</ele>
        <time>2022-07-13T22:18:44Z</time>
      </trkpt>
      <trkpt lat="43.22514" lon="6.29711">
        <ele>204</ele>
        <time>2022-07-13T22:18:48Z</time>
      </trkpt>
      <trkpt lat="43.22495" lon="6.29708">
        <ele>206</ele>
        <time>2022-07-13T22:18:51Z</time>
      </trkpt>
      <trkpt lat="43.22455" lon="6.29713">
        <ele>206</ele>
        <time>2022-07-13T22:18:59Z</time>
      </trkpt>
      <trkpt lat="43.22433" lon="6.29699">
        <ele>209</ele>
        <time>2022-07-13T22:19:03Z</time>
      </trkpt>
      <trkpt lat="43.22383" lon="6.29652">
        <ele>214</ele>
        <time>2022-07-13T22:19:14Z</time>
      </trkpt>
      <trkpt lat="43.22364" lon="6.29631">
        <ele>215</ele>
        <time>2022-07-13T22:19:18Z</time>
      </trkpt>
      <trkpt lat="43.22345" lon="6.29597">
        <ele>220</ele>
        <time>2022-07-13T22:19:24Z</time>
      </trkpt>
      <trkpt lat="43.22307" lon="6.29554">
        <ele>229</ele>
        <time>2022-07-13T22:19:32Z</time>
      </trkpt>
      <trkpt lat="43.2227" lon="6.29529">
        <ele>234</ele>
        <time>2022-07-13T22:19:40Z</time>
      </trkpt>
      <trkpt lat="43.2225" lon="6.29522">
        <ele>235</ele>
        <time>2022-07-13T22:19:43Z</time>
      </trkpt>
      <trkpt lat="43.2223" lon="6.29522">
        <ele>238</ele>
        <time>2022-07-13T22:19:47Z</time>
      </trkpt>
      <trkpt lat="43.22222" lon="6.29532">
        <ele>238</ele>
        <time>2022-07-13T22:19:49Z</time>
      </trkpt>
      <trkpt lat="43.22218" lon="6.29551">
        <ele>236</ele>
        <time>2022-07-13T22:19:51Z</time>
      </trkpt>
      <trkpt lat="43.22216" lon="6.29577">
        <ele>231</ele>
        <time>2022-07-13T22:19:55Z</time>
      </trkpt>
      <trkpt lat="43.22208" lon="6.29598">
        <ele>229</ele>
        <time>2022-07-13T22:19:58Z</time>
      </trkpt>
      <trkpt lat="43.22196" lon="6.29616">
        <ele>227</ele>
        <time>2022-07-13T22:20:01Z</time>
      </trkpt>
      <trkpt lat="43.22178" lon="6.29619">
        <ele>228</ele>
        <time>2022-07-13T22:20:04Z</time>
      </trkpt>
      <trkpt lat="43.22153" lon="6.29617">
        <ele>231</ele>
        <time>2022-07-13T22:20:09Z</time>
      </trkpt>
      <trkpt lat="43.22122" lon="6.29606">
        <ele>235</ele>
        <time>2022-07-13T22:20:14Z</time>
      </trkpt>
      <trkpt lat="43.2211" lon="6.29591">
        <ele>239</ele>
        <time>2022-07-13T22:20:17Z</time>
      </trkpt>
      <trkpt lat="43.22097" lon="6.29572">
        <ele>243</ele>
        <time>2022-07-13T22:20:21Z</time>
      </trkpt>
      <trkpt lat="43.22081" lon="6.29568">
        <ele>244</ele>
        <time>2022-07-13T22:20:24Z</time>
      </trkpt>
      <trkpt lat="43.22072" lon="6.29577">
        <ele>243</ele>
        <time>2022-07-13T22:20:26Z</time>
      </trkpt>
      <trkpt lat="43.22063" lon="6.29608">
        <ele>238</ele>
        <time>2022-07-13T22:20:30Z</time>
      </trkpt>
      <trkpt lat="43.22054" lon="6.29614">
        <ele>237</ele>
        <time>2022-07-13T22:20:32Z</time>
      </trkpt>
      <trkpt lat="43.22028" lon="6.29607">
        <ele>240</ele>
        <time>2022-07-13T22:20:36Z</time>
      </trkpt>
      <trkpt lat="43.21948" lon="6.29561">
        <ele>248</ele>
        <time>2022-07-13T22:20:52Z</time>
      </trkpt>
      <trkpt lat="43.21934" lon="6.29542">
        <ele>250</ele>
        <time>2022-07-13T22:20:55Z</time>
      </trkpt>
      <trkpt lat="43.21925" lon="6.29523">
        <ele>253</ele>
        <time>2022-07-13T22:20:58Z</time>
      </trkpt>
      <trkpt lat="43.21923" lon="6.29501">
        <ele>256</ele>
        <time>2022-07-13T22:21:01Z</time>
      </trkpt>
      <trkpt lat="43.21918" lon="6.29491">
        <ele>257</ele>
        <time>2022-07-13T22:21:03Z</time>
      </trkpt>
      <trkpt lat="43.21909" lon="6.29489">
        <ele>258</ele>
        <time>2022-07-13T22:21:04Z</time>
      </trkpt>
      <trkpt lat="43.21887" lon="6.29515">
        <ele>256</ele>
        <time>2022-07-13T22:21:10Z</time>
      </trkpt>
      <trkpt lat="43.21867" lon="6.29525">
        <ele>256</ele>
        <time>2022-07-13T22:21:13Z</time>
      </trkpt>
      <trkpt lat="43.21846" lon="6.29527">
        <ele>257</ele>
        <time>2022-07-13T22:21:17Z</time>
      </trkpt>
      <trkpt lat="43.21825" lon="6.29516">
        <ele>261</ele>
        <time>2022-07-13T22:21:21Z</time>
      </trkpt>
      <trkpt lat="43.2181" lon="6.2952">
        <ele>264</ele>
        <time>2022-07-13T22:21:24Z</time>
      </trkpt>
      <trkpt lat="43.21795" lon="6.29534">
        <ele>266</ele>
        <time>2022-07-13T22:21:27Z</time>
      </trkpt>
      <trkpt lat="43.21779" lon="6.29571">
        <ele>265</ele>
        <time>2022-07-13T22:21:33Z</time>
      </trkpt>
      <trkpt lat="43.21766" lon="6.29578">
        <ele>267</ele>
        <time>2022-07-13T22:21:35Z</time>
      </trkpt>
      <trkpt lat="43.21753" lon="6.29577">
        <ele>269</ele>
        <time>2022-07-13T22:21:37Z</time>
      </trkpt>
      <trkpt lat="43.21726" lon="6.2956">
        <ele>275</ele>
        <time>2022-07-13T22:21:43Z</time>
      </trkpt>
      <trkpt lat="43.21718" lon="6.29563">
        <ele>276</ele>
        <time>2022-07-13T22:21:44Z</time>
      </trkpt>
      <trkpt lat="43.21709" lon="6.29575">
        <ele>276</ele>
        <time>2022-07-13T22:21:46Z</time>
      </trkpt>
      <trkpt lat="43.21709" lon="6.29592">
        <ele>276</ele>
        <time>2022-07-13T22:21:49Z</time>
      </trkpt>
      <trkpt lat="43.21713" lon="6.29599">
        <ele>276</ele>
        <time>2022-07-13T22:21:50Z</time>
      </trkpt>
      <trkpt lat="43.21743" lon="6.2963">
        <ele>275</ele>
        <time>2022-07-13T22:21:56Z</time>
      </trkpt>
      <trkpt lat="43.21776" lon="6.29669">
        <ele>271</ele>
        <time>2022-07-13T22:22:04Z</time>
      </trkpt>
      <trkpt lat="43.21784" lon="6.29688">
        <ele>273</ele>
        <time>2022-07-13T22:22:07Z</time>
      </trkpt>
      <trkpt lat="43.21785" lon="6.29712">
        <ele>277</ele>
        <time>2022-07-13T22:22:10Z</time>
      </trkpt>
      <trkpt lat="43.21791" lon="6.2973">
        <ele>279</ele>
        <time>2022-07-13T22:22:13Z</time>
      </trkpt>
      <trkpt lat="43.21853" lon="6.2978">
        <ele>273</ele>
        <time>2022-07-13T22:22:25Z</time>
      </trkpt>
      <trkpt lat="43.21858" lon="6.29797">
        <ele>273</ele>
        <time>2022-07-13T22:22:28Z</time>
      </trkpt>
      <trkpt lat="43.21856" lon="6.29813">
        <ele>276</ele>
        <time>2022-07-13T22:22:30Z</time>
      </trkpt>
      <trkpt lat="43.21846" lon="6.29827">
        <ele>280</ele>
        <time>2022-07-13T22:22:32Z</time>
      </trkpt>
      <trkpt lat="43.21838" lon="6.29846">
        <ele>284</ele>
        <time>2022-07-13T22:22:35Z</time>
      </trkpt>
      <trkpt lat="43.21838" lon="6.29864">
        <ele>284</ele>
        <time>2022-07-13T22:22:38Z</time>
      </trkpt>
      <trkpt lat="43.21845" lon="6.29903">
        <ele>283</ele>
        <time>2022-07-13T22:22:43Z</time>
      </trkpt>
      <trkpt lat="43.21844" lon="6.2993">
        <ele>283</ele>
        <time>2022-07-13T22:22:46Z</time>
      </trkpt>
      <trkpt lat="43.21838" lon="6.29978">
        <ele>283</ele>
        <time>2022-07-13T22:22:53Z</time>
      </trkpt>
      <trkpt lat="43.21822" lon="6.3001">
        <ele>281</ele>
        <time>2022-07-13T22:22:58Z</time>
      </trkpt>
      <trkpt lat="43.21803" lon="6.30023">
        <ele>278</ele>
        <time>2022-07-13T22:23:02Z</time>
      </trkpt>
      <trkpt lat="43.2179" lon="6.30021">
        <ele>279</ele>
        <time>2022-07-13T22:23:04Z</time>
      </trkpt>
      <trkpt lat="43.21727" lon="6.29999">
        <ele>287</ele>
        <time>2022-07-13T22:23:15Z</time>
      </trkpt>
      <trkpt lat="43.21671" lon="6.29986">
        <ele>287</ele>
        <time>2022-07-13T22:23:26Z</time>
      </trkpt>
      <trkpt lat="43.2166" lon="6.2998">
        <ele>286</ele>
        <time>2022-07-13T22:23:28Z</time>
      </trkpt>
      <trkpt lat="43.21651" lon="6.29969">
        <ele>286</ele>
        <time>2022-07-13T22:23:30Z</time>
      </trkpt>
      <trkpt lat="43.21642" lon="6.29949">
        <ele>288</ele>
        <time>2022-07-13T22:23:33Z</time>
      </trkpt>
      <trkpt lat="43.21635" lon="6.29922">
        <ele>291</ele>
        <time>2022-07-13T22:23:37Z</time>
      </trkpt>
      <trkpt lat="43.21625" lon="6.29867">
        <ele>297</ele>
        <time>2022-07-13T22:23:44Z</time>
      </trkpt>
      <trkpt lat="43.21615" lon="6.29838">
        <ele>299</ele>
        <time>2022-07-13T22:23:48Z</time>
      </trkpt>
      <trkpt lat="43.21598" lon="6.29799">
        <ele>302</ele>
        <time>2022-07-13T22:23:54Z</time>
      </trkpt>
      <trkpt lat="43.21589" lon="6.29789">
        <ele>303</ele>
        <time>2022-07-13T22:23:56Z</time>
      </trkpt>
      <trkpt lat="43.2155" lon="6.29778">
        <ele>307</ele>
        <time>2022-07-13T22:24:03Z</time>
      </trkpt>
      <trkpt lat="43.21512" lon="6.29775">
        <ele>310</ele>
        <time>2022-07-13T22:24:10Z</time>
      </trkpt>
      <trkpt lat="43.21479" lon="6.29777">
        <ele>311</ele>
        <time>2022-07-13T22:24:16Z</time>
      </trkpt>
      <trkpt lat="43.21455" lon="6.29793">
        <ele>307</ele>
        <time>2022-07-13T22:24:20Z</time>
      </trkpt>
      <trkpt lat="43.21434" lon="6.29796">
        <ele>308</ele>
        <time>2022-07-13T22:24:24Z</time>
      </trkpt>
      <trkpt lat="43.21398" lon="6.29788">
        <ele>311</ele>
        <time>2022-07-13T22:24:31Z</time>
      </trkpt>
      <trkpt lat="43.21362" lon="6.29786">
        <ele>308</ele>
        <time>2022-07-13T22:24:37Z</time>
      </trkpt>
      <trkpt lat="43.21352" lon="6.29777">
        <ele>309</ele>
        <time>2022-07-13T22:24:39Z</time>
      </trkpt>
      <trkpt lat="43.21347" lon="6.2976">
        <ele>313</ele>
        <time>2022-07-13T22:24:42Z</time>
      </trkpt>
      <trkpt lat="43.21348" lon="6.29741">
        <ele>316</ele>
        <time>2022-07-13T22:24:44Z</time>
      </trkpt>
      <trkpt lat="43.21346" lon="6.29723">
        <ele>319</ele>
        <time>2022-07-13T22:24:46Z</time>
      </trkpt>
      <trkpt lat="43.21297" lon="6.2954">
        <ele>327</ele>
        <time>2022-07-13T22:25:12Z</time>
      </trkpt>
      <trkpt lat="43.21301" lon="6.29497">
        <ele>329</ele>
        <time>2022-07-13T22:25:17Z</time>
      </trkpt>
      <trkpt lat="43.21317" lon="6.29469">
        <ele>332</ele>
        <time>2022-07-13T22:25:22Z</time>
      </trkpt>
      <trkpt lat="43.21335" lon="6.29432">
        <ele>333</ele>
        <time>2022-07-13T22:25:28Z</time>
      </trkpt>
      <trkpt lat="43.2134" lon="6.29404">
        <ele>335</ele>
        <time>2022-07-13T22:25:31Z</time>
      </trkpt>
      <trkpt lat="43.21335" lon="6.29383">
        <ele>339</ele>
        <time>2022-07-13T22:25:34Z</time>
      </trkpt>
      <trkpt lat="43.21315" lon="6.29382">
        <ele>339</ele>
        <time>2022-07-13T22:25:38Z</time>
      </trkpt>
      <trkpt lat="43.21269" lon="6.29387">
        <ele>340</ele>
        <time>2022-07-13T22:25:46Z</time>
      </trkpt>
      <trkpt lat="43.2121" lon="6.29402">
        <ele>336</ele>
        <time>2022-07-13T22:25:57Z</time>
      </trkpt>
      <trkpt lat="43.21189" lon="6.29402">
        <ele>336</ele>
        <time>2022-07-13T22:26:01Z</time>
      </trkpt>
      <trkpt lat="43.21181" lon="6.29395">
        <ele>337</ele>
        <time>2022-07-13T22:26:02Z</time>
      </trkpt>
      <trkpt lat="43.21145" lon="6.29347">
        <ele>347</ele>
        <time>2022-07-13T22:26:11Z</time>
      </trkpt>
      <trkpt lat="43.21124" lon="6.29342">
        <ele>349</ele>
        <time>2022-07-13T22:26:15Z</time>
      </trkpt>
      <trkpt lat="43.21104" lon="6.29348">
        <ele>349</ele>
        <time>2022-07-13T22:26:19Z</time>
      </trkpt>
      <trkpt lat="43.21092" lon="6.2936">
        <ele>348</ele>
        <time>2022-07-13T22:26:21Z</time>
      </trkpt>
      <trkpt lat="43.21066" lon="6.29412">
        <ele>342</ele>
        <time>2022-07-13T22:26:29Z</time>
      </trkpt>
      <trkpt lat="43.21056" lon="6.29422">
        <ele>342</ele>
        <time>2022-07-13T22:26:32Z</time>
      </trkpt>
      <trkpt lat="43.20992" lon="6.29432">
        <ele>350</ele>
        <time>2022-07-13T22:26:43Z</time>
      </trkpt>
      <trkpt lat="43.20974" lon="6.29424">
        <ele>352</ele>
        <time>2022-07-13T22:26:46Z</time>
      </trkpt>
      <trkpt lat="43.20959" lon="6.29408">
        <ele>355</ele>
        <time>2022-07-13T22:26:50Z</time>
      </trkpt>
      <trkpt lat="43.20935" lon="6.29401">
        <ele>356</ele>
        <time>2022-07-13T22:26:54Z</time>
      </trkpt>
      <trkpt lat="43.20913" lon="6.29402">
        <ele>356</ele>
        <time>2022-07-13T22:26:58Z</time>
      </trkpt>
      <trkpt lat="43.20886" lon="6.29423">
        <ele>354</ele>
        <time>2022-07-13T22:27:04Z</time>
      </trkpt>
      <trkpt lat="43.2082" lon="6.29423">
        <ele>360</ele>
        <time>2022-07-13T22:27:15Z</time>
      </trkpt>
      <trkpt lat="43.20809" lon="6.29426">
        <ele>362</ele>
        <time>2022-07-13T22:27:17Z</time>
      </trkpt>
      <trkpt lat="43.208" lon="6.29431">
        <ele>363</ele>
        <time>2022-07-13T22:27:19Z</time>
      </trkpt>
      <trkpt lat="43.20797" lon="6.29441">
        <ele>362</ele>
        <time>2022-07-13T22:27:21Z</time>
      </trkpt>
      <trkpt lat="43.20802" lon="6.29482">
        <ele>357</ele>
        <time>2022-07-13T22:27:26Z</time>
      </trkpt>
      <trkpt lat="43.208" lon="6.29509">
        <ele>355</ele>
        <time>2022-07-13T22:27:29Z</time>
      </trkpt>
      <trkpt lat="43.20794" lon="6.29523">
        <ele>354</ele>
        <time>2022-07-13T22:27:32Z</time>
      </trkpt>
      <trkpt lat="43.20784" lon="6.29533">
        <ele>355</ele>
        <time>2022-07-13T22:27:34Z</time>
      </trkpt>
      <trkpt lat="43.2076" lon="6.29538">
        <ele>359</ele>
        <time>2022-07-13T22:27:38Z</time>
      </trkpt>
      <trkpt lat="43.20732" lon="6.29534">
        <ele>364</ele>
        <time>2022-07-13T22:27:43Z</time>
      </trkpt>
      <trkpt lat="43.20665" lon="6.29488">
        <ele>376</ele>
        <time>2022-07-13T22:27:56Z</time>
      </trkpt>
      <trkpt lat="43.20646" lon="6.29486">
        <ele>378</ele>
        <time>2022-07-13T22:28:00Z</time>
      </trkpt>
      <trkpt lat="43.20631" lon="6.29496">
        <ele>379</ele>
        <time>2022-07-13T22:28:03Z</time>
      </trkpt>
      <trkpt lat="43.20619" lon="6.29537">
        <ele>378</ele>
        <time>2022-07-13T22:28:08Z</time>
      </trkpt>
      <trkpt lat="43.20601" lon="6.29554">
        <ele>381</ele>
        <time>2022-07-13T22:28:12Z</time>
      </trkpt>
      <trkpt lat="43.2059" lon="6.2956">
        <ele>383</ele>
        <time>2022-07-13T22:28:14Z</time>
      </trkpt>
      <trkpt lat="43.20582" lon="6.29574">
        <ele>385</ele>
        <time>2022-07-13T22:28:17Z</time>
      </trkpt>
      <trkpt lat="43.20583" lon="6.29591">
        <ele>385</ele>
        <time>2022-07-13T22:28:19Z</time>
      </trkpt>
      <trkpt lat="43.20591" lon="6.29615">
        <ele>386</ele>
        <time>2022-07-13T22:28:22Z</time>
      </trkpt>
      <trkpt lat="43.20608" lon="6.29647">
        <ele>385</ele>
        <time>2022-07-13T22:28:28Z</time>
      </trkpt>
      <trkpt lat="43.20653" lon="6.2968">
        <ele>379</ele>
        <time>2022-07-13T22:28:37Z</time>
      </trkpt>
      <trkpt lat="43.20668" lon="6.29702">
        <ele>381</ele>
        <time>2022-07-13T22:28:41Z</time>
      </trkpt>
      <trkpt lat="43.20676" lon="6.29725">
        <ele>385</ele>
        <time>2022-07-13T22:28:44Z</time>
      </trkpt>
      <trkpt lat="43.20686" lon="6.2974">
        <ele>386</ele>
        <time>2022-07-13T22:28:46Z</time>
      </trkpt>
      <trkpt lat="43.20723" lon="6.29762">
        <ele>379</ele>
        <time>2022-07-13T22:28:54Z</time>
      </trkpt>
      <trkpt lat="43.20731" lon="6.29778">
        <ele>378</ele>
        <time>2022-07-13T22:28:56Z</time>
      </trkpt>
      <trkpt lat="43.20735" lon="6.298">
        <ele>379</ele>
        <time>2022-07-13T22:28:59Z</time>
      </trkpt>
      <trkpt lat="43.20723" lon="6.29854">
        <ele>383</ele>
        <time>2022-07-13T22:29:06Z</time>
      </trkpt>
      <trkpt lat="43.20714" lon="6.29888">
        <ele>381</ele>
        <time>2022-07-13T22:29:11Z</time>
      </trkpt>
      <trkpt lat="43.20705" lon="6.29907">
        <ele>381</ele>
        <time>2022-07-13T22:29:14Z</time>
      </trkpt>
      <trkpt lat="43.20684" lon="6.2992">
        <ele>386</ele>
        <time>2022-07-13T22:29:18Z</time>
      </trkpt>
      <trkpt lat="43.20634" lon="6.29936">
        <ele>388</ele>
        <time>2022-07-13T22:29:27Z</time>
      </trkpt>
      <trkpt lat="43.20611" lon="6.29934">
        <ele>390</ele>
        <time>2022-07-13T22:29:31Z</time>
      </trkpt>
      <trkpt lat="43.20569" lon="6.29907">
        <ele>401</ele>
        <time>2022-07-13T22:29:40Z</time>
      </trkpt>
      <trkpt lat="43.2056" lon="6.29908">
        <ele>402</ele>
        <time>2022-07-13T22:29:41Z</time>
      </trkpt>
      <trkpt lat="43.20536" lon="6.29936">
        <ele>400</ele>
        <time>2022-07-13T22:29:47Z</time>
      </trkpt>
      <trkpt lat="43.20527" lon="6.29941">
        <ele>401</ele>
        <time>2022-07-13T22:29:49Z</time>
      </trkpt>
      <trkpt lat="43.205" lon="6.29943">
        <ele>406</ele>
        <time>2022-07-13T22:29:53Z</time>
      </trkpt>
      <trkpt lat="43.20478" lon="6.29955">
        <ele>413</ele>
        <time>2022-07-13T22:29:58Z</time>
      </trkpt>
      <trkpt lat="43.20474" lon="6.29976">
        <ele>413</ele>
        <time>2022-07-13T22:30:00Z</time>
      </trkpt>
      <trkpt lat="43.2048" lon="6.29997">
        <ele>409</ele>
        <time>2022-07-13T22:30:03Z</time>
      </trkpt>
      <trkpt lat="43.20491" lon="6.30029">
        <ele>407</ele>
        <time>2022-07-13T22:30:08Z</time>
      </trkpt>
      <trkpt lat="43.2051" lon="6.30066">
        <ele>402</ele>
        <time>2022-07-13T22:30:14Z</time>
      </trkpt>
      <trkpt lat="43.20509" lon="6.3009">
        <ele>405</ele>
        <time>2022-07-13T22:30:17Z</time>
      </trkpt>
      <trkpt lat="43.20504" lon="6.30118">
        <ele>409</ele>
        <time>2022-07-13T22:30:21Z</time>
      </trkpt>
      <trkpt lat="43.20508" lon="6.30134">
        <ele>408</ele>
        <time>2022-07-13T22:30:23Z</time>
      </trkpt>
      <trkpt lat="43.20529" lon="6.30162">
        <ele>402</ele>
        <time>2022-07-13T22:30:28Z</time>
      </trkpt>
      <trkpt lat="43.20534" lon="6.30183">
        <ele>401</ele>
        <time>2022-07-13T22:30:31Z</time>
      </trkpt>
      <trkpt lat="43.20529" lon="6.3021">
        <ele>403</ele>
        <time>2022-07-13T22:30:35Z</time>
      </trkpt>
      <trkpt lat="43.20518" lon="6.30238">
        <ele>407</ele>
        <time>2022-07-13T22:30:39Z</time>
      </trkpt>
      <trkpt lat="43.20503" lon="6.30263">
        <ele>410</ele>
        <time>2022-07-13T22:30:43Z</time>
      </trkpt>
      <trkpt lat="43.20488" lon="6.30281">
        <ele>412</ele>
        <time>2022-07-13T22:30:46Z</time>
      </trkpt>
      <trkpt lat="43.20472" lon="6.30315">
        <ele>412</ele>
        <time>2022-07-13T22:30:52Z</time>
      </trkpt>
      <trkpt lat="43.20462" lon="6.30329">
        <ele>413</ele>
        <time>2022-07-13T22:30:54Z</time>
      </trkpt>
      <trkpt lat="43.2042" lon="6.30426">
        <ele>413</ele>
        <time>2022-07-13T22:31:09Z</time>
      </trkpt>
      <trkpt lat="43.20416" lon="6.3044">
        <ele>414</ele>
        <time>2022-07-13T22:31:11Z</time>
      </trkpt>
      <trkpt lat="43.20386" lon="6.30488">
        <ele>411</ele>
        <time>2022-07-13T22:31:19Z</time>
      </trkpt>
      <trkpt lat="43.20378" lon="6.30519">
        <ele>415</ele>
        <time>2022-07-13T22:31:23Z</time>
      </trkpt>
      <trkpt lat="43.20364" lon="6.30537">
        <ele>417</ele>
        <time>2022-07-13T22:31:27Z</time>
      </trkpt>
      <trkpt lat="43.20316" lon="6.30567">
        <ele>416</ele>
        <time>2022-07-13T22:31:36Z</time>
      </trkpt>
      <trkpt lat="43.20306" lon="6.3057">
        <ele>414</ele>
        <time>2022-07-13T22:31:38Z</time>
      </trkpt>
      <trkpt lat="43.20273" lon="6.30571">
        <ele>404</ele>
        <time>2022-07-13T22:31:44Z</time>
      </trkpt>
      <trkpt lat="43.20259" lon="6.30575">
        <ele>401</ele>
        <time>2022-07-13T22:31:46Z</time>
      </trkpt>
      <trkpt lat="43.20253" lon="6.30589">
        <ele>401</ele>
        <time>2022-07-13T22:31:48Z</time>
      </trkpt>
      <trkpt lat="43.20255" lon="6.30612">
        <ele>401</ele>
        <time>2022-07-13T22:31:51Z</time>
      </trkpt>
      <trkpt lat="43.20285" lon="6.30689">
        <ele>412</ele>
        <time>2022-07-13T22:32:03Z</time>
      </trkpt>
      <trkpt lat="43.20287" lon="6.30719">
        <ele>412</ele>
        <time>2022-07-13T22:32:07Z</time>
      </trkpt>
      <trkpt lat="43.20285" lon="6.30782">
        <ele>407</ele>
        <time>2022-07-13T22:32:15Z</time>
      </trkpt>
      <trkpt lat="43.2029" lon="6.3084">
        <ele>407</ele>
        <time>2022-07-13T22:32:22Z</time>
      </trkpt>
      <trkpt lat="43.20302" lon="6.30882">
        <ele>410</ele>
        <time>2022-07-13T22:32:28Z</time>
      </trkpt>
      <trkpt lat="43.20314" lon="6.30915">
        <ele>413</ele>
        <time>2022-07-13T22:32:33Z</time>
      </trkpt>
      <trkpt lat="43.20316" lon="6.30947">
        <ele>414</ele>
        <time>2022-07-13T22:32:37Z</time>
      </trkpt>
      <trkpt lat="43.20306" lon="6.31009">
        <ele>411</ele>
        <time>2022-07-13T22:32:45Z</time>
      </trkpt>
      <trkpt lat="43.20275" lon="6.31061">
        <ele>405</ele>
        <time>2022-07-13T22:32:54Z</time>
      </trkpt>
      <trkpt lat="43.20256" lon="6.31118">
        <ele>409</ele>
        <time>2022-07-13T22:33:02Z</time>
      </trkpt>
      <trkpt lat="43.20224" lon="6.31161">
        <ele>413</ele>
        <time>2022-07-13T22:33:10Z</time>
      </trkpt>
      <trkpt lat="43.20214" lon="6.31163">
        <ele>412</ele>
        <time>2022-07-13T22:33:12Z</time>
      </trkpt>
      <trkpt lat="43.20173" lon="6.31153">
        <ele>403</ele>
        <time>2022-07-13T22:33:19Z</time>
      </trkpt>
      <trkpt lat="43.20157" lon="6.31158">
        <ele>404</ele>
        <time>2022-07-13T22:33:22Z</time>
      </trkpt>
      <trkpt lat="43.20145" lon="6.31155">
        <ele>404</ele>
        <time>2022-07-13T22:33:25Z</time>
      </trkpt>
      <trkpt lat="43.20124" lon="6.31142">
        <ele>399</ele>
        <time>2022-07-13T22:33:29Z</time>
      </trkpt>
      <trkpt lat="43.19971" lon="6.31124">
        <ele>388</ele>
        <time>2022-07-13T22:33:56Z</time>
      </trkpt>
      <trkpt lat="43.19939" lon="6.31132">
        <ele>386</ele>
        <time>2022-07-13T22:34:02Z</time>
      </trkpt>
      <trkpt lat="43.19905" lon="6.31161">
        <ele>385</ele>
        <time>2022-07-13T22:34:09Z</time>
      </trkpt>
      <trkpt lat="43.19893" lon="6.31179">
        <ele>383</ele>
        <time>2022-07-13T22:34:12Z</time>
      </trkpt>
      <trkpt lat="43.19887" lon="6.31194">
        <ele>381</ele>
        <time>2022-07-13T22:34:14Z</time>
      </trkpt>
      <trkpt lat="43.19888" lon="6.31206">
        <ele>382</ele>
        <time>2022-07-13T22:34:16Z</time>
      </trkpt>
      <trkpt lat="43.19902" lon="6.31248">
        <ele>390</ele>
        <time>2022-07-13T22:34:22Z</time>
      </trkpt>
      <trkpt lat="43.19914" lon="6.31325">
        <ele>393</ele>
        <time>2022-07-13T22:34:32Z</time>
      </trkpt>
      <trkpt lat="43.19914" lon="6.31356">
        <ele>394</ele>
        <time>2022-07-13T22:34:36Z</time>
      </trkpt>
      <trkpt lat="43.19881" lon="6.31487">
        <ele>409</ele>
        <time>2022-07-13T22:34:54Z</time>
      </trkpt>
      <trkpt lat="43.19876" lon="6.31494">
        <ele>410</ele>
        <time>2022-07-13T22:34:55Z</time>
      </trkpt>
      <trkpt lat="43.19869" lon="6.31495">
        <ele>410</ele>
        <time>2022-07-13T22:34:57Z</time>
      </trkpt>
      <trkpt lat="43.19863" lon="6.31489">
        <ele>409</ele>
        <time>2022-07-13T22:34:58Z</time>
      </trkpt>
      <trkpt lat="43.19838" lon="6.3142">
        <ele>396</ele>
        <time>2022-07-13T22:35:08Z</time>
      </trkpt>
      <trkpt lat="43.19724" lon="6.3122">
        <ele>373</ele>
        <time>2022-07-13T22:35:41Z</time>
      </trkpt>
      <trkpt lat="43.19717" lon="6.31212">
        <ele>371</ele>
        <time>2022-07-13T22:35:42Z</time>
      </trkpt>
      <trkpt lat="43.19709" lon="6.31212">
        <ele>370</ele>
        <time>2022-07-13T22:35:44Z</time>
      </trkpt>
      <trkpt lat="43.19704" lon="6.31216">
        <ele>370</ele>
        <time>2022-07-13T22:35:45Z</time>
      </trkpt>
      <trkpt lat="43.19701" lon="6.31225">
        <ele>371</ele>
        <time>2022-07-13T22:35:46Z</time>
      </trkpt>
      <trkpt lat="43.19698" lon="6.31258">
        <ele>376</ele>
        <time>2022-07-13T22:35:50Z</time>
      </trkpt>
      <trkpt lat="43.19696" lon="6.31301">
        <ele>385</ele>
        <time>2022-07-13T22:35:56Z</time>
      </trkpt>
      <trkpt lat="43.19692" lon="6.31318">
        <ele>388</ele>
        <time>2022-07-13T22:35:58Z</time>
      </trkpt>
      <trkpt lat="43.19683" lon="6.31335">
        <ele>390</ele>
        <time>2022-07-13T22:36:01Z</time>
      </trkpt>
      <trkpt lat="43.19672" lon="6.31345">
        <ele>391</ele>
        <time>2022-07-13T22:36:03Z</time>
      </trkpt>
      <trkpt lat="43.19632" lon="6.31359">
        <ele>377</ele>
        <time>2022-07-13T22:36:11Z</time>
      </trkpt>
      <trkpt lat="43.19627" lon="6.31371">
        <ele>378</ele>
        <time>2022-07-13T22:36:13Z</time>
      </trkpt>
      <trkpt lat="43.19624" lon="6.31405">
        <ele>385</ele>
        <time>2022-07-13T22:36:17Z</time>
      </trkpt>
      <trkpt lat="43.1961" lon="6.31446">
        <ele>390</ele>
        <time>2022-07-13T22:36:23Z</time>
      </trkpt>
      <trkpt lat="43.19596" lon="6.31476">
        <ele>393</ele>
        <time>2022-07-13T22:36:28Z</time>
      </trkpt>
      <trkpt lat="43.19534" lon="6.31533">
        <ele>398</ele>
        <time>2022-07-13T22:36:41Z</time>
      </trkpt>
      <trkpt lat="43.19519" lon="6.31552">
        <ele>402</ele>
        <time>2022-07-13T22:36:44Z</time>
      </trkpt>
      <trkpt lat="43.19514" lon="6.31554">
        <ele>402</ele>
        <time>2022-07-13T22:36:45Z</time>
      </trkpt>
      <trkpt lat="43.19509" lon="6.31553">
        <ele>400</ele>
        <time>2022-07-13T22:36:46Z</time>
      </trkpt>
      <trkpt lat="43.19502" lon="6.31546">
        <ele>396</ele>
        <time>2022-07-13T22:36:48Z</time>
      </trkpt>
      <trkpt lat="43.19482" lon="6.31517">
        <ele>389</ele>
        <time>2022-07-13T22:36:53Z</time>
      </trkpt>
      <trkpt lat="43.19457" lon="6.31498">
        <ele>387</ele>
        <time>2022-07-13T22:36:58Z</time>
      </trkpt>
      <trkpt lat="43.19396" lon="6.31478">
        <ele>386</ele>
        <time>2022-07-13T22:37:09Z</time>
      </trkpt>
      <trkpt lat="43.19378" lon="6.31476">
        <ele>385</ele>
        <time>2022-07-13T22:37:12Z</time>
      </trkpt>
      <trkpt lat="43.19352" lon="6.31479">
        <ele>386</ele>
        <time>2022-07-13T22:37:17Z</time>
      </trkpt>
      <trkpt lat="43.19308" lon="6.31491">
        <ele>385</ele>
        <time>2022-07-13T22:37:25Z</time>
      </trkpt>
      <trkpt lat="43.19295" lon="6.315">
        <ele>385</ele>
        <time>2022-07-13T22:37:28Z</time>
      </trkpt>
      <trkpt lat="43.19289" lon="6.31513">
        <ele>388</ele>
        <time>2022-07-13T22:37:30Z</time>
      </trkpt>
      <trkpt lat="43.19288" lon="6.31534">
        <ele>395</ele>
        <time>2022-07-13T22:37:32Z</time>
      </trkpt>
      <trkpt lat="43.19284" lon="6.31545">
        <ele>397</ele>
        <time>2022-07-13T22:37:34Z</time>
      </trkpt>
      <trkpt lat="43.19278" lon="6.31548">
        <ele>397</ele>
        <time>2022-07-13T22:37:35Z</time>
      </trkpt>
      <trkpt lat="43.19245" lon="6.31549">
        <ele>390</ele>
        <time>2022-07-13T22:37:41Z</time>
      </trkpt>
      <trkpt lat="43.19234" lon="6.31555">
        <ele>388</ele>
        <time>2022-07-13T22:37:43Z</time>
      </trkpt>
      <trkpt lat="43.19224" lon="6.31565">
        <ele>387</ele>
        <time>2022-07-13T22:37:45Z</time>
      </trkpt>
      <trkpt lat="43.19181" lon="6.3166">
        <ele>389</ele>
        <time>2022-07-13T22:38:00Z</time>
      </trkpt>
      <trkpt lat="43.19172" lon="6.31704">
        <ele>395</ele>
        <time>2022-07-13T22:38:06Z</time>
      </trkpt>
      <trkpt lat="43.19133" lon="6.31786">
        <ele>405</ele>
        <time>2022-07-13T22:38:18Z</time>
      </trkpt>
      <trkpt lat="43.19116" lon="6.31798">
        <ele>405</ele>
        <time>2022-07-13T22:38:22Z</time>
      </trkpt>
      <trkpt lat="43.1904" lon="6.31786">
        <ele>401</ele>
        <time>2022-07-13T22:38:35Z</time>
      </trkpt>
      <trkpt lat="43.19002" lon="6.31743">
        <ele>393</ele>
        <time>2022-07-13T22:38:44Z</time>
      </trkpt>
      <trkpt lat="43.18952" lon="6.31711">
        <ele>384</ele>
        <time>2022-07-13T22:38:54Z</time>
      </trkpt>
      <trkpt lat="43.18932" lon="6.31713">
        <ele>384</ele>
        <time>2022-07-13T22:38:58Z</time>
      </trkpt>
      <trkpt lat="43.18897" lon="6.31802">
        <ele>385</ele>
        <time>2022-07-13T22:39:11Z</time>
      </trkpt>
      <trkpt lat="43.1889" lon="6.31977">
        <ele>395</ele>
        <time>2022-07-13T22:39:33Z</time>
      </trkpt>
      <trkpt lat="43.18857" lon="6.32142">
        <ele>376</ele>
        <time>2022-07-13T22:39:56Z</time>
      </trkpt>
      <trkpt lat="43.18858" lon="6.32202">
        <ele>375</ele>
        <time>2022-07-13T22:40:03Z</time>
      </trkpt>
      <trkpt lat="43.18868" lon="6.32219">
        <ele>378</ele>
        <time>2022-07-13T22:40:06Z</time>
      </trkpt>
      <trkpt lat="43.18892" lon="6.322">
        <ele>389</ele>
        <time>2022-07-13T22:40:11Z</time>
      </trkpt>
      <trkpt lat="43.18899" lon="6.32201">
        <ele>391</ele>
        <time>2022-07-13T22:40:12Z</time>
      </trkpt>
      <trkpt lat="43.18903" lon="6.32206">
        <ele>392</ele>
        <time>2022-07-13T22:40:13Z</time>
      </trkpt>
      <trkpt lat="43.18905" lon="6.32213">
        <ele>393</ele>
        <time>2022-07-13T22:40:14Z</time>
      </trkpt>
      <trkpt lat="43.18889" lon="6.32273">
        <ele>386</ele>
        <time>2022-07-13T22:40:23Z</time>
      </trkpt>
      <trkpt lat="43.18859" lon="6.32358">
        <ele>383</ele>
        <time>2022-07-13T22:40:35Z</time>
      </trkpt>
      <trkpt lat="43.18849" lon="6.32377">
        <ele>382</ele>
        <time>2022-07-13T22:40:38Z</time>
      </trkpt>
      <trkpt lat="43.18837" lon="6.32394">
        <ele>380</ele>
        <time>2022-07-13T22:40:41Z</time>
      </trkpt>
      <trkpt lat="43.18825" lon="6.32424">
        <ele>383</ele>
        <time>2022-07-13T22:40:45Z</time>
      </trkpt>
      <trkpt lat="43.18813" lon="6.32443">
        <ele>383</ele>
        <time>2022-07-13T22:40:49Z</time>
      </trkpt>
      <trkpt lat="43.18788" lon="6.32471">
        <ele>381</ele>
        <time>2022-07-13T22:40:54Z</time>
      </trkpt>
      <trkpt lat="43.18766" lon="6.32488">
        <ele>380</ele>
        <time>2022-07-13T22:40:59Z</time>
      </trkpt>
      <trkpt lat="43.18761" lon="6.32495">
        <ele>380</ele>
        <time>2022-07-13T22:41:00Z</time>
      </trkpt>
      <trkpt lat="43.18731" lon="6.32566">
        <ele>380</ele>
        <time>2022-07-13T22:41:11Z</time>
      </trkpt>
      <trkpt lat="43.18725" lon="6.32609">
        <ele>380</ele>
        <time>2022-07-13T22:41:17Z</time>
      </trkpt>
      <trkpt lat="43.18783" lon="6.32886">
        <ele>370</ele>
        <time>2022-07-13T22:41:54Z</time>
      </trkpt>
      <trkpt lat="43.18786" lon="6.32963">
        <ele>367</ele>
        <time>2022-07-13T22:42:04Z</time>
      </trkpt>
      <trkpt lat="43.18771" lon="6.33041">
        <ele>364</ele>
        <time>2022-07-13T22:42:14Z</time>
      </trkpt>
      <trkpt lat="43.1876" lon="6.33059">
        <ele>363</ele>
        <time>2022-07-13T22:42:17Z</time>
      </trkpt>
      <trkpt lat="43.18741" lon="6.33056">
        <ele>367</ele>
        <time>2022-07-13T22:42:21Z</time>
      </trkpt>
      <trkpt lat="43.18732" lon="6.33069">
        <ele>366</ele>
        <time>2022-07-13T22:42:23Z</time>
      </trkpt>
      <trkpt lat="43.18729" lon="6.33082">
        <ele>365</ele>
        <time>2022-07-13T22:42:25Z</time>
      </trkpt>
      <trkpt lat="43.18728" lon="6.33141">
        <ele>361</ele>
        <time>2022-07-13T22:42:33Z</time>
      </trkpt>
      <trkpt lat="43.18712" lon="6.33199">
        <ele>359</ele>
        <time>2022-07-13T22:42:41Z</time>
      </trkpt>
      <trkpt lat="43.18707" lon="6.33222">
        <ele>358</ele>
        <time>2022-07-13T22:42:44Z</time>
      </trkpt>
      <trkpt lat="43.18723" lon="6.33261">
        <ele>353</ele>
        <time>2022-07-13T22:42:50Z</time>
      </trkpt>
      <trkpt lat="43.18722" lon="6.33291">
        <ele>351</ele>
        <time>2022-07-13T22:42:53Z</time>
      </trkpt>
      <trkpt lat="43.18712" lon="6.33312">
        <ele>350</ele>
        <time>2022-07-13T22:42:57Z</time>
      </trkpt>
      <trkpt lat="43.18694" lon="6.33314">
        <ele>351</ele>
        <time>2022-07-13T22:43:00Z</time>
      </trkpt>
      <trkpt lat="43.18678" lon="6.33295">
        <ele>355</ele>
        <time>2022-07-13T22:43:04Z</time>
      </trkpt>
      <trkpt lat="43.1865" lon="6.33295">
        <ele>355</ele>
        <time>2022-07-13T22:43:09Z</time>
      </trkpt>
      <trkpt lat="43.18633" lon="6.33312">
        <ele>352</ele>
        <time>2022-07-13T22:43:12Z</time>
      </trkpt>
      <trkpt lat="43.18598" lon="6.33322">
        <ele>350</ele>
        <time>2022-07-13T22:43:19Z</time>
      </trkpt>
      <trkpt lat="43.18582" lon="6.33345">
        <ele>348</ele>
        <time>2022-07-13T22:43:23Z</time>
      </trkpt>
      <trkpt lat="43.18578" lon="6.33388">
        <ele>346</ele>
        <time>2022-07-13T22:43:29Z</time>
      </trkpt>
      <trkpt lat="43.1859" lon="6.3342">
        <ele>345</ele>
        <time>2022-07-13T22:43:33Z</time>
      </trkpt>
      <trkpt lat="43.18624" lon="6.3345">
        <ele>342</ele>
        <time>2022-07-13T22:43:40Z</time>
      </trkpt>
      <trkpt lat="43.18637" lon="6.33492">
        <ele>339</ele>
        <time>2022-07-13T22:43:46Z</time>
      </trkpt>
      <trkpt lat="43.18639" lon="6.3351">
        <ele>339</ele>
        <time>2022-07-13T22:43:49Z</time>
      </trkpt>
      <trkpt lat="43.18632" lon="6.33536">
        <ele>340</ele>
        <time>2022-07-13T22:43:52Z</time>
      </trkpt>
      <trkpt lat="43.18636" lon="6.33571">
        <ele>339</ele>
        <time>2022-07-13T22:43:57Z</time>
      </trkpt>
      <trkpt lat="43.18666" lon="6.33581">
        <ele>337</ele>
        <time>2022-07-13T22:44:02Z</time>
      </trkpt>
      <trkpt lat="43.18671" lon="6.33615">
        <ele>334</ele>
        <time>2022-07-13T22:44:07Z</time>
      </trkpt>
      <trkpt lat="43.18666" lon="6.33674">
        <ele>334</ele>
        <time>2022-07-13T22:44:15Z</time>
      </trkpt>
      <trkpt lat="43.18625" lon="6.33835">
        <ele>324</ele>
        <time>2022-07-13T22:44:37Z</time>
      </trkpt>
      <trkpt lat="43.18611" lon="6.33953">
        <ele>319</ele>
        <time>2022-07-13T22:44:52Z</time>
      </trkpt>
      <trkpt lat="43.18588" lon="6.34014">
        <ele>321</ele>
        <time>2022-07-13T22:45:01Z</time>
      </trkpt>
      <trkpt lat="43.18557" lon="6.3405">
        <ele>311</ele>
        <time>2022-07-13T22:45:08Z</time>
      </trkpt>
      <trkpt lat="43.18528" lon="6.34053">
        <ele>306</ele>
        <time>2022-07-13T22:45:14Z</time>
      </trkpt>
      <trkpt lat="43.18499" lon="6.34027">
        <ele>309</ele>
        <time>2022-07-13T22:45:20Z</time>
      </trkpt>
      <trkpt lat="43.18464" lon="6.33962">
        <ele>305</ele>
        <time>2022-07-13T22:45:30Z</time>
      </trkpt>
      <trkpt lat="43.18438" lon="6.33859">
        <ele>304</ele>
        <time>2022-07-13T22:45:44Z</time>
      </trkpt>
      <trkpt lat="43.18407" lon="6.33787">
        <ele>291</ele>
        <time>2022-07-13T22:45:55Z</time>
      </trkpt>
      <trkpt lat="43.18422" lon="6.33764">
        <ele>296</ele>
        <time>2022-07-13T22:45:59Z</time>
      </trkpt>
      <trkpt lat="43.18467" lon="6.33718">
        <ele>306</ele>
        <time>2022-07-13T22:46:09Z</time>
      </trkpt>
      <trkpt lat="43.1847" lon="6.337">
        <ele>305</ele>
        <time>2022-07-13T22:46:12Z</time>
      </trkpt>
      <trkpt lat="43.18458" lon="6.33627">
        <ele>298</ele>
        <time>2022-07-13T22:46:21Z</time>
      </trkpt>
      <trkpt lat="43.18435" lon="6.3358">
        <ele>288</ele>
        <time>2022-07-13T22:46:29Z</time>
      </trkpt>
      <trkpt lat="43.18432" lon="6.33492">
        <ele>291</ele>
        <time>2022-07-13T22:46:40Z</time>
      </trkpt>
      <trkpt lat="43.18382" lon="6.334">
        <ele>287</ele>
        <time>2022-07-13T22:46:55Z</time>
      </trkpt>
      <trkpt lat="43.1833" lon="6.33349">
        <ele>280</ele>
        <time>2022-07-13T22:47:06Z</time>
      </trkpt>
      <trkpt lat="43.18316" lon="6.33318">
        <ele>285</ele>
        <time>2022-07-13T22:47:11Z</time>
      </trkpt>
      <trkpt lat="43.18292" lon="6.33304">
        <ele>285</ele>
        <time>2022-07-13T22:47:16Z</time>
      </trkpt>
      <trkpt lat="43.18249" lon="6.3334">
        <ele>270</ele>
        <time>2022-07-13T22:47:25Z</time>
      </trkpt>
      <trkpt lat="43.1823" lon="6.33338">
        <ele>265</ele>
        <time>2022-07-13T22:47:28Z</time>
      </trkpt>
      <trkpt lat="43.18167" lon="6.33283">
        <ele>254</ele>
        <time>2022-07-13T22:47:41Z</time>
      </trkpt>
      <trkpt lat="43.1816" lon="6.33266">
        <ele>253</ele>
        <time>2022-07-13T22:47:44Z</time>
      </trkpt>
      <trkpt lat="43.18159" lon="6.33141">
        <ele>263</ele>
        <time>2022-07-13T22:48:00Z</time>
      </trkpt>
      <trkpt lat="43.18142" lon="6.33078">
        <ele>262</ele>
        <time>2022-07-13T22:48:09Z</time>
      </trkpt>
      <trkpt lat="43.18106" lon="6.32964">
        <ele>260</ele>
        <time>2022-07-13T22:48:25Z</time>
      </trkpt>
      <trkpt lat="43.18093" lon="6.32876">
        <ele>261</ele>
        <time>2022-07-13T22:48:37Z</time>
      </trkpt>
      <trkpt lat="43.18089" lon="6.32863">
        <ele>261</ele>
        <time>2022-07-13T22:48:38Z</time>
      </trkpt>
      <trkpt lat="43.18073" lon="6.32856">
        <ele>259</ele>
        <time>2022-07-13T22:48:41Z</time>
      </trkpt>
      <trkpt lat="43.18067" lon="6.32861">
        <ele>258</ele>
        <time>2022-07-13T22:48:43Z</time>
      </trkpt>
      <trkpt lat="43.18052" lon="6.32929">
        <ele>247</ele>
        <time>2022-07-13T22:48:52Z</time>
      </trkpt>
      <trkpt lat="43.1804" lon="6.32965">
        <ele>243</ele>
        <time>2022-07-13T22:48:57Z</time>
      </trkpt>
      <trkpt lat="43.18009" lon="6.33024">
        <ele>235</ele>
        <time>2022-07-13T22:49:06Z</time>
      </trkpt>
      <trkpt lat="43.18005" lon="6.33036">
        <ele>235</ele>
        <time>2022-07-13T22:49:08Z</time>
      </trkpt>
      <trkpt lat="43.18005" lon="6.33071">
        <ele>237</ele>
        <time>2022-07-13T22:49:13Z</time>
      </trkpt>
      <trkpt lat="43.18" lon="6.33078">
        <ele>237</ele>
        <time>2022-07-13T22:49:14Z</time>
      </trkpt>
      <trkpt lat="43.17991" lon="6.33078">
        <ele>233</ele>
        <time>2022-07-13T22:49:16Z</time>
      </trkpt>
      <trkpt lat="43.17983" lon="6.3307">
        <ele>230</ele>
        <time>2022-07-13T22:49:17Z</time>
      </trkpt>
      <trkpt lat="43.17981" lon="6.33053">
        <ele>229</ele>
        <time>2022-07-13T22:49:20Z</time>
      </trkpt>
      <trkpt lat="43.17984" lon="6.33031">
        <ele>229</ele>
        <time>2022-07-13T22:49:22Z</time>
      </trkpt>
      <trkpt lat="43.18006" lon="6.32986">
        <ele>235</ele>
        <time>2022-07-13T22:49:29Z</time>
      </trkpt>
      <trkpt lat="43.18008" lon="6.32966">
        <ele>237</ele>
        <time>2022-07-13T22:49:32Z</time>
      </trkpt>
      <trkpt lat="43.18005" lon="6.32948">
        <ele>238</ele>
        <time>2022-07-13T22:49:34Z</time>
      </trkpt>
      <trkpt lat="43.17942" lon="6.32882">
        <ele>226</ele>
        <time>2022-07-13T22:49:49Z</time>
      </trkpt>
      <trkpt lat="43.17913" lon="6.32798">
        <ele>227</ele>
        <time>2022-07-13T22:50:01Z</time>
      </trkpt>
      <trkpt lat="43.17869" lon="6.32747">
        <ele>224</ele>
        <time>2022-07-13T22:50:11Z</time>
      </trkpt>
      <trkpt lat="43.17855" lon="6.32741">
        <ele>221</ele>
        <time>2022-07-13T22:50:13Z</time>
      </trkpt>
      <trkpt lat="43.17838" lon="6.32745">
        <ele>218</ele>
        <time>2022-07-13T22:50:17Z</time>
      </trkpt>
      <trkpt lat="43.17814" lon="6.32762">
        <ele>222</ele>
        <time>2022-07-13T22:50:21Z</time>
      </trkpt>
      <trkpt lat="43.17802" lon="6.32784">
        <ele>222</ele>
        <time>2022-07-13T22:50:25Z</time>
      </trkpt>
      <trkpt lat="43.17802" lon="6.32804">
        <ele>220</ele>
        <time>2022-07-13T22:50:28Z</time>
      </trkpt>
      <trkpt lat="43.17799" lon="6.32822">
        <ele>219</ele>
        <time>2022-07-13T22:50:30Z</time>
      </trkpt>
      <trkpt lat="43.17792" lon="6.32841">
        <ele>218</ele>
        <time>2022-07-13T22:50:33Z</time>
      </trkpt>
      <trkpt lat="43.1776" lon="6.32864">
        <ele>222</ele>
        <time>2022-07-13T22:50:39Z</time>
      </trkpt>
      <trkpt lat="43.17754" lon="6.32876">
        <ele>221</ele>
        <time>2022-07-13T22:50:41Z</time>
      </trkpt>
      <trkpt lat="43.17753" lon="6.32907">
        <ele>216</ele>
        <time>2022-07-13T22:50:45Z</time>
      </trkpt>
      <trkpt lat="43.17744" lon="6.32925">
        <ele>216</ele>
        <time>2022-07-13T22:50:48Z</time>
      </trkpt>
      <trkpt lat="43.17714" lon="6.32943">
        <ele>226</ele>
        <time>2022-07-13T22:50:54Z</time>
      </trkpt>
      <trkpt lat="43.17711" lon="6.32951">
        <ele>227</ele>
        <time>2022-07-13T22:50:55Z</time>
      </trkpt>
      <trkpt lat="43.17714" lon="6.32962">
        <ele>225</ele>
        <time>2022-07-13T22:50:56Z</time>
      </trkpt>
      <trkpt lat="43.1773" lon="6.33">
        <ele>215</ele>
        <time>2022-07-13T22:51:02Z</time>
      </trkpt>
      <trkpt lat="43.17738" lon="6.33046">
        <ele>211</ele>
        <time>2022-07-13T22:51:08Z</time>
      </trkpt>
      <trkpt lat="43.17734" lon="6.33093">
        <ele>213</ele>
        <time>2022-07-13T22:51:14Z</time>
      </trkpt>
      <trkpt lat="43.17733" lon="6.33118">
        <ele>213</ele>
        <time>2022-07-13T22:51:18Z</time>
      </trkpt>
      <trkpt lat="43.17743" lon="6.3315">
        <ele>210</ele>
        <time>2022-07-13T22:51:22Z</time>
      </trkpt>
      <trkpt lat="43.17747" lon="6.33192">
        <ele>207</ele>
        <time>2022-07-13T22:51:28Z</time>
      </trkpt>
      <trkpt lat="43.17742" lon="6.33213">
        <ele>206</ele>
        <time>2022-07-13T22:51:30Z</time>
      </trkpt>
      <trkpt lat="43.17709" lon="6.33247">
        <ele>212</ele>
        <time>2022-07-13T22:51:38Z</time>
      </trkpt>
      <trkpt lat="43.17703" lon="6.33275">
        <ele>211</ele>
        <time>2022-07-13T22:51:42Z</time>
      </trkpt>
      <trkpt lat="43.17703" lon="6.33319">
        <ele>206</ele>
        <time>2022-07-13T22:51:47Z</time>
      </trkpt>
      <trkpt lat="43.17699" lon="6.33349">
        <ele>203</ele>
        <time>2022-07-13T22:51:51Z</time>
      </trkpt>
      <trkpt lat="43.17681" lon="6.33368">
        <ele>203</ele>
        <time>2022-07-13T22:51:55Z</time>
      </trkpt>
      <trkpt lat="43.17641" lon="6.33378">
        <ele>200</ele>
        <time>2022-07-13T22:52:03Z</time>
      </trkpt>
      <trkpt lat="43.17627" lon="6.33378">
        <ele>198</ele>
        <time>2022-07-13T22:52:05Z</time>
      </trkpt>
      <trkpt lat="43.17613" lon="6.33366">
        <ele>199</ele>
        <time>2022-07-13T22:52:08Z</time>
      </trkpt>
      <trkpt lat="43.17604" lon="6.33338">
        <ele>203</ele>
        <time>2022-07-13T22:52:12Z</time>
      </trkpt>
      <trkpt lat="43.17581" lon="6.33313">
        <ele>204</ele>
        <time>2022-07-13T22:52:17Z</time>
      </trkpt>
      <trkpt lat="43.17575" lon="6.33299">
        <ele>205</ele>
        <time>2022-07-13T22:52:19Z</time>
      </trkpt>
      <trkpt lat="43.17568" lon="6.33233">
        <ele>216</ele>
        <time>2022-07-13T22:52:28Z</time>
      </trkpt>
      <trkpt lat="43.17562" lon="6.33226">
        <ele>217</ele>
        <time>2022-07-13T22:52:29Z</time>
      </trkpt>
      <trkpt lat="43.17551" lon="6.3323">
        <ele>216</ele>
        <time>2022-07-13T22:52:31Z</time>
      </trkpt>
      <trkpt lat="43.17498" lon="6.33268">
        <ele>205</ele>
        <time>2022-07-13T22:52:42Z</time>
      </trkpt>
      <trkpt lat="43.17454" lon="6.33272">
        <ele>200</ele>
        <time>2022-07-13T22:52:50Z</time>
      </trkpt>
      <trkpt lat="43.17422" lon="6.33259">
        <ele>200</ele>
        <time>2022-07-13T22:52:56Z</time>
      </trkpt>
      <trkpt lat="43.17384" lon="6.33227">
        <ele>201</ele>
        <time>2022-07-13T22:53:04Z</time>
      </trkpt>
      <trkpt lat="43.17363" lon="6.33167">
        <ele>208</ele>
        <time>2022-07-13T22:53:12Z</time>
      </trkpt>
      <trkpt lat="43.17352" lon="6.3316">
        <ele>207</ele>
        <time>2022-07-13T22:53:14Z</time>
      </trkpt>
      <trkpt lat="43.17332" lon="6.33166">
        <ele>201</ele>
        <time>2022-07-13T22:53:18Z</time>
      </trkpt>
      <trkpt lat="43.17316" lon="6.33168">
        <ele>200</ele>
        <time>2022-07-13T22:53:21Z</time>
      </trkpt>
      <trkpt lat="43.173" lon="6.33153">
        <ele>202</ele>
        <time>2022-07-13T22:53:24Z</time>
      </trkpt>
      <trkpt lat="43.17273" lon="6.33086">
        <ele>213</ele>
        <time>2022-07-13T22:53:34Z</time>
      </trkpt>
      <trkpt lat="43.17264" lon="6.33087">
        <ele>212</ele>
        <time>2022-07-13T22:53:36Z</time>
      </trkpt>
      <trkpt lat="43.17216" lon="6.33154">
        <ele>201</ele>
        <time>2022-07-13T22:53:48Z</time>
      </trkpt>
      <trkpt lat="43.17189" lon="6.33161">
        <ele>201</ele>
        <time>2022-07-13T22:53:53Z</time>
      </trkpt>
      <trkpt lat="43.17167" lon="6.33163">
        <ele>202</ele>
        <time>2022-07-13T22:53:57Z</time>
      </trkpt>
      <trkpt lat="43.17128" lon="6.33153">
        <ele>201</ele>
        <time>2022-07-13T22:54:04Z</time>
      </trkpt>
      <trkpt lat="43.17124" lon="6.33155">
        <ele>200</ele>
        <time>2022-07-13T22:54:05Z</time>
      </trkpt>
      <trkpt lat="43.1712" lon="6.33159">
        <ele>199</ele>
        <time>2022-07-13T22:54:06Z</time>
      </trkpt>
      <trkpt lat="43.17117" lon="6.33169">
        <ele>199</ele>
        <time>2022-07-13T22:54:07Z</time>
      </trkpt>
      <trkpt lat="43.17118" lon="6.33176">
        <ele>198</ele>
        <time>2022-07-13T22:54:08Z</time>
      </trkpt>
      <trkpt lat="43.1714" lon="6.33236">
        <ele>196</ele>
        <time>2022-07-13T22:54:17Z</time>
      </trkpt>
      <trkpt lat="43.1714" lon="6.33254">
        <ele>195</ele>
        <time>2022-07-13T22:54:19Z</time>
      </trkpt>
      <trkpt lat="43.17137" lon="6.33261">
        <ele>195</ele>
        <time>2022-07-13T22:54:20Z</time>
      </trkpt>
      <trkpt lat="43.17132" lon="6.33266">
        <ele>195</ele>
        <time>2022-07-13T22:54:21Z</time>
      </trkpt>
      <trkpt lat="43.17126" lon="6.33269">
        <ele>195</ele>
        <time>2022-07-13T22:54:22Z</time>
      </trkpt>
      <trkpt lat="43.17111" lon="6.33268">
        <ele>196</ele>
        <time>2022-07-13T22:54:25Z</time>
      </trkpt>
      <trkpt lat="43.17076" lon="6.3325">
        <ele>198</ele>
        <time>2022-07-13T22:54:32Z</time>
      </trkpt>
      <trkpt lat="43.17061" lon="6.33245">
        <ele>198</ele>
        <time>2022-07-13T22:54:34Z</time>
      </trkpt>
      <trkpt lat="43.17047" lon="6.33244">
        <ele>197</ele>
        <time>2022-07-13T22:54:37Z</time>
      </trkpt>
      <trkpt lat="43.17002" lon="6.33263">
        <ele>198</ele>
        <time>2022-07-13T22:54:45Z</time>
      </trkpt>
      <trkpt lat="43.16935" lon="6.33284">
        <ele>197</ele>
        <time>2022-07-13T22:54:58Z</time>
      </trkpt>
      <trkpt lat="43.16918" lon="6.33299">
        <ele>200</ele>
        <time>2022-07-13T22:55:01Z</time>
      </trkpt>
      <trkpt lat="43.1685" lon="6.3338">
        <ele>216</ele>
        <time>2022-07-13T22:55:17Z</time>
      </trkpt>
      <trkpt lat="43.16842" lon="6.33383">
        <ele>216</ele>
        <time>2022-07-13T22:55:19Z</time>
      </trkpt>
      <trkpt lat="43.16826" lon="6.33382">
        <ele>216</ele>
        <time>2022-07-13T22:55:21Z</time>
      </trkpt>
      <trkpt lat="43.1681" lon="6.33373">
        <ele>217</ele>
        <time>2022-07-13T22:55:25Z</time>
      </trkpt>
      <trkpt lat="43.16804" lon="6.33366">
        <ele>216</ele>
        <time>2022-07-13T22:55:26Z</time>
      </trkpt>
      <trkpt lat="43.16786" lon="6.33332">
        <ele>209</ele>
        <time>2022-07-13T22:55:31Z</time>
      </trkpt>
      <trkpt lat="43.1678" lon="6.33324">
        <ele>208</ele>
        <time>2022-07-13T22:55:33Z</time>
      </trkpt>
      <trkpt lat="43.16773" lon="6.3332">
        <ele>208</ele>
        <time>2022-07-13T22:55:34Z</time>
      </trkpt>
      <trkpt lat="43.1674" lon="6.3331">
        <ele>213</ele>
        <time>2022-07-13T22:55:40Z</time>
      </trkpt>
      <trkpt lat="43.16725" lon="6.33301">
        <ele>215</ele>
        <time>2022-07-13T22:55:43Z</time>
      </trkpt>
      <trkpt lat="43.1672" lon="6.33293">
        <ele>215</ele>
        <time>2022-07-13T22:55:45Z</time>
      </trkpt>
      <trkpt lat="43.16717" lon="6.33283">
        <ele>214</ele>
        <time>2022-07-13T22:55:46Z</time>
      </trkpt>
      <trkpt lat="43.16715" lon="6.33272">
        <ele>212</ele>
        <time>2022-07-13T22:55:47Z</time>
      </trkpt>
      <trkpt lat="43.16719" lon="6.33238">
        <ele>203</ele>
        <time>2022-07-13T22:55:52Z</time>
      </trkpt>
      <trkpt lat="43.16719" lon="6.33227">
        <ele>201</ele>
        <time>2022-07-13T22:55:53Z</time>
      </trkpt>
      <trkpt lat="43.16717" lon="6.33216">
        <ele>200</ele>
        <time>2022-07-13T22:55:55Z</time>
      </trkpt>
      <trkpt lat="43.16713" lon="6.33205">
        <ele>200</ele>
        <time>2022-07-13T22:55:56Z</time>
      </trkpt>
      <trkpt lat="43.16707" lon="6.33196">
        <ele>200</ele>
        <time>2022-07-13T22:55:58Z</time>
      </trkpt>
      <trkpt lat="43.16701" lon="6.3319">
        <ele>201</ele>
        <time>2022-07-13T22:55:59Z</time>
      </trkpt>
      <trkpt lat="43.16693" lon="6.33187">
        <ele>203</ele>
        <time>2022-07-13T22:56:01Z</time>
      </trkpt>
      <trkpt lat="43.16665" lon="6.33187">
        <ele>211</ele>
        <time>2022-07-13T22:56:06Z</time>
      </trkpt>
      <trkpt lat="43.16646" lon="6.33182">
        <ele>212</ele>
        <time>2022-07-13T22:56:09Z</time>
      </trkpt>
      <trkpt lat="43.16585" lon="6.33135">
        <ele>210</ele>
        <time>2022-07-13T22:56:22Z</time>
      </trkpt>
      <trkpt lat="43.16576" lon="6.33132">
        <ele>209</ele>
        <time>2022-07-13T22:56:23Z</time>
      </trkpt>
      <trkpt lat="43.16567" lon="6.33131">
        <ele>207</ele>
        <time>2022-07-13T22:56:25Z</time>
      </trkpt>
      <trkpt lat="43.16558" lon="6.33134">
        <ele>206</ele>
        <time>2022-07-13T22:56:27Z</time>
      </trkpt>
      <trkpt lat="43.16543" lon="6.33146">
        <ele>206</ele>
        <time>2022-07-13T22:56:30Z</time>
      </trkpt>
      <trkpt lat="43.16519" lon="6.3318">
        <ele>208</ele>
        <time>2022-07-13T22:56:36Z</time>
      </trkpt>
      <trkpt lat="43.16497" lon="6.33216">
        <ele>212</ele>
        <time>2022-07-13T22:56:42Z</time>
      </trkpt>
      <trkpt lat="43.1649" lon="6.33237">
        <ele>214</ele>
        <time>2022-07-13T22:56:45Z</time>
      </trkpt>
      <trkpt lat="43.16484" lon="6.33272">
        <ele>220</ele>
        <time>2022-07-13T22:56:50Z</time>
      </trkpt>
      <trkpt lat="43.16479" lon="6.33283">
        <ele>221</ele>
        <time>2022-07-13T22:56:51Z</time>
      </trkpt>
      <trkpt lat="43.16473" lon="6.33293">
        <ele>222</ele>
        <time>2022-07-13T22:56:53Z</time>
      </trkpt>
      <trkpt lat="43.16456" lon="6.33306">
        <ele>221</ele>
        <time>2022-07-13T22:56:56Z</time>
      </trkpt>
      <trkpt lat="43.16407" lon="6.33327">
        <ele>217</ele>
        <time>2022-07-13T22:57:05Z</time>
      </trkpt>
      <trkpt lat="43.16398" lon="6.33332">
        <ele>217</ele>
        <time>2022-07-13T22:57:07Z</time>
      </trkpt>
      <trkpt lat="43.16381" lon="6.33347">
        <ele>217</ele>
        <time>2022-07-13T22:57:11Z</time>
      </trkpt>
      <trkpt lat="43.16361" lon="6.33371">
        <ele>219</ele>
        <time>2022-07-13T22:57:16Z</time>
      </trkpt>
      <trkpt lat="43.16353" lon="6.33377">
        <ele>219</ele>
        <time>2022-07-13T22:57:17Z</time>
      </trkpt>
      <trkpt lat="43.16346" lon="6.3338">
        <ele>219</ele>
        <time>2022-07-13T22:57:18Z</time>
      </trkpt>
      <trkpt lat="43.16322" lon="6.33383">
        <ele>214</ele>
        <time>2022-07-13T22:57:23Z</time>
      </trkpt>
      <trkpt lat="43.16316" lon="6.33385">
        <ele>213</ele>
        <time>2022-07-13T22:57:24Z</time>
      </trkpt>
      <trkpt lat="43.16307" lon="6.33393">
        <ele>212</ele>
        <time>2022-07-13T22:57:26Z</time>
      </trkpt>
      <trkpt lat="43.163" lon="6.33403">
        <ele>213</ele>
        <time>2022-07-13T22:57:28Z</time>
      </trkpt>
      <trkpt lat="43.16292" lon="6.33419">
        <ele>214</ele>
        <time>2022-07-13T22:57:30Z</time>
      </trkpt>
      <trkpt lat="43.1628" lon="6.33456">
        <ele>217</ele>
        <time>2022-07-13T22:57:35Z</time>
      </trkpt>
      <trkpt lat="43.16278" lon="6.33469">
        <ele>219</ele>
        <time>2022-07-13T22:57:37Z</time>
      </trkpt>
      <trkpt lat="43.16275" lon="6.33506">
        <ele>224</ele>
        <time>2022-07-13T22:57:42Z</time>
      </trkpt>
      <trkpt lat="43.16271" lon="6.33514">
        <ele>223</ele>
        <time>2022-07-13T22:57:43Z</time>
      </trkpt>
      <trkpt lat="43.16265" lon="6.33518">
        <ele>222</ele>
        <time>2022-07-13T22:57:44Z</time>
      </trkpt>
      <trkpt lat="43.16257" lon="6.33519">
        <ele>220</ele>
        <time>2022-07-13T22:57:46Z</time>
      </trkpt>
      <trkpt lat="43.16232" lon="6.33513">
        <ele>213</ele>
        <time>2022-07-13T22:57:50Z</time>
      </trkpt>
      <trkpt lat="43.16223" lon="6.33516">
        <ele>211</ele>
        <time>2022-07-13T22:57:52Z</time>
      </trkpt>
      <trkpt lat="43.16216" lon="6.33522">
        <ele>209</ele>
        <time>2022-07-13T22:57:53Z</time>
      </trkpt>
      <trkpt lat="43.16212" lon="6.33532">
        <ele>208</ele>
        <time>2022-07-13T22:57:55Z</time>
      </trkpt>
      <trkpt lat="43.16211" lon="6.33544">
        <ele>208</ele>
        <time>2022-07-13T22:57:56Z</time>
      </trkpt>
      <trkpt lat="43.16214" lon="6.33557">
        <ele>209</ele>
        <time>2022-07-13T22:57:58Z</time>
      </trkpt>
      <trkpt lat="43.16234" lon="6.336">
        <ele>216</ele>
        <time>2022-07-13T22:58:05Z</time>
      </trkpt>
      <trkpt lat="43.16245" lon="6.33633">
        <ele>218</ele>
        <time>2022-07-13T22:58:10Z</time>
      </trkpt>
      <trkpt lat="43.16263" lon="6.33707">
        <ele>219</ele>
        <time>2022-07-13T22:58:20Z</time>
      </trkpt>
      <trkpt lat="43.16296" lon="6.33783">
        <ele>226</ele>
        <time>2022-07-13T22:58:31Z</time>
      </trkpt>
      <trkpt lat="43.163" lon="6.33798">
        <ele>227</ele>
        <time>2022-07-13T22:58:33Z</time>
      </trkpt>
      <trkpt lat="43.16302" lon="6.33814">
        <ele>227</ele>
        <time>2022-07-13T22:58:35Z</time>
      </trkpt>
      <trkpt lat="43.16302" lon="6.3383">
        <ele>226</ele>
        <time>2022-07-13T22:58:37Z</time>
      </trkpt>
      <trkpt lat="43.16295" lon="6.33873">
        <ele>220</ele>
        <time>2022-07-13T22:58:43Z</time>
      </trkpt>
      <trkpt lat="43.16294" lon="6.33888">
        <ele>219</ele>
        <time>2022-07-13T22:58:45Z</time>
      </trkpt>
      <trkpt lat="43.16296" lon="6.33902">
        <ele>219</ele>
        <time>2022-07-13T22:58:47Z</time>
      </trkpt>
      <trkpt lat="43.163" lon="6.33913">
        <ele>220</ele>
        <time>2022-07-13T22:58:49Z</time>
      </trkpt>
      <trkpt lat="43.16306" lon="6.33922">
        <ele>221</ele>
        <time>2022-07-13T22:58:50Z</time>
      </trkpt>
      <trkpt lat="43.16328" lon="6.3394">
        <ele>228</ele>
        <time>2022-07-13T22:58:55Z</time>
      </trkpt>
      <trkpt lat="43.16334" lon="6.33947">
        <ele>230</ele>
        <time>2022-07-13T22:58:56Z</time>
      </trkpt>
      <trkpt lat="43.16337" lon="6.33957">
        <ele>230</ele>
        <time>2022-07-13T22:58:57Z</time>
      </trkpt>
      <trkpt lat="43.16327" lon="6.34009">
        <ele>222</ele>
        <time>2022-07-13T22:59:04Z</time>
      </trkpt>
      <trkpt lat="43.16326" lon="6.34027">
        <ele>221</ele>
        <time>2022-07-13T22:59:07Z</time>
      </trkpt>
      <trkpt lat="43.16327" lon="6.34045">
        <ele>221</ele>
        <time>2022-07-13T22:59:09Z</time>
      </trkpt>
      <trkpt lat="43.16332" lon="6.34081">
        <ele>221</ele>
        <time>2022-07-13T22:59:14Z</time>
      </trkpt>
      <trkpt lat="43.16345" lon="6.34146">
        <ele>222</ele>
        <time>2022-07-13T22:59:23Z</time>
      </trkpt>
      <trkpt lat="43.16361" lon="6.34199">
        <ele>228</ele>
        <time>2022-07-13T22:59:30Z</time>
      </trkpt>
      <trkpt lat="43.16361" lon="6.34222">
        <ele>227</ele>
        <time>2022-07-13T22:59:33Z</time>
      </trkpt>
      <trkpt lat="43.1635" lon="6.34265">
        <ele>222</ele>
        <time>2022-07-13T22:59:39Z</time>
      </trkpt>
      <trkpt lat="43.1635" lon="6.34285">
        <ele>224</ele>
        <time>2022-07-13T22:59:42Z</time>
      </trkpt>
      <trkpt lat="43.16361" lon="6.34367">
        <ele>237</ele>
        <time>2022-07-13T22:59:52Z</time>
      </trkpt>
      <trkpt lat="43.16368" lon="6.34405">
        <ele>243</ele>
        <time>2022-07-13T22:59:57Z</time>
      </trkpt>
      <trkpt lat="43.16368" lon="6.34415">
        <ele>244</ele>
        <time>2022-07-13T22:59:59Z</time>
      </trkpt>
      <trkpt lat="43.16365" lon="6.34425">
        <ele>245</ele>
        <time>2022-07-13T23:00:00Z</time>
      </trkpt>
      <trkpt lat="43.16361" lon="6.34432">
        <ele>246</ele>
        <time>2022-07-13T23:00:01Z</time>
      </trkpt>
      <trkpt lat="43.16356" lon="6.34436">
        <ele>246</ele>
        <time>2022-07-13T23:00:02Z</time>
      </trkpt>
      <trkpt lat="43.16349" lon="6.34438">
        <ele>244</ele>
        <time>2022-07-13T23:00:04Z</time>
      </trkpt>
      <trkpt lat="43.16342" lon="6.34436">
        <ele>242</ele>
        <time>2022-07-13T23:00:05Z</time>
      </trkpt>
      <trkpt lat="43.16317" lon="6.34406">
        <ele>234</ele>
        <time>2022-07-13T23:00:11Z</time>
      </trkpt>
      <trkpt lat="43.16292" lon="6.34386">
        <ele>232</ele>
        <time>2022-07-13T23:00:16Z</time>
      </trkpt>
      <trkpt lat="43.16274" lon="6.34376">
        <ele>230</ele>
        <time>2022-07-13T23:00:19Z</time>
      </trkpt>
      <trkpt lat="43.16247" lon="6.34367">
        <ele>229</ele>
        <time>2022-07-13T23:00:24Z</time>
      </trkpt>
      <trkpt lat="43.16219" lon="6.34354">
        <ele>228</ele>
        <time>2022-07-13T23:00:30Z</time>
      </trkpt>
      <trkpt lat="43.16158" lon="6.34319">
        <ele>228</ele>
        <time>2022-07-13T23:00:41Z</time>
      </trkpt>
      <trkpt lat="43.16134" lon="6.34309">
        <ele>226</ele>
        <time>2022-07-13T23:00:46Z</time>
      </trkpt>
      <trkpt lat="43.16128" lon="6.34308">
        <ele>226</ele>
        <time>2022-07-13T23:00:47Z</time>
      </trkpt>
      <trkpt lat="43.16119" lon="6.3431">
        <ele>227</ele>
        <time>2022-07-13T23:00:49Z</time>
      </trkpt>
      <trkpt lat="43.16101" lon="6.34329">
        <ele>229</ele>
        <time>2022-07-13T23:00:53Z</time>
      </trkpt>
      <trkpt lat="43.16089" lon="6.34336">
        <ele>229</ele>
        <time>2022-07-13T23:00:55Z</time>
      </trkpt>
      <trkpt lat="43.16076" lon="6.34339">
        <ele>228</ele>
        <time>2022-07-13T23:00:57Z</time>
      </trkpt>
      <trkpt lat="43.16049" lon="6.34339">
        <ele>227</ele>
        <time>2022-07-13T23:01:02Z</time>
      </trkpt>
      <trkpt lat="43.16019" lon="6.34344">
        <ele>225</ele>
        <time>2022-07-13T23:01:07Z</time>
      </trkpt>
      <trkpt lat="43.16002" lon="6.34352">
        <ele>222</ele>
        <time>2022-07-13T23:01:11Z</time>
      </trkpt>
      <trkpt lat="43.15967" lon="6.34377">
        <ele>217</ele>
        <time>2022-07-13T23:01:18Z</time>
      </trkpt>
      <trkpt lat="43.15959" lon="6.3438">
        <ele>216</ele>
        <time>2022-07-13T23:01:19Z</time>
      </trkpt>
      <trkpt lat="43.15945" lon="6.3438">
        <ele>217</ele>
        <time>2022-07-13T23:01:22Z</time>
      </trkpt>
      <trkpt lat="43.15918" lon="6.34373">
        <ele>220</ele>
        <time>2022-07-13T23:01:27Z</time>
      </trkpt>
      <trkpt lat="43.15907" lon="6.34374">
        <ele>220</ele>
        <time>2022-07-13T23:01:28Z</time>
      </trkpt>
      <trkpt lat="43.15896" lon="6.34377">
        <ele>221</ele>
        <time>2022-07-13T23:01:30Z</time>
      </trkpt>
      <trkpt lat="43.15825" lon="6.34411">
        <ele>216</ele>
        <time>2022-07-13T23:01:44Z</time>
      </trkpt>
      <trkpt lat="43.15775" lon="6.34427">
        <ele>214</ele>
        <time>2022-07-13T23:01:53Z</time>
      </trkpt>
      <trkpt lat="43.15741" lon="6.34445">
        <ele>212</ele>
        <time>2022-07-13T23:01:59Z</time>
      </trkpt>
      <trkpt lat="43.15678" lon="6.34493">
        <ele>208</ele>
        <time>2022-07-13T23:02:12Z</time>
      </trkpt>
      <trkpt lat="43.15651" lon="6.34519">
        <ele>204</ele>
        <time>2022-07-13T23:02:18Z</time>
      </trkpt>
      <trkpt lat="43.1564" lon="6.34535">
        <ele>202</ele>
        <time>2022-07-13T23:02:21Z</time>
      </trkpt>
      <trkpt lat="43.15615" lon="6.3458">
        <ele>194</ele>
        <time>2022-07-13T23:02:28Z</time>
      </trkpt>
      <trkpt lat="43.15587" lon="6.34616">
        <ele>192</ele>
        <time>2022-07-13T23:02:35Z</time>
      </trkpt>
      <trkpt lat="43.1558" lon="6.34628">
        <ele>189</ele>
        <time>2022-07-13T23:02:37Z</time>
      </trkpt>
      <trkpt lat="43.15577" lon="6.34641">
        <ele>187</ele>
        <time>2022-07-13T23:02:39Z</time>
      </trkpt>
      <trkpt lat="43.1557" lon="6.34693">
        <ele>181</ele>
        <time>2022-07-13T23:02:46Z</time>
      </trkpt>
      <trkpt lat="43.15566" lon="6.34701">
        <ele>180</ele>
        <time>2022-07-13T23:02:47Z</time>
      </trkpt>
      <trkpt lat="43.15561" lon="6.34707">
        <ele>179</ele>
        <time>2022-07-13T23:02:48Z</time>
      </trkpt>
      <trkpt lat="43.15555" lon="6.34709">
        <ele>178</ele>
        <time>2022-07-13T23:02:49Z</time>
      </trkpt>
      <trkpt lat="43.15551" lon="6.34706">
        <ele>178</ele>
        <time>2022-07-13T23:02:50Z</time>
      </trkpt>
      <trkpt lat="43.15548" lon="6.34694">
        <ele>177</ele>
        <time>2022-07-13T23:02:52Z</time>
      </trkpt>
      <trkpt lat="43.15551" lon="6.34668">
        <ele>177</ele>
        <time>2022-07-13T23:02:55Z</time>
      </trkpt>
      <trkpt lat="43.1555" lon="6.34645">
        <ele>181</ele>
        <time>2022-07-13T23:02:58Z</time>
      </trkpt>
      <trkpt lat="43.15548" lon="6.34633">
        <ele>182</ele>
        <time>2022-07-13T23:03:00Z</time>
      </trkpt>
      <trkpt lat="43.15543" lon="6.34622">
        <ele>183</ele>
        <time>2022-07-13T23:03:02Z</time>
      </trkpt>
      <trkpt lat="43.1553" lon="6.34603">
        <ele>183</ele>
        <time>2022-07-13T23:03:05Z</time>
      </trkpt>
      <trkpt lat="43.15521" lon="6.34594">
        <ele>183</ele>
        <time>2022-07-13T23:03:07Z</time>
      </trkpt>
      <trkpt lat="43.15471" lon="6.34571">
        <ele>176</ele>
        <time>2022-07-13T23:03:16Z</time>
      </trkpt>
      <trkpt lat="43.1545" lon="6.34558">
        <ele>175</ele>
        <time>2022-07-13T23:03:20Z</time>
      </trkpt>
      <trkpt lat="43.15423" lon="6.34533">
        <ele>176</ele>
        <time>2022-07-13T23:03:26Z</time>
      </trkpt>
      <trkpt lat="43.15414" lon="6.34528">
        <ele>175</ele>
        <time>2022-07-13T23:03:28Z</time>
      </trkpt>
      <trkpt lat="43.15394" lon="6.34523">
        <ele>175</ele>
        <time>2022-07-13T23:03:31Z</time>
      </trkpt>
      <trkpt lat="43.15318" lon="6.34522">
        <ele>169</ele>
        <time>2022-07-13T23:03:45Z</time>
      </trkpt>
      <trkpt lat="43.1531" lon="6.34525">
        <ele>168</ele>
        <time>2022-07-13T23:03:46Z</time>
      </trkpt>
      <trkpt lat="43.15276" lon="6.34546">
        <ele>161</ele>
        <time>2022-07-13T23:03:53Z</time>
      </trkpt>
      <trkpt lat="43.15263" lon="6.34551">
        <ele>159</ele>
        <time>2022-07-13T23:03:56Z</time>
      </trkpt>
      <trkpt lat="43.15231" lon="6.34559">
        <ele>153</ele>
        <time>2022-07-13T23:04:01Z</time>
      </trkpt>
      <trkpt lat="43.15219" lon="6.3456">
        <ele>150</ele>
        <time>2022-07-13T23:04:03Z</time>
      </trkpt>
      <trkpt lat="43.15208" lon="6.34554">
        <ele>149</ele>
        <time>2022-07-13T23:04:06Z</time>
      </trkpt>
      <trkpt lat="43.15169" lon="6.34511">
        <ele>150</ele>
        <time>2022-07-13T23:04:14Z</time>
      </trkpt>
      <trkpt lat="43.15162" lon="6.34487">
        <ele>151</ele>
        <time>2022-07-13T23:04:18Z</time>
      </trkpt>
      <trkpt lat="43.15162" lon="6.3447">
        <ele>151</ele>
        <time>2022-07-13T23:04:20Z</time>
      </trkpt>
      <trkpt lat="43.15151" lon="6.34432">
        <ele>150</ele>
        <time>2022-07-13T23:04:25Z</time>
      </trkpt>
      <trkpt lat="43.15151" lon="6.34423">
        <ele>150</ele>
        <time>2022-07-13T23:04:27Z</time>
      </trkpt>
      <trkpt lat="43.15154" lon="6.34411">
        <ele>150</ele>
        <time>2022-07-13T23:04:28Z</time>
      </trkpt>
      <trkpt lat="43.15182" lon="6.34374">
        <ele>153</ele>
        <time>2022-07-13T23:04:35Z</time>
      </trkpt>
      <trkpt lat="43.15184" lon="6.34369">
        <ele>153</ele>
        <time>2022-07-13T23:04:36Z</time>
      </trkpt>
      <trkpt lat="43.15188" lon="6.34356">
        <ele>153</ele>
        <time>2022-07-13T23:04:38Z</time>
      </trkpt>
      <trkpt lat="43.15186" lon="6.34345">
        <ele>151</ele>
        <time>2022-07-13T23:04:39Z</time>
      </trkpt>
      <trkpt lat="43.15189" lon="6.34334">
        <ele>152</ele>
        <time>2022-07-13T23:04:41Z</time>
      </trkpt>
      <trkpt lat="43.15189" lon="6.34309">
        <ele>152</ele>
        <time>2022-07-13T23:04:44Z</time>
      </trkpt>
      <trkpt lat="43.15182" lon="6.34302">
        <ele>150</ele>
        <time>2022-07-13T23:04:45Z</time>
      </trkpt>
      <trkpt lat="43.1518" lon="6.34282">
        <ele>150</ele>
        <time>2022-07-13T23:04:48Z</time>
      </trkpt>
      <trkpt lat="43.15176" lon="6.34276">
        <ele>149</ele>
        <time>2022-07-13T23:04:49Z</time>
      </trkpt>
      <trkpt lat="43.15169" lon="6.34276">
        <ele>147</ele>
        <time>2022-07-13T23:04:50Z</time>
      </trkpt>
      <trkpt lat="43.15164" lon="6.3428">
        <ele>146</ele>
        <time>2022-07-13T23:04:51Z</time>
      </trkpt>
      <trkpt lat="43.15162" lon="6.34287">
        <ele>145</ele>
        <time>2022-07-13T23:04:52Z</time>
      </trkpt>
      <trkpt lat="43.15161" lon="6.34334">
        <ele>143</ele>
        <time>2022-07-13T23:04:58Z</time>
      </trkpt>
      <trkpt lat="43.15159" lon="6.34344">
        <ele>144</ele>
        <time>2022-07-13T23:05:00Z</time>
      </trkpt>
      <trkpt lat="43.15156" lon="6.34353">
        <ele>144</ele>
        <time>2022-07-13T23:05:01Z</time>
      </trkpt>
      <trkpt lat="43.15151" lon="6.34358">
        <ele>144</ele>
        <time>2022-07-13T23:05:02Z</time>
      </trkpt>
      <trkpt lat="43.1514" lon="6.3436">
        <ele>142</ele>
        <time>2022-07-13T23:05:04Z</time>
      </trkpt>
      <trkpt lat="43.15108" lon="6.34352">
        <ele>136</ele>
        <time>2022-07-13T23:05:10Z</time>
      </trkpt>
      <trkpt lat="43.15079" lon="6.34341">
        <ele>130</ele>
        <time>2022-07-13T23:05:15Z</time>
      </trkpt>
      <trkpt lat="43.15069" lon="6.34333">
        <ele>128</ele>
        <time>2022-07-13T23:05:17Z</time>
      </trkpt>
      <trkpt lat="43.15056" lon="6.34316">
        <ele>127</ele>
        <time>2022-07-13T23:05:21Z</time>
      </trkpt>
      <trkpt lat="43.15027" lon="6.3427">
        <ele>122</ele>
        <time>2022-07-13T23:05:28Z</time>
      </trkpt>
      <trkpt lat="43.15018" lon="6.34272">
        <ele>121</ele>
        <time>2022-07-13T23:05:30Z</time>
      </trkpt>
      <trkpt lat="43.14953" lon="6.34246">
        <ele>111</ele>
        <time>2022-07-13T23:05:42Z</time>
      </trkpt>
      <trkpt lat="43.14943" lon="6.34243">
        <ele>109</ele>
        <time>2022-07-13T23:05:44Z</time>
      </trkpt>
      <trkpt lat="43.14938" lon="6.34244">
        <ele>109</ele>
        <time>2022-07-13T23:05:45Z</time>
      </trkpt>
      <trkpt lat="43.14932" lon="6.34231">
        <ele>108</ele>
        <time>2022-07-13T23:05:47Z</time>
      </trkpt>
      <trkpt lat="43.14927" lon="6.34226">
        <ele>107</ele>
        <time>2022-07-13T23:05:48Z</time>
      </trkpt>
      <trkpt lat="43.14918" lon="6.34224">
        <ele>106</ele>
        <time>2022-07-13T23:05:50Z</time>
      </trkpt>
      <trkpt lat="43.14909" lon="6.34228">
        <ele>103</ele>
        <time>2022-07-13T23:05:51Z</time>
      </trkpt>
      <trkpt lat="43.14905" lon="6.34233">
        <ele>102</ele>
        <time>2022-07-13T23:05:52Z</time>
      </trkpt>
      <trkpt lat="43.14903" lon="6.34241">
        <ele>102</ele>
        <time>2022-07-13T23:05:53Z</time>
      </trkpt>
      <trkpt lat="43.14902" lon="6.34252">
        <ele>102</ele>
        <time>2022-07-13T23:05:55Z</time>
      </trkpt>
      <trkpt lat="43.14905" lon="6.34277">
        <ele>102</ele>
        <time>2022-07-13T23:05:58Z</time>
      </trkpt>
      <trkpt lat="43.14911" lon="6.34303">
        <ele>104</ele>
        <time>2022-07-13T23:06:02Z</time>
      </trkpt>
      <trkpt lat="43.14927" lon="6.34347">
        <ele>107</ele>
        <time>2022-07-13T23:06:08Z</time>
      </trkpt>
      <trkpt lat="43.14928" lon="6.34357">
        <ele>107</ele>
        <time>2022-07-13T23:06:09Z</time>
      </trkpt>
      <trkpt lat="43.14926" lon="6.34454">
        <ele>104</ele>
        <time>2022-07-13T23:06:22Z</time>
      </trkpt>
      <trkpt lat="43.14921" lon="6.34544">
        <ele>105</ele>
        <time>2022-07-13T23:06:34Z</time>
      </trkpt>
      <trkpt lat="43.14918" lon="6.34565">
        <ele>105</ele>
        <time>2022-07-13T23:06:36Z</time>
      </trkpt>
      <trkpt lat="43.14913" lon="6.34582">
        <ele>105</ele>
        <time>2022-07-13T23:06:39Z</time>
      </trkpt>
      <trkpt lat="43.14903" lon="6.34607">
        <ele>106</ele>
        <time>2022-07-13T23:06:42Z</time>
      </trkpt>
      <trkpt lat="43.14899" lon="6.3461">
        <ele>106</ele>
        <time>2022-07-13T23:06:43Z</time>
      </trkpt>
      <trkpt lat="43.14895" lon="6.3461">
        <ele>105</ele>
        <time>2022-07-13T23:06:44Z</time>
      </trkpt>
      <trkpt lat="43.14891" lon="6.34607">
        <ele>103</ele>
        <time>2022-07-13T23:06:45Z</time>
      </trkpt>
      <trkpt lat="43.14889" lon="6.34602">
        <ele>102</ele>
        <time>2022-07-13T23:06:46Z</time>
      </trkpt>
      <trkpt lat="43.14888" lon="6.34594">
        <ele>100</ele>
        <time>2022-07-13T23:06:47Z</time>
      </trkpt>
      <trkpt lat="43.14902" lon="6.34536">
        <ele>99</ele>
        <time>2022-07-13T23:06:55Z</time>
      </trkpt>
      <trkpt lat="43.14906" lon="6.34506">
        <ele>98</ele>
        <time>2022-07-13T23:06:58Z</time>
      </trkpt>
      <trkpt lat="43.14905" lon="6.34489">
        <ele>97</ele>
        <time>2022-07-13T23:07:01Z</time>
      </trkpt>
      <trkpt lat="43.1489" lon="6.34388">
        <ele>92</ele>
        <time>2022-07-13T23:07:14Z</time>
      </trkpt>
      <trkpt lat="43.14884" lon="6.34371">
        <ele>91</ele>
        <time>2022-07-13T23:07:17Z</time>
      </trkpt>
      <trkpt lat="43.14865" lon="6.34344">
        <ele>86</ele>
        <time>2022-07-13T23:07:21Z</time>
      </trkpt>
      <trkpt lat="43.14855" lon="6.34322">
        <ele>83</ele>
        <time>2022-07-13T23:07:25Z</time>
      </trkpt>
      <trkpt lat="43.14849" lon="6.34298">
        <ele>82</ele>
        <time>2022-07-13T23:07:28Z</time>
      </trkpt>
      <trkpt lat="43.14848" lon="6.34276">
        <ele>82</ele>
        <time>2022-07-13T23:07:31Z</time>
      </trkpt>
      <trkpt lat="43.1485" lon="6.34243">
        <ele>84</ele>
        <time>2022-07-13T23:07:35Z</time>
      </trkpt>
      <trkpt lat="43.14849" lon="6.34228">
        <ele>84</ele>
        <time>2022-07-13T23:07:37Z</time>
      </trkpt>
      <trkpt lat="43.14847" lon="6.34215">
        <ele>85</ele>
        <time>2022-07-13T23:07:39Z</time>
      </trkpt>
      <trkpt lat="43.14837" lon="6.34188">
        <ele>83</ele>
        <time>2022-07-13T23:07:43Z</time>
      </trkpt>
      <trkpt lat="43.14813" lon="6.34155">
        <ele>81</ele>
        <time>2022-07-13T23:07:49Z</time>
      </trkpt>
      <trkpt lat="43.14782" lon="6.34124">
        <ele>78</ele>
        <time>2022-07-13T23:07:56Z</time>
      </trkpt>
      <trkpt lat="43.14693" lon="6.34068">
        <ele>69</ele>
        <time>2022-07-13T23:08:13Z</time>
      </trkpt>
      <trkpt lat="43.14681" lon="6.34053">
        <ele>68</ele>
        <time>2022-07-13T23:08:16Z</time>
      </trkpt>
      <trkpt lat="43.14661" lon="6.34015">
        <ele>67</ele>
        <time>2022-07-13T23:08:22Z</time>
      </trkpt>
      <trkpt lat="43.14583" lon="6.33937">
        <ele>61</ele>
        <time>2022-07-13T23:08:39Z</time>
      </trkpt>
      <trkpt lat="43.14564" lon="6.33922">
        <ele>60</ele>
        <time>2022-07-13T23:08:43Z</time>
      </trkpt>
      <trkpt lat="43.14495" lon="6.3389">
        <ele>54</ele>
        <time>2022-07-13T23:08:56Z</time>
      </trkpt>
      <trkpt lat="43.14484" lon="6.33876">
        <ele>53</ele>
        <time>2022-07-13T23:08:59Z</time>
      </trkpt>
      <trkpt lat="43.14478" lon="6.3386">
        <ele>53</ele>
        <time>2022-07-13T23:09:01Z</time>
      </trkpt>
      <trkpt lat="43.14474" lon="6.33845">
        <ele>53</ele>
        <time>2022-07-13T23:09:03Z</time>
      </trkpt>
      <trkpt lat="43.14465" lon="6.33823">
        <ele>51</ele>
        <time>2022-07-13T23:09:06Z</time>
      </trkpt>
      <trkpt lat="43.14463" lon="6.3382">
        <ele>51</ele>
        <time>2022-07-13T23:09:07Z</time>
      </trkpt>
      <trkpt lat="43.14457" lon="6.33819">
        <ele>50</ele>
        <time>2022-07-13T23:09:08Z</time>
      </trkpt>
      <trkpt lat="43.14435" lon="6.3383">
        <ele>49</ele>
        <time>2022-07-13T23:09:12Z</time>
      </trkpt>
      <trkpt lat="43.14397" lon="6.33832">
        <ele>47</ele>
        <time>2022-07-13T23:09:19Z</time>
      </trkpt>
      <trkpt lat="43.14373" lon="6.33827">
        <ele>45</ele>
        <time>2022-07-13T23:09:23Z</time>
      </trkpt>
      <trkpt lat="43.14348" lon="6.33826">
        <ele>43</ele>
        <time>2022-07-13T23:09:28Z</time>
      </trkpt>
      <trkpt lat="43.14285" lon="6.33831">
        <ele>39</ele>
        <time>2022-07-13T23:09:39Z</time>
      </trkpt>
      <trkpt lat="43.14273" lon="6.33832">
        <ele>39</ele>
        <time>2022-07-13T23:09:41Z</time>
      </trkpt>
      <trkpt lat="43.14256" lon="6.33828">
        <ele>37</ele>
        <time>2022-07-13T23:09:44Z</time>
      </trkpt>
      <trkpt lat="43.14246" lon="6.33818">
        <ele>36</ele>
        <time>2022-07-13T23:09:46Z</time>
      </trkpt>
      <trkpt lat="43.14243" lon="6.33809">
        <ele>36</ele>
        <time>2022-07-13T23:09:48Z</time>
      </trkpt>
      <trkpt lat="43.14241" lon="6.33793">
        <ele>35</ele>
        <time>2022-07-13T23:09:50Z</time>
      </trkpt>
      <trkpt lat="43.14246" lon="6.33779">
        <ele>34</ele>
        <time>2022-07-13T23:09:52Z</time>
      </trkpt>
      <trkpt lat="43.14269" lon="6.33734">
        <ele>34</ele>
        <time>2022-07-13T23:09:59Z</time>
      </trkpt>
      <trkpt lat="43.1428" lon="6.33709">
        <ele>34</ele>
        <time>2022-07-13T23:10:03Z</time>
      </trkpt>
      <trkpt lat="43.14281" lon="6.33696">
        <ele>33</ele>
        <time>2022-07-13T23:10:04Z</time>
      </trkpt>
      <trkpt lat="43.14283" lon="6.33692">
        <ele>33</ele>
        <time>2022-07-13T23:10:05Z</time>
      </trkpt>
      <trkpt lat="43.14286" lon="6.33681">
        <ele>33</ele>
        <time>2022-07-13T23:10:07Z</time>
      </trkpt>
      <trkpt lat="43.14283" lon="6.3367">
        <ele>33</ele>
        <time>2022-07-13T23:10:08Z</time>
      </trkpt>
      <trkpt lat="43.14276" lon="6.33662">
        <ele>32</ele>
        <time>2022-07-13T23:10:10Z</time>
      </trkpt>
      <trkpt lat="43.14266" lon="6.33662">
        <ele>32</ele>
        <time>2022-07-13T23:10:12Z</time>
      </trkpt>
      <trkpt lat="43.14259" lon="6.33669">
        <ele>31</ele>
        <time>2022-07-13T23:10:13Z</time>
      </trkpt>
      <trkpt lat="43.14257" lon="6.33681">
        <ele>32</ele>
        <time>2022-07-13T23:10:15Z</time>
      </trkpt>
      <trkpt lat="43.14259" lon="6.33691">
        <ele>32</ele>
        <time>2022-07-13T23:10:16Z</time>
      </trkpt>
      <trkpt lat="43.14264" lon="6.33698">
        <ele>32</ele>
        <time>2022-07-13T23:10:17Z</time>
      </trkpt>
      <trkpt lat="43.14267" lon="6.337">
        <ele>33</ele>
        <time>2022-07-13T23:10:18Z</time>
      </trkpt>
      <trkpt lat="43.14272" lon="6.33711">
        <ele>33</ele>
        <time>2022-07-13T23:10:20Z</time>
      </trkpt>
      <trkpt lat="43.14273" lon="6.33724">
        <ele>34</ele>
        <time>2022-07-13T23:10:21Z</time>
      </trkpt>
      <trkpt lat="43.14269" lon="6.33734">
        <ele>34</ele>
        <time>2022-07-13T23:10:23Z</time>
      </trkpt>
      <trkpt lat="43.14278" lon="6.33738">
        <ele>34</ele>
        <time>2022-07-13T23:10:24Z</time>
      </trkpt>
      <trkpt lat="43.14282" lon="6.33736">
        <ele>35</ele>
        <time>2022-07-13T23:10:25Z</time>
      </trkpt>
      <trkpt lat="43.14287" lon="6.33713">
        <ele>34</ele>
        <time>2022-07-13T23:10:28Z</time>
      </trkpt>
      <trkpt lat="43.14297" lon="6.33652">
        <ele>33</ele>
        <time>2022-07-13T23:10:36Z</time>
      </trkpt>
      <trkpt lat="43.14301" lon="6.33608">
        <ele>32</ele>
        <time>2022-07-13T23:10:42Z</time>
      </trkpt>
      <trkpt lat="43.14303" lon="6.33561">
        <ele>32</ele>
        <time>2022-07-13T23:10:48Z</time>
      </trkpt>
      <trkpt lat="43.14289" lon="6.33488">
        <ele>33</ele>
        <time>2022-07-13T23:10:58Z</time>
      </trkpt>
      <trkpt lat="43.14251" lon="6.33385">
        <ele>34</ele>
        <time>2022-07-13T23:11:13Z</time>
      </trkpt>
      <trkpt lat="43.14238" lon="6.33344">
        <ele>34</ele>
        <time>2022-07-13T23:11:19Z</time>
      </trkpt>
      <trkpt lat="43.14231" lon="6.33297">
        <ele>34</ele>
        <time>2022-07-13T23:11:25Z</time>
      </trkpt>
      <trkpt lat="43.14233" lon="6.33239">
        <ele>36</ele>
        <time>2022-07-13T23:11:33Z</time>
      </trkpt>
      <trkpt lat="43.14252" lon="6.3318">
        <ele>40</ele>
        <time>2022-07-13T23:11:41Z</time>
      </trkpt>
      <trkpt lat="43.14282" lon="6.33139">
        <ele>44</ele>
        <time>2022-07-13T23:11:49Z</time>
      </trkpt>
      <trkpt lat="43.14315" lon="6.33117">
        <ele>47</ele>
        <time>2022-07-13T23:11:55Z</time>
      </trkpt>
      <trkpt lat="43.14378" lon="6.3309">
        <ele>49</ele>
        <time>2022-07-13T23:12:07Z</time>
      </trkpt>
      <trkpt lat="43.14417" lon="6.3306">
        <ele>48</ele>
        <time>2022-07-13T23:12:15Z</time>
      </trkpt>
      <trkpt lat="43.14437" lon="6.33026">
        <ele>49</ele>
        <time>2022-07-13T23:12:20Z</time>
      </trkpt>
      <trkpt lat="43.14451" lon="6.32997">
        <ele>49</ele>
        <time>2022-07-13T23:12:25Z</time>
      </trkpt>
      <trkpt lat="43.14495" lon="6.32772">
        <ele>45</ele>
        <time>2022-07-13T23:12:55Z</time>
      </trkpt>
      <trkpt lat="43.14504" lon="6.32738">
        <ele>44</ele>
        <time>2022-07-13T23:13:00Z</time>
      </trkpt>
      <trkpt lat="43.14607" lon="6.32547">
        <ele>38</ele>
        <time>2022-07-13T23:13:31Z</time>
      </trkpt>
      <trkpt lat="43.14623" lon="6.3251">
        <ele>38</ele>
        <time>2022-07-13T23:13:36Z</time>
      </trkpt>
      <trkpt lat="43.14653" lon="6.32378">
        <ele>37</ele>
        <time>2022-07-13T23:13:54Z</time>
      </trkpt>
      <trkpt lat="43.14675" lon="6.32253">
        <ele>41</ele>
        <time>2022-07-13T23:14:11Z</time>
      </trkpt>
      <trkpt lat="43.14701" lon="6.3213">
        <ele>42</ele>
        <time>2022-07-13T23:14:28Z</time>
      </trkpt>
      <trkpt lat="43.14704" lon="6.32094">
        <ele>41</ele>
        <time>2022-07-13T23:14:32Z</time>
      </trkpt>
      <trkpt lat="43.14702" lon="6.3204">
        <ele>38</ele>
        <time>2022-07-13T23:14:39Z</time>
      </trkpt>
      <trkpt lat="43.14697" lon="6.32001">
        <ele>35</ele>
        <time>2022-07-13T23:14:44Z</time>
      </trkpt>
      <trkpt lat="43.14692" lon="6.31946">
        <ele>33</ele>
        <time>2022-07-13T23:14:52Z</time>
      </trkpt>
      <trkpt lat="43.14688" lon="6.31911">
        <ele>33</ele>
        <time>2022-07-13T23:14:56Z</time>
      </trkpt>
      <trkpt lat="43.14687" lon="6.31847">
        <ele>37</ele>
        <time>2022-07-13T23:15:05Z</time>
      </trkpt>
      <trkpt lat="43.14695" lon="6.31801">
        <ele>42</ele>
        <time>2022-07-13T23:15:11Z</time>
      </trkpt>
      <trkpt lat="43.14717" lon="6.3175">
        <ele>45</ele>
        <time>2022-07-13T23:15:18Z</time>
      </trkpt>
      <trkpt lat="43.14745" lon="6.31702">
        <ele>46</ele>
        <time>2022-07-13T23:15:26Z</time>
      </trkpt>
      <trkpt lat="43.14774" lon="6.31647">
        <ele>50</ele>
        <time>2022-07-13T23:15:35Z</time>
      </trkpt>
      <trkpt lat="43.14884" lon="6.31536">
        <ele>52</ele>
        <time>2022-07-13T23:15:59Z</time>
      </trkpt>
      <trkpt lat="43.14977" lon="6.31461">
        <ele>52</ele>
        <time>2022-07-13T23:16:19Z</time>
      </trkpt>
      <trkpt lat="43.15" lon="6.31437">
        <ele>53</ele>
        <time>2022-07-13T23:16:24Z</time>
      </trkpt>
      <trkpt lat="43.15023" lon="6.31387">
        <ele>54</ele>
        <time>2022-07-13T23:16:31Z</time>
      </trkpt>
      <trkpt lat="43.15032" lon="6.31343">
        <ele>55</ele>
        <time>2022-07-13T23:16:37Z</time>
      </trkpt>
      <trkpt lat="43.15034" lon="6.31285">
        <ele>57</ele>
        <time>2022-07-13T23:16:45Z</time>
      </trkpt>
      <trkpt lat="43.15021" lon="6.31212">
        <ele>61</ele>
        <time>2022-07-13T23:16:55Z</time>
      </trkpt>
      <trkpt lat="43.15016" lon="6.31155">
        <ele>63</ele>
        <time>2022-07-13T23:17:02Z</time>
      </trkpt>
      <trkpt lat="43.15049" lon="6.30894">
        <ele>71</ele>
        <time>2022-07-13T23:17:37Z</time>
      </trkpt>
      <trkpt lat="43.1505" lon="6.3084">
        <ele>73</ele>
        <time>2022-07-13T23:17:44Z</time>
      </trkpt>
      <trkpt lat="43.15024" lon="6.30721">
        <ele>78</ele>
        <time>2022-07-13T23:18:00Z</time>
      </trkpt>
      <trkpt lat="43.15009" lon="6.30674">
        <ele>79</ele>
        <time>2022-07-13T23:18:06Z</time>
      </trkpt>
      <trkpt lat="43.14975" lon="6.30606">
        <ele>84</ele>
        <time>2022-07-13T23:18:17Z</time>
      </trkpt>
      <trkpt lat="43.14945" lon="6.30566">
        <ele>88</ele>
        <time>2022-07-13T23:18:24Z</time>
      </trkpt>
      <trkpt lat="43.14908" lon="6.30509">
        <ele>87</ele>
        <time>2022-07-13T23:18:34Z</time>
      </trkpt>
      <trkpt lat="43.14888" lon="6.30465">
        <ele>89</ele>
        <time>2022-07-13T23:18:41Z</time>
      </trkpt>
      <trkpt lat="43.14874" lon="6.30417">
        <ele>87</ele>
        <time>2022-07-13T23:18:48Z</time>
      </trkpt>
      <trkpt lat="43.14868" lon="6.30383">
        <ele>85</ele>
        <time>2022-07-13T23:18:52Z</time>
      </trkpt>
      <trkpt lat="43.1486" lon="6.30348">
        <ele>82</ele>
        <time>2022-07-13T23:18:57Z</time>
      </trkpt>
      <trkpt lat="43.14862" lon="6.30174">
        <ele>75</ele>
        <time>2022-07-13T23:19:20Z</time>
      </trkpt>
      <trkpt lat="43.14867" lon="6.30089">
        <ele>72</ele>
        <time>2022-07-13T23:19:31Z</time>
      </trkpt>
      <trkpt lat="43.14894" lon="6.29978">
        <ele>69</ele>
        <time>2022-07-13T23:19:46Z</time>
      </trkpt>
      <trkpt lat="43.14965" lon="6.29736">
        <ele>66</ele>
        <time>2022-07-13T23:20:20Z</time>
      </trkpt>
      <trkpt lat="43.14981" lon="6.29672">
        <ele>64</ele>
        <time>2022-07-13T23:20:29Z</time>
      </trkpt>
      <trkpt lat="43.14985" lon="6.29648">
        <ele>63</ele>
        <time>2022-07-13T23:20:32Z</time>
      </trkpt>
      <trkpt lat="43.14986" lon="6.29623">
        <ele>63</ele>
        <time>2022-07-13T23:20:35Z</time>
      </trkpt>
      <trkpt lat="43.14986" lon="6.29598">
        <ele>62</ele>
        <time>2022-07-13T23:20:38Z</time>
      </trkpt>
      <trkpt lat="43.14979" lon="6.29527">
        <ele>64</ele>
        <time>2022-07-13T23:20:48Z</time>
      </trkpt>
      <trkpt lat="43.1495" lon="6.29308">
        <ele>71</ele>
        <time>2022-07-13T23:21:17Z</time>
      </trkpt>
      <trkpt lat="43.14944" lon="6.29246">
        <ele>72</ele>
        <time>2022-07-13T23:21:25Z</time>
      </trkpt>
      <trkpt lat="43.14946" lon="6.29211">
        <ele>71</ele>
        <time>2022-07-13T23:21:29Z</time>
      </trkpt>
      <trkpt lat="43.14953" lon="6.29185">
        <ele>71</ele>
        <time>2022-07-13T23:21:33Z</time>
      </trkpt>
      <trkpt lat="43.1497" lon="6.29155">
        <ele>72</ele>
        <time>2022-07-13T23:21:38Z</time>
      </trkpt>
      <trkpt lat="43.15018" lon="6.28955">
        <ele>78</ele>
        <time>2022-07-13T23:22:05Z</time>
      </trkpt>
      <trkpt lat="43.15047" lon="6.28819">
        <ele>85</ele>
        <time>2022-07-13T23:22:23Z</time>
      </trkpt>
      <trkpt lat="43.15063" lon="6.28691">
        <ele>92</ele>
        <time>2022-07-13T23:22:40Z</time>
      </trkpt>
      <trkpt lat="43.15063" lon="6.28625">
        <ele>92</ele>
        <time>2022-07-13T23:22:49Z</time>
      </trkpt>
      <trkpt lat="43.15057" lon="6.28556">
        <ele>90</ele>
        <time>2022-07-13T23:22:58Z</time>
      </trkpt>
      <trkpt lat="43.15044" lon="6.28483">
        <ele>87</ele>
        <time>2022-07-13T23:23:08Z</time>
      </trkpt>
      <trkpt lat="43.15027" lon="6.2841">
        <ele>84</ele>
        <time>2022-07-13T23:23:18Z</time>
      </trkpt>
      <trkpt lat="43.14947" lon="6.28083">
        <ele>76</ele>
        <time>2022-07-13T23:24:02Z</time>
      </trkpt>
      <trkpt lat="43.14912" lon="6.2795">
        <ele>70</ele>
        <time>2022-07-13T23:24:21Z</time>
      </trkpt>
      <trkpt lat="43.14894" lon="6.2787">
        <ele>68</ele>
        <time>2022-07-13T23:24:32Z</time>
      </trkpt>
      <trkpt lat="43.14878" lon="6.27759">
        <ele>65</ele>
        <time>2022-07-13T23:24:46Z</time>
      </trkpt>
      <trkpt lat="43.1487" lon="6.2769">
        <ele>62</ele>
        <time>2022-07-13T23:24:55Z</time>
      </trkpt>
      <trkpt lat="43.14861" lon="6.27653">
        <ele>61</ele>
        <time>2022-07-13T23:25:00Z</time>
      </trkpt>
      <trkpt lat="43.14851" lon="6.27559">
        <ele>60</ele>
        <time>2022-07-13T23:25:13Z</time>
      </trkpt>
      <trkpt lat="43.14845" lon="6.27444">
        <ele>59</ele>
        <time>2022-07-13T23:25:28Z</time>
      </trkpt>
      <trkpt lat="43.14815" lon="6.27178">
        <ele>57</ele>
        <time>2022-07-13T23:26:03Z</time>
      </trkpt>
      <trkpt lat="43.148" lon="6.26948">
        <ele>50</ele>
        <time>2022-07-13T23:26:33Z</time>
      </trkpt>
      <trkpt lat="43.14791" lon="6.26819">
        <ele>50</ele>
        <time>2022-07-13T23:26:49Z</time>
      </trkpt>
      <trkpt lat="43.14763" lon="6.26504">
        <ele>44</ele>
        <time>2022-07-13T23:27:31Z</time>
      </trkpt>
      <trkpt lat="43.14738" lon="6.26329">
        <ele>46</ele>
        <time>2022-07-13T23:27:54Z</time>
      </trkpt>
      <trkpt lat="43.14671" lon="6.25945">
        <ele>38</ele>
        <time>2022-07-13T23:28:45Z</time>
      </trkpt>
      <trkpt lat="43.14669" lon="6.25933">
        <ele>37</ele>
        <time>2022-07-13T23:28:47Z</time>
      </trkpt>
      <trkpt lat="43.1467" lon="6.25911">
        <ele>36</ele>
        <time>2022-07-13T23:28:50Z</time>
      </trkpt>
      <trkpt lat="43.14669" lon="6.25901">
        <ele>35</ele>
        <time>2022-07-13T23:28:51Z</time>
      </trkpt>
      <trkpt lat="43.14625" lon="6.25674">
        <ele>31</ele>
        <time>2022-07-13T23:29:21Z</time>
      </trkpt>
      <trkpt lat="43.14614" lon="6.25579">
        <ele>27</ele>
        <time>2022-07-13T23:29:34Z</time>
      </trkpt>
      <trkpt lat="43.14601" lon="6.25413">
        <ele>28</ele>
        <time>2022-07-13T23:29:55Z</time>
      </trkpt>
      <trkpt lat="43.14594" lon="6.25317">
        <ele>25</ele>
        <time>2022-07-13T23:30:08Z</time>
      </trkpt>
      <trkpt lat="43.1459" lon="6.25277">
        <ele>24</ele>
        <time>2022-07-13T23:30:13Z</time>
      </trkpt>
      <trkpt lat="43.14581" lon="6.25223">
        <ele>23</ele>
        <time>2022-07-13T23:30:20Z</time>
      </trkpt>
      <trkpt lat="43.14547" lon="6.25132">
        <ele>22</ele>
        <time>2022-07-13T23:30:34Z</time>
      </trkpt>
      <trkpt lat="43.14527" lon="6.25076">
        <ele>22</ele>
        <time>2022-07-13T23:30:42Z</time>
      </trkpt>
      <trkpt lat="43.14507" lon="6.25037">
        <ele>22</ele>
        <time>2022-07-13T23:30:48Z</time>
      </trkpt>
      <trkpt lat="43.14452" lon="6.24959">
        <ele>25</ele>
        <time>2022-07-13T23:31:02Z</time>
      </trkpt>
      <trkpt lat="43.14445" lon="6.24955">
        <ele>25</ele>
        <time>2022-07-13T23:31:03Z</time>
      </trkpt>
      <trkpt lat="43.14438" lon="6.24956">
        <ele>25</ele>
        <time>2022-07-13T23:31:05Z</time>
      </trkpt>
      <trkpt lat="43.1443" lon="6.24961">
        <ele>25</ele>
        <time>2022-07-13T23:31:06Z</time>
      </trkpt>
      <trkpt lat="43.14415" lon="6.2498">
        <ele>24</ele>
        <time>2022-07-13T23:31:10Z</time>
      </trkpt>
      <trkpt lat="43.14413" lon="6.24992">
        <ele>23</ele>
        <time>2022-07-13T23:31:11Z</time>
      </trkpt>
      <trkpt lat="43.14411" lon="6.24994">
        <ele>23</ele>
        <time>2022-07-13T23:31:12Z</time>
      </trkpt>
      <trkpt lat="43.14403" lon="6.24991">
        <ele>22</ele>
        <time>2022-07-13T23:31:13Z</time>
      </trkpt>
      <trkpt lat="43.14396" lon="6.24984">
        <ele>22</ele>
        <time>2022-07-13T23:31:15Z</time>
      </trkpt>
      <trkpt lat="43.14383" lon="6.2491">
        <ele>25</ele>
        <time>2022-07-13T23:31:25Z</time>
      </trkpt>
      <trkpt lat="43.1437" lon="6.24871">
        <ele>26</ele>
        <time>2022-07-13T23:31:30Z</time>
      </trkpt>
      <trkpt lat="43.14308" lon="6.24789">
        <ele>27</ele>
        <time>2022-07-13T23:31:46Z</time>
      </trkpt>
      <trkpt lat="43.14279" lon="6.24746">
        <ele>27</ele>
        <time>2022-07-13T23:31:53Z</time>
      </trkpt>
      <trkpt lat="43.14251" lon="6.2469">
        <ele>29</ele>
        <time>2022-07-13T23:32:02Z</time>
      </trkpt>
      <trkpt lat="43.14188" lon="6.24486">
        <ele>27</ele>
        <time>2022-07-13T23:32:31Z</time>
      </trkpt>
      <trkpt lat="43.14091" lon="6.24144">
        <ele>23</ele>
        <time>2022-07-13T23:33:19Z</time>
      </trkpt>
      <trkpt lat="43.14041" lon="6.23972">
        <ele>28</ele>
        <time>2022-07-13T23:33:43Z</time>
      </trkpt>
      <trkpt lat="43.14005" lon="6.2395">
        <ele>31</ele>
        <time>2022-07-13T23:33:50Z</time>
      </trkpt>
      <trkpt lat="43.13956" lon="6.23905">
        <ele>30</ele>
        <time>2022-07-13T23:34:00Z</time>
      </trkpt>
      <trkpt lat="43.13932" lon="6.23876">
        <ele>28</ele>
        <time>2022-07-13T23:34:06Z</time>
      </trkpt>
      <trkpt lat="43.13931" lon="6.23875">
        <ele>28</ele>
        <time>2022-07-13T23:34:06Z</time>
      </trkpt>
      <trkpt lat="43.13919" lon="6.23873">
        <ele>27</ele>
        <time>2022-07-13T23:34:08Z</time>
      </trkpt>
      <trkpt lat="43.13917" lon="6.23863">
        <ele>27</ele>
        <time>2022-07-13T23:34:09Z</time>
      </trkpt>
      <trkpt lat="43.13913" lon="6.23858">
        <ele>26</ele>
        <time>2022-07-13T23:34:10Z</time>
      </trkpt>
      <trkpt lat="43.1392" lon="6.23858">
        <ele>27</ele>
        <time>2022-07-13T23:34:12Z</time>
      </trkpt>
      <trkpt lat="43.13927" lon="6.23852">
        <ele>27</ele>
        <time>2022-07-13T23:34:13Z</time>
      </trkpt>
      <trkpt lat="43.13929" lon="6.23846">
        <ele>27</ele>
        <time>2022-07-13T23:34:14Z</time>
      </trkpt>
      <trkpt lat="43.13929" lon="6.23834">
        <ele>26</ele>
        <time>2022-07-13T23:34:16Z</time>
      </trkpt>
      <trkpt lat="43.13925" lon="6.23825">
        <ele>26</ele>
        <time>2022-07-13T23:34:17Z</time>
      </trkpt>
      <trkpt lat="43.13917" lon="6.23821">
        <ele>26</ele>
        <time>2022-07-13T23:34:18Z</time>
      </trkpt>
      <trkpt lat="43.13903" lon="6.23799">
        <ele>24</ele>
        <time>2022-07-13T23:34:22Z</time>
      </trkpt>
      <trkpt lat="43.13787" lon="6.23452">
        <ele>23</ele>
        <time>2022-07-13T23:35:12Z</time>
      </trkpt>
      <trkpt lat="43.1372" lon="6.23245">
        <ele>20</ele>
        <time>2022-07-13T23:35:41Z</time>
      </trkpt>
      <trkpt lat="43.13719" lon="6.23233">
        <ele>20</ele>
        <time>2022-07-13T23:35:43Z</time>
      </trkpt>
      <trkpt lat="43.13724" lon="6.23228">
        <ele>20</ele>
        <time>2022-07-13T23:35:44Z</time>
      </trkpt>
      <trkpt lat="43.13727" lon="6.23218">
        <ele>20</ele>
        <time>2022-07-13T23:35:45Z</time>
      </trkpt>
      <trkpt lat="43.13725" lon="6.23207">
        <ele>20</ele>
        <time>2022-07-13T23:35:47Z</time>
      </trkpt>
      <trkpt lat="43.13723" lon="6.23203">
        <ele>20</ele>
        <time>2022-07-13T23:35:47Z</time>
      </trkpt>
      <trkpt lat="43.13716" lon="6.232">
        <ele>20</ele>
        <time>2022-07-13T23:35:49Z</time>
      </trkpt>
      <trkpt lat="43.1371" lon="6.23201">
        <ele>20</ele>
        <time>2022-07-13T23:35:50Z</time>
      </trkpt>
      <trkpt lat="43.13703" lon="6.23195">
        <ele>19</ele>
        <time>2022-07-13T23:35:51Z</time>
      </trkpt>
      <trkpt lat="43.13697" lon="6.23186">
        <ele>19</ele>
        <time>2022-07-13T23:35:53Z</time>
      </trkpt>
      <trkpt lat="43.13681" lon="6.23138">
        <ele>19</ele>
        <time>2022-07-13T23:36:00Z</time>
      </trkpt>
      <trkpt lat="43.13667" lon="6.23095">
        <ele>19</ele>
        <time>2022-07-13T23:36:06Z</time>
      </trkpt>
      <trkpt lat="43.13621" lon="6.22953">
        <ele>20</ele>
        <time>2022-07-13T23:36:26Z</time>
      </trkpt>
      <trkpt lat="43.13604" lon="6.22907">
        <ele>21</ele>
        <time>2022-07-13T23:36:33Z</time>
      </trkpt>
      <trkpt lat="43.13581" lon="6.22861">
        <ele>22</ele>
        <time>2022-07-13T23:36:40Z</time>
      </trkpt>
      <trkpt lat="43.13483" lon="6.22687">
        <ele>23</ele>
        <time>2022-07-13T23:37:08Z</time>
      </trkpt>
      <trkpt lat="43.13412" lon="6.22556">
        <ele>21</ele>
        <time>2022-07-13T23:37:30Z</time>
      </trkpt>
      <trkpt lat="43.13415" lon="6.22547">
        <ele>21</ele>
        <time>2022-07-13T23:37:31Z</time>
      </trkpt>
      <trkpt lat="43.13415" lon="6.22536">
        <ele>21</ele>
        <time>2022-07-13T23:37:32Z</time>
      </trkpt>
      <trkpt lat="43.1341" lon="6.22528">
        <ele>21</ele>
        <time>2022-07-13T23:37:34Z</time>
      </trkpt>
      <trkpt lat="43.13404" lon="6.22524">
        <ele>20</ele>
        <time>2022-07-13T23:37:35Z</time>
      </trkpt>
      <trkpt lat="43.13398" lon="6.22524">
        <ele>20</ele>
        <time>2022-07-13T23:37:36Z</time>
      </trkpt>
      <trkpt lat="43.13393" lon="6.22528">
        <ele>20</ele>
        <time>2022-07-13T23:37:37Z</time>
      </trkpt>
      <trkpt lat="43.13251" lon="6.22276">
        <ele>19</ele>
        <time>2022-07-13T23:38:18Z</time>
      </trkpt>
      <trkpt lat="43.13237" lon="6.22251">
        <ele>19</ele>
        <time>2022-07-13T23:38:22Z</time>
      </trkpt>
      <trkpt lat="43.13231" lon="6.22236">
        <ele>19</ele>
        <time>2022-07-13T23:38:25Z</time>
      </trkpt>
      <trkpt lat="43.13231" lon="6.22226">
        <ele>19</ele>
        <time>2022-07-13T23:38:26Z</time>
      </trkpt>
      <trkpt lat="43.1324" lon="6.22199">
        <ele>20</ele>
        <time>2022-07-13T23:38:30Z</time>
      </trkpt>
      <trkpt lat="43.13231" lon="6.22202">
        <ele>20</ele>
        <time>2022-07-13T23:38:31Z</time>
      </trkpt>
      <trkpt lat="43.13219" lon="6.22195">
        <ele>20</ele>
        <time>2022-07-13T23:38:34Z</time>
      </trkpt>
      <trkpt lat="43.13119" lon="6.22016">
        <ele>20</ele>
        <time>2022-07-13T23:39:03Z</time>
      </trkpt>
      <trkpt lat="43.13085" lon="6.21967">
        <ele>20</ele>
        <time>2022-07-13T23:39:12Z</time>
      </trkpt>
      <trkpt lat="43.12993" lon="6.21801">
        <ele>16</ele>
        <time>2022-07-13T23:39:39Z</time>
      </trkpt>
      <trkpt lat="43.1296" lon="6.21734">
        <ele>14</ele>
        <time>2022-07-13T23:39:49Z</time>
      </trkpt>
      <trkpt lat="43.12956" lon="6.21732">
        <ele>14</ele>
        <time>2022-07-13T23:39:50Z</time>
      </trkpt>
      <trkpt lat="43.12947" lon="6.21735">
        <ele>13</ele>
        <time>2022-07-13T23:39:52Z</time>
      </trkpt>
      <trkpt lat="43.12945" lon="6.21733">
        <ele>13</ele>
        <time>2022-07-13T23:39:52Z</time>
      </trkpt>
      <trkpt lat="43.1293" lon="6.21689">
        <ele>12</ele>
        <time>2022-07-13T23:39:59Z</time>
      </trkpt>
      <trkpt lat="43.12902" lon="6.21584">
        <ele>9</ele>
        <time>2022-07-13T23:40:13Z</time>
      </trkpt>
      <trkpt lat="43.12853" lon="6.21307">
        <ele>7</ele>
        <time>2022-07-13T23:40:50Z</time>
      </trkpt>
      <trkpt lat="43.12846" lon="6.21283">
        <ele>7</ele>
        <time>2022-07-13T23:40:53Z</time>
      </trkpt>
      <trkpt lat="43.12842" lon="6.21253">
        <ele>5</ele>
        <time>2022-07-13T23:40:57Z</time>
      </trkpt>
      <trkpt lat="43.12783" lon="6.20939">
        <ele>7</ele>
        <time>2022-07-13T23:41:39Z</time>
      </trkpt>
      <trkpt lat="43.12765" lon="6.20917">
        <ele>7</ele>
        <time>2022-07-13T23:41:44Z</time>
      </trkpt>
      <trkpt lat="43.12706" lon="6.2059">
        <ele>6</ele>
        <time>2022-07-13T23:42:27Z</time>
      </trkpt>
      <trkpt lat="43.12707" lon="6.20573">
        <ele>6</ele>
        <time>2022-07-13T23:42:30Z</time>
      </trkpt>
      <trkpt lat="43.12713" lon="6.20562">
        <ele>6</ele>
        <time>2022-07-13T23:42:31Z</time>
      </trkpt>
      <trkpt lat="43.12712" lon="6.2055">
        <ele>6</ele>
        <time>2022-07-13T23:42:33Z</time>
      </trkpt>
      <trkpt lat="43.12707" lon="6.20538">
        <ele>6</ele>
        <time>2022-07-13T23:42:35Z</time>
      </trkpt>
      <trkpt lat="43.12694" lon="6.20521">
        <ele>6</ele>
        <time>2022-07-13T23:42:38Z</time>
      </trkpt>
      <trkpt lat="43.12661" lon="6.20352">
        <ele>5</ele>
        <time>2022-07-13T23:43:01Z</time>
      </trkpt>
      <trkpt lat="43.12663" lon="6.20314">
        <ele>5</ele>
        <time>2022-07-13T23:43:06Z</time>
      </trkpt>
      <trkpt lat="43.12626" lon="6.20119">
        <ele>5</ele>
        <time>2022-07-13T23:43:32Z</time>
      </trkpt>
      <trkpt lat="43.12621" lon="6.20102">
        <ele>4</ele>
        <time>2022-07-13T23:43:34Z</time>
      </trkpt>
      <trkpt lat="43.12611" lon="6.20092">
        <ele>4</ele>
        <time>2022-07-13T23:43:36Z</time>
      </trkpt>
      <trkpt lat="43.12606" lon="6.20075">
        <ele>4</ele>
        <time>2022-07-13T23:43:39Z</time>
      </trkpt>
      <trkpt lat="43.12581" lon="6.20014">
        <ele>4</ele>
        <time>2022-07-13T23:43:48Z</time>
      </trkpt>
      <trkpt lat="43.12561" lon="6.19975">
        <ele>3</ele>
        <time>2022-07-13T23:43:54Z</time>
      </trkpt>
      <trkpt lat="43.12556" lon="6.19952">
        <ele>3</ele>
        <time>2022-07-13T23:43:57Z</time>
      </trkpt>
      <trkpt lat="43.12557" lon="6.19925">
        <ele>3</ele>
        <time>2022-07-13T23:44:01Z</time>
      </trkpt>
      <trkpt lat="43.12563" lon="6.19907">
        <ele>3</ele>
        <time>2022-07-13T23:44:03Z</time>
      </trkpt>
      <trkpt lat="43.12576" lon="6.19887">
        <ele>4</ele>
        <time>2022-07-13T23:44:07Z</time>
      </trkpt>
      <trkpt lat="43.12564" lon="6.19852">
        <ele>3</ele>
        <time>2022-07-13T23:44:12Z</time>
      </trkpt>
      <trkpt lat="43.12552" lon="6.19785">
        <ele>3</ele>
        <time>2022-07-13T23:44:21Z</time>
      </trkpt>
      <trkpt lat="43.1252" lon="6.19511">
        <ele>2</ele>
        <time>2022-07-13T23:44:57Z</time>
      </trkpt>
      <trkpt lat="43.12522" lon="6.19439">
        <ele>1</ele>
        <time>2022-07-13T23:45:06Z</time>
      </trkpt>
      <trkpt lat="43.12521" lon="6.19355">
        <ele>1.2</ele>
        <time>2022-07-13T23:45:17Z</time>
      </trkpt>
      <trkpt lat="43.12524" lon="6.19258">
        <ele>1</ele>
        <time>2022-07-13T23:45:30Z</time>
      </trkpt>
      <trkpt lat="43.12528" lon="6.19212">
        <ele>1</ele>
        <time>2022-07-13T23:45:36Z</time>
      </trkpt>
      <trkpt lat="43.12536" lon="6.19081">
        <ele>1</ele>
        <time>2022-07-13T23:45:53Z</time>
      </trkpt>
      <trkpt lat="43.12535" lon="6.19064">
        <ele>1</ele>
        <time>2022-07-13T23:45:55Z</time>
      </trkpt>
      <trkpt lat="43.12529" lon="6.19047">
        <ele>1</ele>
        <time>2022-07-13T23:45:57Z</time>
      </trkpt>
      <trkpt lat="43.12509" lon="6.19026">
        <ele>2</ele>
        <time>2022-07-13T23:46:02Z</time>
      </trkpt>
      <trkpt lat="43.12501" lon="6.19002">
        <ele>2</ele>
        <time>2022-07-13T23:46:05Z</time>
      </trkpt>
      <trkpt lat="43.12496" lon="6.18992">
        <ele>2</ele>
        <time>2022-07-13T23:46:07Z</time>
      </trkpt>
      <trkpt lat="43.12467" lon="6.18961">
        <ele>2</ele>
        <time>2022-07-13T23:46:13Z</time>
      </trkpt>
      <trkpt lat="43.12463" lon="6.18954">
        <ele>2</ele>
        <time>2022-07-13T23:46:15Z</time>
      </trkpt>
      <trkpt lat="43.12453" lon="6.18921">
        <ele>2</ele>
        <time>2022-07-13T23:46:19Z</time>
      </trkpt>
      <trkpt lat="43.12439" lon="6.18894">
        <ele>2</ele>
        <time>2022-07-13T23:46:24Z</time>
      </trkpt>
      <trkpt lat="43.12439" lon="6.18889">
        <ele>2</ele>
        <time>2022-07-13T23:46:24Z</time>
      </trkpt>
      <trkpt lat="43.12449" lon="6.18877">
        <ele>3</ele>
        <time>2022-07-13T23:46:27Z</time>
      </trkpt>
      <trkpt lat="43.1243" lon="6.18852">
        <ele>3</ele>
        <time>2022-07-13T23:46:31Z</time>
      </trkpt>
      <trkpt lat="43.12389" lon="6.18814">
        <ele>4</ele>
        <time>2022-07-13T23:46:40Z</time>
      </trkpt>
      <trkpt lat="43.12123" lon="6.18615">
        <ele>3</ele>
        <time>2022-07-13T23:47:34Z</time>
      </trkpt>
      <trkpt lat="43.12098" lon="6.18601">
        <ele>3</ele>
        <time>2022-07-13T23:47:39Z</time>
      </trkpt>
      <trkpt lat="43.12068" lon="6.18594">
        <ele>3</ele>
        <time>2022-07-13T23:47:44Z</time>
      </trkpt>
      <trkpt lat="43.11948" lon="6.18577">
        <ele>2</ele>
        <time>2022-07-13T23:48:06Z</time>
      </trkpt>
      <trkpt lat="43.11924" lon="6.18579">
        <ele>2</ele>
        <time>2022-07-13T23:48:10Z</time>
      </trkpt>
      <trkpt lat="43.11913" lon="6.18585">
        <ele>2</ele>
        <time>2022-07-13T23:48:12Z</time>
      </trkpt>
      <trkpt lat="43.11888" lon="6.18607">
        <ele>3</ele>
        <time>2022-07-13T23:48:17Z</time>
      </trkpt>
      <trkpt lat="43.1176" lon="6.18751">
        <ele>1</ele>
        <time>2022-07-13T23:48:47Z</time>
      </trkpt>
      <trkpt lat="43.11702" lon="6.18812">
        <ele>1</ele>
        <time>2022-07-13T23:49:00Z</time>
      </trkpt>
      <trkpt lat="43.11687" lon="6.18835">
        <ele>1</ele>
        <time>2022-07-13T23:49:04Z</time>
      </trkpt>
      <trkpt lat="43.11624" lon="6.18976">
        <ele>1.1</ele>
        <time>2022-07-13T23:49:25Z</time>
      </trkpt>
      <trkpt lat="43.11502" lon="6.19237">
        <ele>3</ele>
        <time>2022-07-13T23:50:06Z</time>
      </trkpt>
      <trkpt lat="43.11486" lon="6.19277">
        <ele>3</ele>
        <time>2022-07-13T23:50:11Z</time>
      </trkpt>
      <trkpt lat="43.11485" lon="6.19289">
        <ele>2</ele>
        <time>2022-07-13T23:50:13Z</time>
      </trkpt>
      <trkpt lat="43.11484" lon="6.19302">
        <ele>2</ele>
        <time>2022-07-13T23:50:15Z</time>
      </trkpt>
      <trkpt lat="43.11475" lon="6.19297">
        <ele>2</ele>
        <time>2022-07-13T23:50:16Z</time>
      </trkpt>
      <trkpt lat="43.11466" lon="6.1928">
        <ele>2</ele>
        <time>2022-07-13T23:50:19Z</time>
      </trkpt>
      <trkpt lat="43.11454" lon="6.19246">
        <ele>2</ele>
        <time>2022-07-13T23:50:24Z</time>
      </trkpt>
      <trkpt lat="43.11426" lon="6.19149">
        <ele>2</ele>
        <time>2022-07-13T23:50:38Z</time>
      </trkpt>
      <trkpt lat="43.1138" lon="6.1904">
        <ele>1</ele>
        <time>2022-07-13T23:50:54Z</time>
      </trkpt>
      <trkpt lat="43.11364" lon="6.19007">
        <ele>2</ele>
        <time>2022-07-13T23:50:59Z</time>
      </trkpt>
      <trkpt lat="43.11339" lon="6.18958">
        <ele>2</ele>
        <time>2022-07-13T23:51:07Z</time>
      </trkpt>
      <trkpt lat="43.11299" lon="6.18874">
        <ele>2</ele>
        <time>2022-07-13T23:51:20Z</time>
      </trkpt>
      <trkpt lat="43.11286" lon="6.18854">
        <ele>2</ele>
        <time>2022-07-13T23:51:23Z</time>
      </trkpt>
      <trkpt lat="43.11156" lon="6.18597">
        <ele>2</ele>
        <time>2022-07-13T23:52:04Z</time>
      </trkpt>
      <trkpt lat="43.11142" lon="6.18568">
        <ele>2</ele>
        <time>2022-07-13T23:52:09Z</time>
      </trkpt>
      <trkpt lat="43.10964" lon="6.18215">
        <ele>3</ele>
        <time>2022-07-13T23:53:04Z</time>
      </trkpt>
      <trkpt lat="43.10947" lon="6.18175">
        <ele>2</ele>
        <time>2022-07-13T23:53:10Z</time>
      </trkpt>
      <trkpt lat="43.10917" lon="6.18121">
        <ele>2</ele>
        <time>2022-07-13T23:53:19Z</time>
      </trkpt>
      <trkpt lat="43.10812" lon="6.17914">
        <ele>3</ele>
        <time>2022-07-13T23:53:52Z</time>
      </trkpt>
      <trkpt lat="43.1078" lon="6.17855">
        <ele>3</ele>
        <time>2022-07-13T23:54:01Z</time>
      </trkpt>
      <trkpt lat="43.10744" lon="6.17797">
        <ele>2</ele>
        <time>2022-07-13T23:54:11Z</time>
      </trkpt>
      <trkpt lat="43.10728" lon="6.17774">
        <ele>2</ele>
        <time>2022-07-13T23:54:15Z</time>
      </trkpt>
      <trkpt lat="43.10703" lon="6.17738">
        <ele>2</ele>
        <time>2022-07-13T23:54:22Z</time>
      </trkpt>
      <trkpt lat="43.10671" lon="6.17698">
        <ele>3</ele>
        <time>2022-07-13T23:54:30Z</time>
      </trkpt>
      <trkpt lat="43.1058" lon="6.17602">
        <ele>3</ele>
        <time>2022-07-13T23:54:50Z</time>
      </trkpt>
      <trkpt lat="43.10577" lon="6.17595">
        <ele>3</ele>
        <time>2022-07-13T23:54:51Z</time>
      </trkpt>
      <trkpt lat="43.10576" lon="6.17582">
        <ele>3</ele>
        <time>2022-07-13T23:54:53Z</time>
      </trkpt>
      <trkpt lat="43.10571" lon="6.17574">
        <ele>3</ele>
        <time>2022-07-13T23:54:54Z</time>
      </trkpt>
      <trkpt lat="43.10565" lon="6.1757">
        <ele>3</ele>
        <time>2022-07-13T23:54:55Z</time>
      </trkpt>
      <trkpt lat="43.10544" lon="6.17567">
        <ele>3</ele>
        <time>2022-07-13T23:54:59Z</time>
      </trkpt>
      <trkpt lat="43.10505" lon="6.17527">
        <ele>4</ele>
        <time>2022-07-13T23:55:08Z</time>
      </trkpt>
      <trkpt lat="43.10493" lon="6.17512">
        <ele>4</ele>
        <time>2022-07-13T23:55:11Z</time>
      </trkpt>
      <trkpt lat="43.10304" lon="6.17322">
        <ele>5</ele>
        <time>2022-07-13T23:55:52Z</time>
      </trkpt>
      <trkpt lat="43.10228" lon="6.17248">
        <ele>3</ele>
        <time>2022-07-13T23:56:09Z</time>
      </trkpt>
      <trkpt lat="43.10224" lon="6.17256">
        <ele>3</ele>
        <time>2022-07-13T23:56:10Z</time>
      </trkpt>
      <trkpt lat="43.10214" lon="6.17246">
        <ele>3</ele>
        <time>2022-07-13T23:56:12Z</time>
      </trkpt>
      <trkpt lat="43.10184" lon="6.17216">
        <ele>3</ele>
        <time>2022-07-13T23:56:19Z</time>
      </trkpt>
      <trkpt lat="43.1018" lon="6.17212">
        <ele>3</ele>
        <time>2022-07-13T23:56:20Z</time>
      </trkpt>
      <trkpt lat="43.10183" lon="6.17203">
        <ele>3</ele>
        <time>2022-07-13T23:56:21Z</time>
      </trkpt>
      <trkpt lat="43.10131" lon="6.17149">
        <ele>4</ele>
        <time>2022-07-13T23:56:33Z</time>
      </trkpt>
      <trkpt lat="43.10124" lon="6.17136">
        <ele>4</ele>
        <time>2022-07-13T23:56:35Z</time>
      </trkpt>
      <trkpt lat="43.10027" lon="6.17035">
        <ele>4</ele>
        <time>2022-07-13T23:56:57Z</time>
      </trkpt>
      <trkpt lat="43.10021" lon="6.17022">
        <ele>5</ele>
        <time>2022-07-13T23:56:59Z</time>
      </trkpt>
      <trkpt lat="43.10016" lon="6.17017">
        <ele>5</ele>
        <time>2022-07-13T23:57:00Z</time>
      </trkpt>
      <trkpt lat="43.1" lon="6.17014">
        <ele>4</ele>
        <time>2022-07-13T23:57:03Z</time>
      </trkpt>
      <trkpt lat="43.09926" lon="6.16945">
        <ele>3</ele>
        <time>2022-07-13T23:57:18Z</time>
      </trkpt>
      <trkpt lat="43.09053" lon="6.1607">
        <ele>6</ele>
        <time>2022-07-14T00:00:31Z</time>
      </trkpt>
      <trkpt lat="43.09037" lon="6.16042">
        <ele>6</ele>
        <time>2022-07-14T00:00:36Z</time>
      </trkpt>
      <trkpt lat="43.09034" lon="6.16028">
        <ele>6</ele>
        <time>2022-07-14T00:00:37Z</time>
      </trkpt>
      <trkpt lat="43.09035" lon="6.16019">
        <ele>6</ele>
        <time>2022-07-14T00:00:39Z</time>
      </trkpt>
      <trkpt lat="43.09031" lon="6.16005">
        <ele>6</ele>
        <time>2022-07-14T00:00:41Z</time>
      </trkpt>
      <trkpt lat="43.09025" lon="6.15995">
        <ele>6</ele>
        <time>2022-07-14T00:00:42Z</time>
      </trkpt>
      <trkpt lat="43.09007" lon="6.16">
        <ele>5</ele>
        <time>2022-07-14T00:00:46Z</time>
      </trkpt>
      <trkpt lat="43.08992" lon="6.15998">
        <ele>5</ele>
        <time>2022-07-14T00:00:48Z</time>
      </trkpt>
      <trkpt lat="43.08967" lon="6.15986">
        <ele>4</ele>
        <time>2022-07-14T00:00:53Z</time>
      </trkpt>
      <trkpt lat="43.08721" lon="6.15748">
        <ele>5</ele>
        <time>2022-07-14T00:01:47Z</time>
      </trkpt>
      <trkpt lat="43.08675" lon="6.15725">
        <ele>5</ele>
        <time>2022-07-14T00:01:55Z</time>
      </trkpt>
      <trkpt lat="43.08665" lon="6.15714">
        <ele>5</ele>
        <time>2022-07-14T00:01:58Z</time>
      </trkpt>
      <trkpt lat="43.08657" lon="6.15701">
        <ele>5</ele>
        <time>2022-07-14T00:02:00Z</time>
      </trkpt>
      <trkpt lat="43.08639" lon="6.15661">
        <ele>6</ele>
        <time>2022-07-14T00:02:06Z</time>
      </trkpt>
      <trkpt lat="43.08636" lon="6.15664">
        <ele>6</ele>
        <time>2022-07-14T00:02:07Z</time>
      </trkpt>
      <trkpt lat="43.08595" lon="6.15564">
        <ele>7</ele>
        <time>2022-07-14T00:02:21Z</time>
      </trkpt>
      <trkpt lat="43.0858" lon="6.15515">
        <ele>7</ele>
        <time>2022-07-14T00:02:28Z</time>
      </trkpt>
      <trkpt lat="43.08567" lon="6.15463">
        <ele>7</ele>
        <time>2022-07-14T00:02:35Z</time>
      </trkpt>
      <trkpt lat="43.08562" lon="6.15448">
        <ele>7</ele>
        <time>2022-07-14T00:02:38Z</time>
      </trkpt>
      <trkpt lat="43.08553" lon="6.15428">
        <ele>7</ele>
        <time>2022-07-14T00:02:41Z</time>
      </trkpt>
      <trkpt lat="43.08471" lon="6.15314">
        <ele>6</ele>
        <time>2022-07-14T00:03:01Z</time>
      </trkpt>
      <trkpt lat="43.08394" lon="6.15214">
        <ele>5</ele>
        <time>2022-07-14T00:03:20Z</time>
      </trkpt>
      <trkpt lat="43.08313" lon="6.15103">
        <ele>5</ele>
        <time>2022-07-14T00:03:41Z</time>
      </trkpt>
      <trkpt lat="43.08306" lon="6.1509">
        <ele>5</ele>
        <time>2022-07-14T00:03:43Z</time>
      </trkpt>
      <trkpt lat="43.08298" lon="6.15062">
        <ele>4</ele>
        <time>2022-07-14T00:03:47Z</time>
      </trkpt>
      <trkpt lat="43.08309" lon="6.15034">
        <ele>4</ele>
        <time>2022-07-14T00:03:51Z</time>
      </trkpt>
      <trkpt lat="43.08312" lon="6.15018">
        <ele>3</ele>
        <time>2022-07-14T00:03:53Z</time>
      </trkpt>
      <trkpt lat="43.08311" lon="6.15002">
        <ele>3</ele>
        <time>2022-07-14T00:03:55Z</time>
      </trkpt>
      <trkpt lat="43.08314" lon="6.14989">
        <ele>3</ele>
        <time>2022-07-14T00:03:57Z</time>
      </trkpt>
      <trkpt lat="43.08307" lon="6.14973">
        <ele>3</ele>
        <time>2022-07-14T00:03:59Z</time>
      </trkpt>
      <trkpt lat="43.08314" lon="6.14968">
        <ele>3</ele>
        <time>2022-07-14T00:04:01Z</time>
      </trkpt>
      <trkpt lat="43.0831" lon="6.14952">
        <ele>3</ele>
        <time>2022-07-14T00:04:03Z</time>
      </trkpt>
      <trkpt lat="43.0826" lon="6.14956">
        <ele>2</ele>
        <time>2022-07-14T00:04:12Z</time>
      </trkpt>
      <trkpt lat="43.08253" lon="6.1496">
        <ele>2</ele>
        <time>2022-07-14T00:04:13Z</time>
      </trkpt>
      <trkpt lat="43.08245" lon="6.14968">
        <ele>2</ele>
        <time>2022-07-14T00:04:15Z</time>
      </trkpt>
      <trkpt lat="43.08232" lon="6.14983">
        <ele>2</ele>
        <time>2022-07-14T00:04:18Z</time>
      </trkpt>
      <trkpt lat="43.08222" lon="6.14989">
        <ele>2</ele>
        <time>2022-07-14T00:04:20Z</time>
      </trkpt>
      <trkpt lat="43.08212" lon="6.14991">
        <ele>2</ele>
        <time>2022-07-14T00:04:22Z</time>
      </trkpt>
      <trkpt lat="43.08188" lon="6.14996">
        <ele>2</ele>
        <time>2022-07-14T00:04:26Z</time>
      </trkpt>
      <trkpt lat="43.08142" lon="6.14997">
        <ele>3</ele>
        <time>2022-07-14T00:04:34Z</time>
      </trkpt>
      <trkpt lat="43.0809" lon="6.14983">
        <ele>3</ele>
        <time>2022-07-14T00:04:44Z</time>
      </trkpt>
      <trkpt lat="43.08073" lon="6.14975">
        <ele>3</ele>
        <time>2022-07-14T00:04:47Z</time>
      </trkpt>
      <trkpt lat="43.08064" lon="6.14967">
        <ele>3</ele>
        <time>2022-07-14T00:04:49Z</time>
      </trkpt>
      <trkpt lat="43.0806" lon="6.14951">
        <ele>3</ele>
        <time>2022-07-14T00:04:51Z</time>
      </trkpt>
      <trkpt lat="43.08059" lon="6.14938">
        <ele>2</ele>
        <time>2022-07-14T00:04:53Z</time>
      </trkpt>
      <trkpt lat="43.0806" lon="6.14925">
        <ele>2</ele>
        <time>2022-07-14T00:04:54Z</time>
      </trkpt>
      <trkpt lat="43.08066" lon="6.14913">
        <ele>1</ele>
        <time>2022-07-14T00:04:56Z</time>
      </trkpt>
      <trkpt lat="43.081" lon="6.14883">
        <ele>1</ele>
        <time>2022-07-14T00:05:03Z</time>
      </trkpt>
      <trkpt lat="43.08116" lon="6.14861">
        <ele>2</ele>
        <time>2022-07-14T00:05:07Z</time>
      </trkpt>
      <trkpt lat="43.08127" lon="6.14834">
        <ele>2</ele>
        <time>2022-07-14T00:05:11Z</time>
      </trkpt>
      <trkpt lat="43.08216" lon="6.14402">
        <ele>1.8</ele>
        <time>2022-07-14T00:06:10Z</time>
      </trkpt>
      <trkpt lat="43.08217" lon="6.14365">
        <ele>1</ele>
        <time>2022-07-14T00:06:15Z</time>
      </trkpt>
      <trkpt lat="43.08215" lon="6.14312">
        <ele>1</ele>
        <time>2022-07-14T00:06:22Z</time>
      </trkpt>
      <trkpt lat="43.08199" lon="6.14197">
        <ele>1</ele>
        <time>2022-07-14T00:06:37Z</time>
      </trkpt>
      <trkpt lat="43.08158" lon="6.13925">
        <ele>6</ele>
        <time>2022-07-14T00:07:13Z</time>
      </trkpt>
      <trkpt lat="43.08123" lon="6.1365">
        <ele>5</ele>
        <time>2022-07-14T00:07:49Z</time>
      </trkpt>
      <trkpt lat="43.08115" lon="6.13567">
        <ele>2</ele>
        <time>2022-07-14T00:08:00Z</time>
      </trkpt>
      <trkpt lat="43.08009" lon="6.12795">
        <ele>1</ele>
        <time>2022-07-14T00:09:42Z</time>
      </trkpt>
      <trkpt lat="43.08008" lon="6.12774">
        <ele>1</ele>
        <time>2022-07-14T00:09:45Z</time>
      </trkpt>
      <trkpt lat="43.08015" lon="6.1274">
        <ele>1</ele>
        <time>2022-07-14T00:09:49Z</time>
      </trkpt>
      <trkpt lat="43.08017" lon="6.12725">
        <ele>1</ele>
        <time>2022-07-14T00:09:51Z</time>
      </trkpt>
      <trkpt lat="43.08014" lon="6.12714">
        <ele>1</ele>
        <time>2022-07-14T00:09:53Z</time>
      </trkpt>
      <trkpt lat="43.08024" lon="6.12704">
        <ele>1</ele>
        <time>2022-07-14T00:09:55Z</time>
      </trkpt>
      <trkpt lat="43.08028" lon="6.12696">
        <ele>1</ele>
        <time>2022-07-14T00:09:56Z</time>
      </trkpt>
      <trkpt lat="43.0803" lon="6.12686">
        <ele>1</ele>
        <time>2022-07-14T00:09:58Z</time>
      </trkpt>
      <trkpt lat="43.0803" lon="6.12674">
        <ele>1</ele>
        <time>2022-07-14T00:09:59Z</time>
      </trkpt>
      <trkpt lat="43.08025" lon="6.12662">
        <ele>1</ele>
        <time>2022-07-14T00:10:01Z</time>
      </trkpt>
      <trkpt lat="43.08021" lon="6.12656">
        <ele>1</ele>
        <time>2022-07-14T00:10:02Z</time>
      </trkpt>
      <trkpt lat="43.08017" lon="6.12652">
        <ele>1</ele>
        <time>2022-07-14T00:10:03Z</time>
      </trkpt>
      <trkpt lat="43.08008" lon="6.12648">
        <ele>1</ele>
        <time>2022-07-14T00:10:05Z</time>
      </trkpt>
      <trkpt lat="43.07998" lon="6.12649">
        <ele>1</ele>
        <time>2022-07-14T00:10:06Z</time>
      </trkpt>
      <trkpt lat="43.07987" lon="6.12657">
        <ele>1</ele>
        <time>2022-07-14T00:10:09Z</time>
      </trkpt>
      <trkpt lat="43.07983" lon="6.12665">
        <ele>1</ele>
        <time>2022-07-14T00:10:10Z</time>
      </trkpt>
      <trkpt lat="43.0798" lon="6.12675">
        <ele>1</ele>
        <time>2022-07-14T00:10:11Z</time>
      </trkpt>
      <trkpt lat="43.0798" lon="6.12685">
        <ele>1</ele>
        <time>2022-07-14T00:10:13Z</time>
      </trkpt>
      <trkpt lat="43.07981" lon="6.12694">
        <ele>1</ele>
        <time>2022-07-14T00:10:14Z</time>
      </trkpt>
      <trkpt lat="43.07988" lon="6.12708">
        <ele>1</ele>
        <time>2022-07-14T00:10:16Z</time>
      </trkpt>
      <trkpt lat="43.07994" lon="6.12744">
        <ele>1</ele>
        <time>2022-07-14T00:10:21Z</time>
      </trkpt>
      <trkpt lat="43.07997" lon="6.12765">
        <ele>1</ele>
        <time>2022-07-14T00:10:24Z</time>
      </trkpt>
      <trkpt lat="43.08009" lon="6.12716">
        <ele>1</ele>
        <time>2022-07-14T00:10:30Z</time>
      </trkpt>
      <trkpt lat="43.08019" lon="6.12711">
        <ele>1</ele>
        <time>2022-07-14T00:10:32Z</time>
      </trkpt>
      <trkpt lat="43.08024" lon="6.12704">
        <ele>1</ele>
        <time>2022-07-14T00:10:33Z</time>
      </trkpt>
      <trkpt lat="43.08028" lon="6.12696">
        <ele>1</ele>
        <time>2022-07-14T00:10:35Z</time>
      </trkpt>
      <trkpt lat="43.0803" lon="6.12686">
        <ele>1</ele>
        <time>2022-07-14T00:10:36Z</time>
      </trkpt>
      <trkpt lat="43.0803" lon="6.12674">
        <ele>1</ele>
        <time>2022-07-14T00:10:38Z</time>
      </trkpt>
      <trkpt lat="43.08025" lon="6.12662">
        <ele>1</ele>
        <time>2022-07-14T00:10:39Z</time>
      </trkpt>
      <trkpt lat="43.08021" lon="6.12656">
        <ele>1</ele>
        <time>2022-07-14T00:10:41Z</time>
      </trkpt>
      <trkpt lat="43.08015" lon="6.12636">
        <ele>1</ele>
        <time>2022-07-14T00:10:43Z</time>
      </trkpt>
      <trkpt lat="43.08005" lon="6.12587">
        <ele>1</ele>
        <time>2022-07-14T00:10:50Z</time>
      </trkpt>
      <trkpt lat="43.0799" lon="6.12481">
        <ele>2</ele>
        <time>2022-07-14T00:11:04Z</time>
      </trkpt>
      <trkpt lat="43.07988" lon="6.12438">
        <ele>2</ele>
        <time>2022-07-14T00:11:10Z</time>
      </trkpt>
      <trkpt lat="43.0799" lon="6.12408">
        <ele>2</ele>
        <time>2022-07-14T00:11:13Z</time>
      </trkpt>
      <trkpt lat="43.07999" lon="6.12364">
        <ele>3</ele>
        <time>2022-07-14T00:11:19Z</time>
      </trkpt>
      <trkpt lat="43.08059" lon="6.12186">
        <ele>5</ele>
        <time>2022-07-14T00:11:45Z</time>
      </trkpt>
      <trkpt lat="43.08071" lon="6.12138">
        <ele>6</ele>
        <time>2022-07-14T00:11:51Z</time>
      </trkpt>
      <trkpt lat="43.08086" lon="6.12021">
        <ele>6</ele>
        <time>2022-07-14T00:12:07Z</time>
      </trkpt>
      <trkpt lat="43.08092" lon="6.11987">
        <ele>6</ele>
        <time>2022-07-14T00:12:11Z</time>
      </trkpt>
      <trkpt lat="43.08097" lon="6.1197">
        <ele>6</ele>
        <time>2022-07-14T00:12:14Z</time>
      </trkpt>
      <trkpt lat="43.08105" lon="6.11949">
        <ele>6</ele>
        <time>2022-07-14T00:12:17Z</time>
      </trkpt>
      <trkpt lat="43.08127" lon="6.11908">
        <ele>7</ele>
        <time>2022-07-14T00:12:24Z</time>
      </trkpt>
      <trkpt lat="43.08136" lon="6.11897">
        <ele>7</ele>
        <time>2022-07-14T00:12:26Z</time>
      </trkpt>
      <trkpt lat="43.08163" lon="6.11878">
        <ele>7</ele>
        <time>2022-07-14T00:12:31Z</time>
      </trkpt>
      <trkpt lat="43.08208" lon="6.11853">
        <ele>10</ele>
        <time>2022-07-14T00:12:40Z</time>
      </trkpt>
      <trkpt lat="43.08208" lon="6.11847">
        <ele>10</ele>
        <time>2022-07-14T00:12:41Z</time>
      </trkpt>
      <trkpt lat="43.08215" lon="6.11843">
        <ele>10</ele>
        <time>2022-07-14T00:12:42Z</time>
      </trkpt>
      <trkpt lat="43.08226" lon="6.11829">
        <ele>10</ele>
        <time>2022-07-14T00:12:45Z</time>
      </trkpt>
      <trkpt lat="43.08235" lon="6.11819">
        <ele>11</ele>
        <time>2022-07-14T00:12:47Z</time>
      </trkpt>
      <trkpt lat="43.08245" lon="6.11802">
        <ele>10</ele>
        <time>2022-07-14T00:12:49Z</time>
      </trkpt>
      <trkpt lat="43.08311" lon="6.11665">
        <ele>11</ele>
        <time>2022-07-14T00:13:11Z</time>
      </trkpt>
      <trkpt lat="43.08341" lon="6.1159">
        <ele>13</ele>
        <time>2022-07-14T00:13:22Z</time>
      </trkpt>
      <trkpt lat="43.08355" lon="6.11551">
        <ele>15</ele>
        <time>2022-07-14T00:13:28Z</time>
      </trkpt>
      <trkpt lat="43.08379" lon="6.11476">
        <ele>20</ele>
        <time>2022-07-14T00:13:38Z</time>
      </trkpt>
      <trkpt lat="43.0839" lon="6.11433">
        <ele>22</ele>
        <time>2022-07-14T00:13:44Z</time>
      </trkpt>
      <trkpt lat="43.08408" lon="6.11292">
        <ele>24</ele>
        <time>2022-07-14T00:14:03Z</time>
      </trkpt>
      <trkpt lat="43.08417" lon="6.11238">
        <ele>23</ele>
        <time>2022-07-14T00:14:10Z</time>
      </trkpt>
      <trkpt lat="43.08441" lon="6.11177">
        <ele>22</ele>
        <time>2022-07-14T00:14:19Z</time>
      </trkpt>
      <trkpt lat="43.08448" lon="6.11143">
        <ele>23</ele>
        <time>2022-07-14T00:14:23Z</time>
      </trkpt>
      <trkpt lat="43.08448" lon="6.1113">
        <ele>24</ele>
        <time>2022-07-14T00:14:25Z</time>
      </trkpt>
      <trkpt lat="43.08451" lon="6.11101">
        <ele>25</ele>
        <time>2022-07-14T00:14:29Z</time>
      </trkpt>
      <trkpt lat="43.08471" lon="6.10987">
        <ele>29</ele>
        <time>2022-07-14T00:14:44Z</time>
      </trkpt>
      <trkpt lat="43.08475" lon="6.1095">
        <ele>29</ele>
        <time>2022-07-14T00:14:49Z</time>
      </trkpt>
      <trkpt lat="43.08474" lon="6.10925">
        <ele>28</ele>
        <time>2022-07-14T00:14:52Z</time>
      </trkpt>
      <trkpt lat="43.08476" lon="6.10906">
        <ele>28</ele>
        <time>2022-07-14T00:14:55Z</time>
      </trkpt>
      <trkpt lat="43.08479" lon="6.10898">
        <ele>29</ele>
        <time>2022-07-14T00:14:56Z</time>
      </trkpt>
      <trkpt lat="43.08481" lon="6.1089">
        <ele>30</ele>
        <time>2022-07-14T00:14:57Z</time>
      </trkpt>
      <trkpt lat="43.08483" lon="6.10867">
        <ele>31</ele>
        <time>2022-07-14T00:15:00Z</time>
      </trkpt>
      <trkpt lat="43.08484" lon="6.10866">
        <ele>31</ele>
        <time>2022-07-14T00:15:00Z</time>
      </trkpt>
      <trkpt lat="43.08494" lon="6.10867">
        <ele>34</ele>
        <time>2022-07-14T00:15:02Z</time>
      </trkpt>
      <trkpt lat="43.08496" lon="6.10844">
        <ele>35</ele>
        <time>2022-07-14T00:15:05Z</time>
      </trkpt>
      <trkpt lat="43.08496" lon="6.10814">
        <ele>35</ele>
        <time>2022-07-14T00:15:09Z</time>
      </trkpt>
      <trkpt lat="43.08497" lon="6.10764">
        <ele>34</ele>
        <time>2022-07-14T00:15:16Z</time>
      </trkpt>
      <trkpt lat="43.08495" lon="6.10737">
        <ele>33</ele>
        <time>2022-07-14T00:15:19Z</time>
      </trkpt>
      <trkpt lat="43.08478" lon="6.10634">
        <ele>30</ele>
        <time>2022-07-14T00:15:33Z</time>
      </trkpt>
      <trkpt lat="43.08475" lon="6.10586">
        <ele>29</ele>
        <time>2022-07-14T00:15:39Z</time>
      </trkpt>
      <trkpt lat="43.08479" lon="6.10537">
        <ele>28</ele>
        <time>2022-07-14T00:15:45Z</time>
      </trkpt>
      <trkpt lat="43.08501" lon="6.10352">
        <ele>26</ele>
        <time>2022-07-14T00:16:10Z</time>
      </trkpt>
      <trkpt lat="43.08502" lon="6.10257">
        <ele>26</ele>
        <time>2022-07-14T00:16:22Z</time>
      </trkpt>
      <trkpt lat="43.08522" lon="6.10133">
        <ele>25</ele>
        <time>2022-07-14T00:16:39Z</time>
      </trkpt>
      <trkpt lat="43.08523" lon="6.10105">
        <ele>24</ele>
        <time>2022-07-14T00:16:42Z</time>
      </trkpt>
      <trkpt lat="43.08523" lon="6.10071">
        <ele>23</ele>
        <time>2022-07-14T00:16:47Z</time>
      </trkpt>
      <trkpt lat="43.08526" lon="6.09997">
        <ele>23</ele>
        <time>2022-07-14T00:16:56Z</time>
      </trkpt>
      <trkpt lat="43.08537" lon="6.09873">
        <ele>23</ele>
        <time>2022-07-14T00:17:13Z</time>
      </trkpt>
      <trkpt lat="43.08544" lon="6.09808">
        <ele>21</ele>
        <time>2022-07-14T00:17:21Z</time>
      </trkpt>
      <trkpt lat="43.08563" lon="6.09726">
        <ele>20</ele>
        <time>2022-07-14T00:17:32Z</time>
      </trkpt>
      <trkpt lat="43.08571" lon="6.09711">
        <ele>20</ele>
        <time>2022-07-14T00:17:35Z</time>
      </trkpt>
      <trkpt lat="43.08619" lon="6.09563">
        <ele>22</ele>
        <time>2022-07-14T00:17:56Z</time>
      </trkpt>
      <trkpt lat="43.08632" lon="6.09528">
        <ele>22</ele>
        <time>2022-07-14T00:18:01Z</time>
      </trkpt>
      <trkpt lat="43.08643" lon="6.09504">
        <ele>22</ele>
        <time>2022-07-14T00:18:05Z</time>
      </trkpt>
      <trkpt lat="43.08672" lon="6.09447">
        <ele>22</ele>
        <time>2022-07-14T00:18:14Z</time>
      </trkpt>
      <trkpt lat="43.08803" lon="6.0924">
        <ele>25</ele>
        <time>2022-07-14T00:18:49Z</time>
      </trkpt>
      <trkpt lat="43.0883" lon="6.09195">
        <ele>25</ele>
        <time>2022-07-14T00:18:57Z</time>
      </trkpt>
      <trkpt lat="43.08855" lon="6.09137">
        <ele>25</ele>
        <time>2022-07-14T00:19:05Z</time>
      </trkpt>
      <trkpt lat="43.08941" lon="6.08869">
        <ele>21</ele>
        <time>2022-07-14T00:19:43Z</time>
      </trkpt>
      <trkpt lat="43.09014" lon="6.08593">
        <ele>17</ele>
        <time>2022-07-14T00:20:22Z</time>
      </trkpt>
      <trkpt lat="43.09022" lon="6.08531">
        <ele>18</ele>
        <time>2022-07-14T00:20:30Z</time>
      </trkpt>
      <trkpt lat="43.09025" lon="6.08457">
        <ele>18</ele>
        <time>2022-07-14T00:20:39Z</time>
      </trkpt>
      <trkpt lat="43.09031" lon="6.08414">
        <ele>18</ele>
        <time>2022-07-14T00:20:45Z</time>
      </trkpt>
      <trkpt lat="43.09044" lon="6.08359">
        <ele>18</ele>
        <time>2022-07-14T00:20:53Z</time>
      </trkpt>
      <trkpt lat="43.0909" lon="6.0821">
        <ele>19</ele>
        <time>2022-07-14T00:21:14Z</time>
      </trkpt>
      <trkpt lat="43.09105" lon="6.08163">
        <ele>19</ele>
        <time>2022-07-14T00:21:20Z</time>
      </trkpt>
      <trkpt lat="43.0913" lon="6.08093">
        <ele>20</ele>
        <time>2022-07-14T00:21:30Z</time>
      </trkpt>
      <trkpt lat="43.09129" lon="6.08081">
        <ele>20</ele>
        <time>2022-07-14T00:21:32Z</time>
      </trkpt>
      <trkpt lat="43.09118" lon="6.08069">
        <ele>19</ele>
        <time>2022-07-14T00:21:35Z</time>
      </trkpt>
      <trkpt lat="43.09114" lon="6.08061">
        <ele>19</ele>
        <time>2022-07-14T00:21:36Z</time>
      </trkpt>
      <trkpt lat="43.09113" lon="6.08029">
        <ele>19</ele>
        <time>2022-07-14T00:21:40Z</time>
      </trkpt>
      <trkpt lat="43.09115" lon="6.08023">
        <ele>19</ele>
        <time>2022-07-14T00:21:41Z</time>
      </trkpt>
      <trkpt lat="43.09126" lon="6.08012">
        <ele>19</ele>
        <time>2022-07-14T00:21:43Z</time>
      </trkpt>
      <trkpt lat="43.09129" lon="6.08006">
        <ele>19</ele>
        <time>2022-07-14T00:21:44Z</time>
      </trkpt>
      <trkpt lat="43.09174" lon="6.0786">
        <ele>19</ele>
        <time>2022-07-14T00:22:05Z</time>
      </trkpt>
      <trkpt lat="43.09184" lon="6.07834">
        <ele>19</ele>
        <time>2022-07-14T00:22:09Z</time>
      </trkpt>
      <trkpt lat="43.0921" lon="6.07758">
        <ele>21</ele>
        <time>2022-07-14T00:22:19Z</time>
      </trkpt>
      <trkpt lat="43.09221" lon="6.07712">
        <ele>21</ele>
        <time>2022-07-14T00:22:26Z</time>
      </trkpt>
      <trkpt lat="43.0922" lon="6.07695">
        <ele>21</ele>
        <time>2022-07-14T00:22:28Z</time>
      </trkpt>
      <trkpt lat="43.09221" lon="6.07678">
        <ele>21</ele>
        <time>2022-07-14T00:22:30Z</time>
      </trkpt>
      <trkpt lat="43.09219" lon="6.07661">
        <ele>20</ele>
        <time>2022-07-14T00:22:32Z</time>
      </trkpt>
      <trkpt lat="43.09219" lon="6.07658">
        <ele>20</ele>
        <time>2022-07-14T00:22:33Z</time>
      </trkpt>
      <trkpt lat="43.09233" lon="6.07642">
        <ele>21</ele>
        <time>2022-07-14T00:22:36Z</time>
      </trkpt>
      <trkpt lat="43.09246" lon="6.07609">
        <ele>22</ele>
        <time>2022-07-14T00:22:41Z</time>
      </trkpt>
      <trkpt lat="43.09253" lon="6.07568">
        <ele>22</ele>
        <time>2022-07-14T00:22:46Z</time>
      </trkpt>
      <trkpt lat="43.09271" lon="6.07411">
        <ele>22</ele>
        <time>2022-07-14T00:23:07Z</time>
      </trkpt>
      <trkpt lat="43.09276" lon="6.07394">
        <ele>22</ele>
        <time>2022-07-14T00:23:09Z</time>
      </trkpt>
      <trkpt lat="43.09276" lon="6.07382">
        <ele>22</ele>
        <time>2022-07-14T00:23:11Z</time>
      </trkpt>
      <trkpt lat="43.09277" lon="6.07373">
        <ele>22</ele>
        <time>2022-07-14T00:23:12Z</time>
      </trkpt>
      <trkpt lat="43.09293" lon="6.07305">
        <ele>22</ele>
        <time>2022-07-14T00:23:21Z</time>
      </trkpt>
      <trkpt lat="43.09316" lon="6.07242">
        <ele>22</ele>
        <time>2022-07-14T00:23:31Z</time>
      </trkpt>
      <trkpt lat="43.09341" lon="6.07179">
        <ele>24</ele>
        <time>2022-07-14T00:23:40Z</time>
      </trkpt>
      <trkpt lat="43.09346" lon="6.07172">
        <ele>24</ele>
        <time>2022-07-14T00:23:41Z</time>
      </trkpt>
      <trkpt lat="43.09357" lon="6.07164">
        <ele>25</ele>
        <time>2022-07-14T00:23:43Z</time>
      </trkpt>
      <trkpt lat="43.09371" lon="6.07145">
        <ele>26</ele>
        <time>2022-07-14T00:23:47Z</time>
      </trkpt>
      <trkpt lat="43.09407" lon="6.07105">
        <ele>28</ele>
        <time>2022-07-14T00:23:55Z</time>
      </trkpt>
      <trkpt lat="43.09544" lon="6.06967">
        <ele>30</ele>
        <time>2022-07-14T00:24:25Z</time>
      </trkpt>
      <trkpt lat="43.09553" lon="6.06943">
        <ele>31</ele>
        <time>2022-07-14T00:24:29Z</time>
      </trkpt>
      <trkpt lat="43.09558" lon="6.06935">
        <ele>31</ele>
        <time>2022-07-14T00:24:30Z</time>
      </trkpt>
      <trkpt lat="43.09556" lon="6.06927">
        <ele>31</ele>
        <time>2022-07-14T00:24:31Z</time>
      </trkpt>
      <trkpt lat="43.09563" lon="6.06916">
        <ele>31</ele>
        <time>2022-07-14T00:24:33Z</time>
      </trkpt>
      <trkpt lat="43.09567" lon="6.06919">
        <ele>31</ele>
        <time>2022-07-14T00:24:34Z</time>
      </trkpt>
      <trkpt lat="43.0957" lon="6.06915">
        <ele>31</ele>
        <time>2022-07-14T00:24:35Z</time>
      </trkpt>
      <trkpt lat="43.09576" lon="6.06913">
        <ele>30</ele>
        <time>2022-07-14T00:24:36Z</time>
      </trkpt>
      <trkpt lat="43.09594" lon="6.06911">
        <ele>30</ele>
        <time>2022-07-14T00:24:39Z</time>
      </trkpt>
      <trkpt lat="43.09608" lon="6.06904">
        <ele>31</ele>
        <time>2022-07-14T00:24:42Z</time>
      </trkpt>
      <trkpt lat="43.09674" lon="6.06836">
        <ele>33</ele>
        <time>2022-07-14T00:24:57Z</time>
      </trkpt>
      <trkpt lat="43.09721" lon="6.06776">
        <ele>35</ele>
        <time>2022-07-14T00:25:08Z</time>
      </trkpt>
      <trkpt lat="43.09748" lon="6.06735">
        <ele>35</ele>
        <time>2022-07-14T00:25:15Z</time>
      </trkpt>
      <trkpt lat="43.09751" lon="6.06733">
        <ele>35</ele>
        <time>2022-07-14T00:25:16Z</time>
      </trkpt>
      <trkpt lat="43.09768" lon="6.06705">
        <ele>36</ele>
        <time>2022-07-14T00:25:20Z</time>
      </trkpt>
      <trkpt lat="43.09812" lon="6.06612">
        <ele>38</ele>
        <time>2022-07-14T00:25:35Z</time>
      </trkpt>
      <trkpt lat="43.09832" lon="6.06575">
        <ele>39</ele>
        <time>2022-07-14T00:25:41Z</time>
      </trkpt>
      <trkpt lat="43.0991" lon="6.06437">
        <ele>41</ele>
        <time>2022-07-14T00:26:04Z</time>
      </trkpt>
      <trkpt lat="43.09922" lon="6.0641">
        <ele>41</ele>
        <time>2022-07-14T00:26:08Z</time>
      </trkpt>
      <trkpt lat="43.09965" lon="6.06277">
        <ele>43</ele>
        <time>2022-07-14T00:26:27Z</time>
      </trkpt>
      <trkpt lat="43.10161" lon="6.0579">
        <ele>42</ele>
        <time>2022-07-14T00:27:39Z</time>
      </trkpt>
      <trkpt lat="43.10181" lon="6.05751">
        <ele>41</ele>
        <time>2022-07-14T00:27:45Z</time>
      </trkpt>
      <trkpt lat="43.10192" lon="6.05734">
        <ele>41</ele>
        <time>2022-07-14T00:27:48Z</time>
      </trkpt>
      <trkpt lat="43.10199" lon="6.05719">
        <ele>41</ele>
        <time>2022-07-14T00:27:50Z</time>
      </trkpt>
      <trkpt lat="43.10199" lon="6.05711">
        <ele>41</ele>
        <time>2022-07-14T00:27:51Z</time>
      </trkpt>
      <trkpt lat="43.10208" lon="6.05694">
        <ele>41</ele>
        <time>2022-07-14T00:27:54Z</time>
      </trkpt>
      <trkpt lat="43.10222" lon="6.05675">
        <ele>40</ele>
        <time>2022-07-14T00:27:57Z</time>
      </trkpt>
      <trkpt lat="43.10229" lon="6.05659">
        <ele>40</ele>
        <time>2022-07-14T00:28:00Z</time>
      </trkpt>
      <trkpt lat="43.10238" lon="6.05647">
        <ele>40</ele>
        <time>2022-07-14T00:28:02Z</time>
      </trkpt>
      <trkpt lat="43.1028" lon="6.05607">
        <ele>39</ele>
        <time>2022-07-14T00:28:11Z</time>
      </trkpt>
      <trkpt lat="43.10298" lon="6.05585">
        <ele>38</ele>
        <time>2022-07-14T00:28:16Z</time>
      </trkpt>
      <trkpt lat="43.10318" lon="6.05558">
        <ele>38</ele>
        <time>2022-07-14T00:28:21Z</time>
      </trkpt>
      <trkpt lat="43.10376" lon="6.05462">
        <ele>37</ele>
        <time>2022-07-14T00:28:37Z</time>
      </trkpt>
      <trkpt lat="43.10561" lon="6.05227">
        <ele>36</ele>
        <time>2022-07-14T00:29:22Z</time>
      </trkpt>
      <trkpt lat="43.10605" lon="6.05184">
        <ele>35</ele>
        <time>2022-07-14T00:29:31Z</time>
      </trkpt>
      <trkpt lat="43.10613" lon="6.05172">
        <ele>35</ele>
        <time>2022-07-14T00:29:33Z</time>
      </trkpt>
      <trkpt lat="43.10618" lon="6.05169">
        <ele>35</ele>
        <time>2022-07-14T00:29:34Z</time>
      </trkpt>
      <trkpt lat="43.10643" lon="6.05146">
        <ele>35</ele>
        <time>2022-07-14T00:29:40Z</time>
      </trkpt>
      <trkpt lat="43.10656" lon="6.05129">
        <ele>35</ele>
        <time>2022-07-14T00:29:43Z</time>
      </trkpt>
      <trkpt lat="43.10668" lon="6.05112">
        <ele>35</ele>
        <time>2022-07-14T00:29:46Z</time>
      </trkpt>
      <trkpt lat="43.10741" lon="6.04969">
        <ele>35</ele>
        <time>2022-07-14T00:30:09Z</time>
      </trkpt>
      <trkpt lat="43.10788" lon="6.04866">
        <ele>37</ele>
        <time>2022-07-14T00:30:24Z</time>
      </trkpt>
      <trkpt lat="43.10836" lon="6.04753">
        <ele>36</ele>
        <time>2022-07-14T00:30:41Z</time>
      </trkpt>
      <trkpt lat="43.10836" lon="6.04748">
        <ele>36</ele>
        <time>2022-07-14T00:30:42Z</time>
      </trkpt>
      <trkpt lat="43.10834" lon="6.04727">
        <ele>35</ele>
        <time>2022-07-14T00:30:45Z</time>
      </trkpt>
      <trkpt lat="43.10836" lon="6.04711">
        <ele>35</ele>
        <time>2022-07-14T00:30:47Z</time>
      </trkpt>
      <trkpt lat="43.10839" lon="6.04704">
        <ele>35</ele>
        <time>2022-07-14T00:30:48Z</time>
      </trkpt>
      <trkpt lat="43.10863" lon="6.04683">
        <ele>34</ele>
        <time>2022-07-14T00:30:53Z</time>
      </trkpt>
      <trkpt lat="43.10869" lon="6.04677">
        <ele>34</ele>
        <time>2022-07-14T00:30:54Z</time>
      </trkpt>
      <trkpt lat="43.10876" lon="6.04663">
        <ele>33</ele>
        <time>2022-07-14T00:30:57Z</time>
      </trkpt>
      <trkpt lat="43.1088" lon="6.04643">
        <ele>33</ele>
        <time>2022-07-14T00:30:59Z</time>
      </trkpt>
      <trkpt lat="43.10887" lon="6.04586">
        <ele>30</ele>
        <time>2022-07-14T00:31:07Z</time>
      </trkpt>
      <trkpt lat="43.10891" lon="6.04502">
        <ele>31</ele>
        <time>2022-07-14T00:31:18Z</time>
      </trkpt>
      <trkpt lat="43.10913" lon="6.04383">
        <ele>34</ele>
        <time>2022-07-14T00:31:34Z</time>
      </trkpt>
      <trkpt lat="43.10914" lon="6.04365">
        <ele>34</ele>
        <time>2022-07-14T00:31:36Z</time>
      </trkpt>
      <trkpt lat="43.10913" lon="6.04351">
        <ele>34</ele>
        <time>2022-07-14T00:31:38Z</time>
      </trkpt>
      <trkpt lat="43.10909" lon="6.04327">
        <ele>34</ele>
        <time>2022-07-14T00:31:41Z</time>
      </trkpt>
      <trkpt lat="43.109" lon="6.04309">
        <ele>35</ele>
        <time>2022-07-14T00:31:44Z</time>
      </trkpt>
      <trkpt lat="43.10881" lon="6.04235">
        <ele>36</ele>
        <time>2022-07-14T00:31:54Z</time>
      </trkpt>
      <trkpt lat="43.10875" lon="6.04173">
        <ele>38</ele>
        <time>2022-07-14T00:32:02Z</time>
      </trkpt>
      <trkpt lat="43.10875" lon="6.0414">
        <ele>39</ele>
        <time>2022-07-14T00:32:06Z</time>
      </trkpt>
      <trkpt lat="43.10876" lon="6.0412">
        <ele>39</ele>
        <time>2022-07-14T00:32:09Z</time>
      </trkpt>
      <trkpt lat="43.10892" lon="6.04029">
        <ele>37</ele>
        <time>2022-07-14T00:32:21Z</time>
      </trkpt>
      <trkpt lat="43.10896" lon="6.03993">
        <ele>36</ele>
        <time>2022-07-14T00:32:26Z</time>
      </trkpt>
      <trkpt lat="43.10898" lon="6.03959">
        <ele>36</ele>
        <time>2022-07-14T00:32:30Z</time>
      </trkpt>
      <trkpt lat="43.10895" lon="6.03941">
        <ele>36</ele>
        <time>2022-07-14T00:32:33Z</time>
      </trkpt>
      <trkpt lat="43.10874" lon="6.03892">
        <ele>38</ele>
        <time>2022-07-14T00:32:40Z</time>
      </trkpt>
      <trkpt lat="43.10874" lon="6.03885">
        <ele>38</ele>
        <time>2022-07-14T00:32:41Z</time>
      </trkpt>
      <trkpt lat="43.10891" lon="6.03857">
        <ele>36</ele>
        <time>2022-07-14T00:32:46Z</time>
      </trkpt>
      <trkpt lat="43.10895" lon="6.03845">
        <ele>35</ele>
        <time>2022-07-14T00:32:47Z</time>
      </trkpt>
      <trkpt lat="43.10904" lon="6.0381">
        <ele>34</ele>
        <time>2022-07-14T00:32:52Z</time>
      </trkpt>
      <trkpt lat="43.10908" lon="6.03749">
        <ele>34</ele>
        <time>2022-07-14T00:33:00Z</time>
      </trkpt>
      <trkpt lat="43.10906" lon="6.03726">
        <ele>33</ele>
        <time>2022-07-14T00:33:03Z</time>
      </trkpt>
      <trkpt lat="43.10872" lon="6.03533">
        <ele>32</ele>
        <time>2022-07-14T00:33:29Z</time>
      </trkpt>
      <trkpt lat="43.10865" lon="6.03524">
        <ele>33</ele>
        <time>2022-07-14T00:33:31Z</time>
      </trkpt>
      <trkpt lat="43.10864" lon="6.0352">
        <ele>33</ele>
        <time>2022-07-14T00:33:31Z</time>
      </trkpt>
      <trkpt lat="43.10864" lon="6.03505">
        <ele>33</ele>
        <time>2022-07-14T00:33:33Z</time>
      </trkpt>
      <trkpt lat="43.10862" lon="6.03493">
        <ele>33</ele>
        <time>2022-07-14T00:33:35Z</time>
      </trkpt>
      <trkpt lat="43.10855" lon="6.03475">
        <ele>33</ele>
        <time>2022-07-14T00:33:38Z</time>
      </trkpt>
      <trkpt lat="43.1083" lon="6.03415">
        <ele>33</ele>
        <time>2022-07-14T00:33:46Z</time>
      </trkpt>
      <trkpt lat="43.1082" lon="6.03383">
        <ele>34</ele>
        <time>2022-07-14T00:33:51Z</time>
      </trkpt>
      <trkpt lat="43.10811" lon="6.03376">
        <ele>34</ele>
        <time>2022-07-14T00:33:53Z</time>
      </trkpt>
      <trkpt lat="43.10808" lon="6.03367">
        <ele>34</ele>
        <time>2022-07-14T00:33:54Z</time>
      </trkpt>
      <trkpt lat="43.10807" lon="6.03356">
        <ele>34</ele>
        <time>2022-07-14T00:33:56Z</time>
      </trkpt>
      <trkpt lat="43.10813" lon="6.03345">
        <ele>34</ele>
        <time>2022-07-14T00:33:57Z</time>
      </trkpt>
      <trkpt lat="43.10813" lon="6.03329">
        <ele>33</ele>
        <time>2022-07-14T00:33:59Z</time>
      </trkpt>
      <trkpt lat="43.10785" lon="6.03151">
        <ele>32</ele>
        <time>2022-07-14T00:34:23Z</time>
      </trkpt>
      <trkpt lat="43.10782" lon="6.03144">
        <ele>32</ele>
        <time>2022-07-14T00:34:24Z</time>
      </trkpt>
      <trkpt lat="43.1076" lon="6.03121">
        <ele>33</ele>
        <time>2022-07-14T00:34:29Z</time>
      </trkpt>
      <trkpt lat="43.10756" lon="6.03103">
        <ele>33</ele>
        <time>2022-07-14T00:34:32Z</time>
      </trkpt>
      <trkpt lat="43.10756" lon="6.0309">
        <ele>33</ele>
        <time>2022-07-14T00:34:33Z</time>
      </trkpt>
      <trkpt lat="43.1076" lon="6.0308">
        <ele>33</ele>
        <time>2022-07-14T00:34:35Z</time>
      </trkpt>
      <trkpt lat="43.1077" lon="6.03064">
        <ele>32</ele>
        <time>2022-07-14T00:34:37Z</time>
      </trkpt>
      <trkpt lat="43.10752" lon="6.0294">
        <ele>32</ele>
        <time>2022-07-14T00:34:54Z</time>
      </trkpt>
      <trkpt lat="43.10747" lon="6.02921">
        <ele>32</ele>
        <time>2022-07-14T00:34:56Z</time>
      </trkpt>
      <trkpt lat="43.10735" lon="6.02906">
        <ele>32</ele>
        <time>2022-07-14T00:34:59Z</time>
      </trkpt>
      <trkpt lat="43.10727" lon="6.02874">
        <ele>33</ele>
        <time>2022-07-14T00:35:04Z</time>
      </trkpt>
      <trkpt lat="43.10677" lon="6.0262">
        <ele>34</ele>
        <time>2022-07-14T00:35:38Z</time>
      </trkpt>
      <trkpt lat="43.10675" lon="6.02593">
        <ele>34</ele>
        <time>2022-07-14T00:35:41Z</time>
      </trkpt>
      <trkpt lat="43.10676" lon="6.02564">
        <ele>34</ele>
        <time>2022-07-14T00:35:45Z</time>
      </trkpt>
      <trkpt lat="43.10669" lon="6.02515">
        <ele>33</ele>
        <time>2022-07-14T00:35:52Z</time>
      </trkpt>
      <trkpt lat="43.10677" lon="6.025">
        <ele>33</ele>
        <time>2022-07-14T00:35:54Z</time>
      </trkpt>
      <trkpt lat="43.10688" lon="6.02503">
        <ele>33</ele>
        <time>2022-07-14T00:35:56Z</time>
      </trkpt>
      <trkpt lat="43.10704" lon="6.02491">
        <ele>32</ele>
        <time>2022-07-14T00:35:59Z</time>
      </trkpt>
      <trkpt lat="43.10714" lon="6.0247">
        <ele>32</ele>
        <time>2022-07-14T00:36:03Z</time>
      </trkpt>
      <trkpt lat="43.10732" lon="6.02468">
        <ele>32</ele>
        <time>2022-07-14T00:36:06Z</time>
      </trkpt>
      <trkpt lat="43.10738" lon="6.02474">
        <ele>32</ele>
        <time>2022-07-14T00:36:07Z</time>
      </trkpt>
      <trkpt lat="43.1084" lon="6.02452">
        <ele>28</ele>
        <time>2022-07-14T00:36:26Z</time>
      </trkpt>
      <trkpt lat="43.10853" lon="6.02448">
        <ele>28</ele>
        <time>2022-07-14T00:36:28Z</time>
      </trkpt>
      <trkpt lat="43.10888" lon="6.02431">
        <ele>28</ele>
        <time>2022-07-14T00:36:34Z</time>
      </trkpt>
      <trkpt lat="43.10897" lon="6.02423">
        <ele>27</ele>
        <time>2022-07-14T00:36:36Z</time>
      </trkpt>
      <trkpt lat="43.10949" lon="6.02358">
        <ele>27</ele>
        <time>2022-07-14T00:36:49Z</time>
      </trkpt>
      <trkpt lat="43.10966" lon="6.02326">
        <ele>27</ele>
        <time>2022-07-14T00:36:54Z</time>
      </trkpt>
      <trkpt lat="43.10991" lon="6.02257">
        <ele>26</ele>
        <time>2022-07-14T00:37:04Z</time>
      </trkpt>
      <trkpt lat="43.11013" lon="6.02164">
        <ele>24</ele>
        <time>2022-07-14T00:37:17Z</time>
      </trkpt>
      <trkpt lat="43.11068" lon="6.01714">
        <ele>25</ele>
        <time>2022-07-14T00:38:16Z</time>
      </trkpt>
      <trkpt lat="43.11068" lon="6.0168">
        <ele>25</ele>
        <time>2022-07-14T00:38:20Z</time>
      </trkpt>
      <trkpt lat="43.11063" lon="6.0167">
        <ele>25</ele>
        <time>2022-07-14T00:38:22Z</time>
      </trkpt>
      <trkpt lat="43.11062" lon="6.01632">
        <ele>24</ele>
        <time>2022-07-14T00:38:27Z</time>
      </trkpt>
      <trkpt lat="43.11058" lon="6.01608">
        <ele>24</ele>
        <time>2022-07-14T00:38:30Z</time>
      </trkpt>
      <trkpt lat="43.11043" lon="6.01567">
        <ele>25</ele>
        <time>2022-07-14T00:38:36Z</time>
      </trkpt>
      <trkpt lat="43.10902" lon="6.01296">
        <ele>27</ele>
        <time>2022-07-14T00:39:19Z</time>
      </trkpt>
      <trkpt lat="43.10886" lon="6.01262">
        <ele>27</ele>
        <time>2022-07-14T00:39:25Z</time>
      </trkpt>
      <trkpt lat="43.10875" lon="6.01233">
        <ele>27</ele>
        <time>2022-07-14T00:39:29Z</time>
      </trkpt>
      <trkpt lat="43.10863" lon="6.01177">
        <ele>26</ele>
        <time>2022-07-14T00:39:36Z</time>
      </trkpt>
      <trkpt lat="43.10859" lon="6.01135">
        <ele>27</ele>
        <time>2022-07-14T00:39:42Z</time>
      </trkpt>
      <trkpt lat="43.10858" lon="6.00826">
        <ele>28</ele>
        <time>2022-07-14T00:40:22Z</time>
      </trkpt>
      <trkpt lat="43.10864" lon="6.00651">
        <ele>25</ele>
        <time>2022-07-14T00:40:45Z</time>
      </trkpt>
      <trkpt lat="43.10896" lon="6.00388">
        <ele>27</ele>
        <time>2022-07-14T00:41:19Z</time>
      </trkpt>
      <trkpt lat="43.10901" lon="6.00358">
        <ele>26</ele>
        <time>2022-07-14T00:41:23Z</time>
      </trkpt>
      <trkpt lat="43.10934" lon="6.00209">
        <ele>25</ele>
        <time>2022-07-14T00:41:44Z</time>
      </trkpt>
      <trkpt lat="43.1094" lon="6.00165">
        <ele>26</ele>
        <time>2022-07-14T00:41:50Z</time>
      </trkpt>
      <trkpt lat="43.10942" lon="6.00001">
        <ele>29</ele>
        <time>2022-07-14T00:42:11Z</time>
      </trkpt>
      <trkpt lat="43.10949" lon="5.99962">
        <ele>30</ele>
        <time>2022-07-14T00:42:16Z</time>
      </trkpt>
      <trkpt lat="43.10954" lon="5.99949">
        <ele>30</ele>
        <time>2022-07-14T00:42:18Z</time>
      </trkpt>
      <trkpt lat="43.10962" lon="5.9994">
        <ele>30</ele>
        <time>2022-07-14T00:42:20Z</time>
      </trkpt>
      <trkpt lat="43.10964" lon="5.99925">
        <ele>30</ele>
        <time>2022-07-14T00:42:22Z</time>
      </trkpt>
      <trkpt lat="43.11072" lon="5.99632">
        <ele>32</ele>
        <time>2022-07-14T00:43:04Z</time>
      </trkpt>
      <trkpt lat="43.1109" lon="5.99588">
        <ele>31</ele>
        <time>2022-07-14T00:43:11Z</time>
      </trkpt>
      <trkpt lat="43.11138" lon="5.99461">
        <ele>26</ele>
        <time>2022-07-14T00:43:30Z</time>
      </trkpt>
      <trkpt lat="43.11155" lon="5.99392">
        <ele>25</ele>
        <time>2022-07-14T00:43:39Z</time>
      </trkpt>
      <trkpt lat="43.11161" lon="5.99362">
        <ele>25</ele>
        <time>2022-07-14T00:43:43Z</time>
      </trkpt>
      <trkpt lat="43.11171" lon="5.99287">
        <ele>24</ele>
        <time>2022-07-14T00:43:53Z</time>
      </trkpt>
      <trkpt lat="43.11176" lon="5.99084">
        <ele>25</ele>
        <time>2022-07-14T00:44:19Z</time>
      </trkpt>
      <trkpt lat="43.11178" lon="5.9904">
        <ele>24</ele>
        <time>2022-07-14T00:44:25Z</time>
      </trkpt>
      <trkpt lat="43.11186" lon="5.98998">
        <ele>24</ele>
        <time>2022-07-14T00:44:31Z</time>
      </trkpt>
      <trkpt lat="43.11214" lon="5.98903">
        <ele>24</ele>
        <time>2022-07-14T00:44:44Z</time>
      </trkpt>
      <trkpt lat="43.1128" lon="5.98687">
        <ele>25</ele>
        <time>2022-07-14T00:45:14Z</time>
      </trkpt>
      <trkpt lat="43.1129" lon="5.98664">
        <ele>26</ele>
        <time>2022-07-14T00:45:18Z</time>
      </trkpt>
      <trkpt lat="43.1132" lon="5.98616">
        <ele>26</ele>
        <time>2022-07-14T00:45:26Z</time>
      </trkpt>
      <trkpt lat="43.1142" lon="5.98474">
        <ele>25</ele>
        <time>2022-07-14T00:45:52Z</time>
      </trkpt>
      <trkpt lat="43.11465" lon="5.98415">
        <ele>25</ele>
        <time>2022-07-14T00:46:03Z</time>
      </trkpt>
      <trkpt lat="43.11502" lon="5.98371">
        <ele>23</ele>
        <time>2022-07-14T00:46:12Z</time>
      </trkpt>
      <trkpt lat="43.11517" lon="5.98344">
        <ele>23</ele>
        <time>2022-07-14T00:46:16Z</time>
      </trkpt>
      <trkpt lat="43.11529" lon="5.9831">
        <ele>23</ele>
        <time>2022-07-14T00:46:21Z</time>
      </trkpt>
      <trkpt lat="43.11552" lon="5.98199">
        <ele>23</ele>
        <time>2022-07-14T00:46:36Z</time>
      </trkpt>
      <trkpt lat="43.11553" lon="5.98183">
        <ele>23</ele>
        <time>2022-07-14T00:46:38Z</time>
      </trkpt>
      <trkpt lat="43.11552" lon="5.98162">
        <ele>23</ele>
        <time>2022-07-14T00:46:41Z</time>
      </trkpt>
      <trkpt lat="43.11542" lon="5.98108">
        <ele>23</ele>
        <time>2022-07-14T00:46:48Z</time>
      </trkpt>
      <trkpt lat="43.11539" lon="5.98067">
        <ele>23</ele>
        <time>2022-07-14T00:46:53Z</time>
      </trkpt>
      <trkpt lat="43.11544" lon="5.98022">
        <ele>22</ele>
        <time>2022-07-14T00:46:59Z</time>
      </trkpt>
      <trkpt lat="43.11549" lon="5.97993">
        <ele>22</ele>
        <time>2022-07-14T00:47:03Z</time>
      </trkpt>
      <trkpt lat="43.11575" lon="5.97882">
        <ele>21</ele>
        <time>2022-07-14T00:47:18Z</time>
      </trkpt>
      <trkpt lat="43.11592" lon="5.97756">
        <ele>21</ele>
        <time>2022-07-14T00:47:35Z</time>
      </trkpt>
      <trkpt lat="43.11563" lon="5.97745">
        <ele>22</ele>
        <time>2022-07-14T00:47:40Z</time>
      </trkpt>
      <trkpt lat="43.11581" lon="5.97658">
        <ele>22</ele>
        <time>2022-07-14T00:47:52Z</time>
      </trkpt>
      <trkpt lat="43.11577" lon="5.97621">
        <ele>22</ele>
        <time>2022-07-14T00:47:57Z</time>
      </trkpt>
      <trkpt lat="43.1156" lon="5.97586">
        <ele>24</ele>
        <time>2022-07-14T00:48:02Z</time>
      </trkpt>
      <trkpt lat="43.11509" lon="5.97518">
        <ele>28</ele>
        <time>2022-07-14T00:48:15Z</time>
      </trkpt>
      <trkpt lat="43.11497" lon="5.97484">
        <ele>28</ele>
        <time>2022-07-14T00:48:20Z</time>
      </trkpt>
      <trkpt lat="43.11494" lon="5.97453">
        <ele>28</ele>
        <time>2022-07-14T00:48:24Z</time>
      </trkpt>
      <trkpt lat="43.11499" lon="5.97449">
        <ele>28</ele>
        <time>2022-07-14T00:48:25Z</time>
      </trkpt>
      <trkpt lat="43.11504" lon="5.97439">
        <ele>28</ele>
        <time>2022-07-14T00:48:26Z</time>
      </trkpt>
      <trkpt lat="43.11512" lon="5.97385">
        <ele>28</ele>
        <time>2022-07-14T00:48:34Z</time>
      </trkpt>
      <trkpt lat="43.1153" lon="5.97309">
        <ele>28</ele>
        <time>2022-07-14T00:48:44Z</time>
      </trkpt>
      <trkpt lat="43.11555" lon="5.97254">
        <ele>25</ele>
        <time>2022-07-14T00:48:52Z</time>
      </trkpt>
      <trkpt lat="43.11669" lon="5.97118">
        <ele>23</ele>
        <time>2022-07-14T00:49:19Z</time>
      </trkpt>
      <trkpt lat="43.11658" lon="5.97083">
        <ele>24</ele>
        <time>2022-07-14T00:49:24Z</time>
      </trkpt>
      <trkpt lat="43.11619" lon="5.97089">
        <ele>26</ele>
        <time>2022-07-14T00:49:31Z</time>
      </trkpt>
      <trkpt lat="43.116" lon="5.97105">
        <ele>26</ele>
        <time>2022-07-14T00:49:35Z</time>
      </trkpt>
      <trkpt lat="43.11572" lon="5.97134">
        <ele>27</ele>
        <time>2022-07-14T00:49:41Z</time>
      </trkpt>
      <trkpt lat="43.11568" lon="5.9714">
        <ele>27</ele>
        <time>2022-07-14T00:49:42Z</time>
      </trkpt>
      <trkpt lat="43.11544" lon="5.97086">
        <ele>28</ele>
        <time>2022-07-14T00:49:51Z</time>
      </trkpt>
      <trkpt lat="43.11375" lon="5.97112">
        <ele>32</ele>
        <time>2022-07-14T00:50:21Z</time>
      </trkpt>
      <trkpt lat="43.11347" lon="5.97105">
        <ele>34</ele>
        <time>2022-07-14T00:50:26Z</time>
      </trkpt>
    </trkseg>
  </trk>
</gpx>